<?xml version="1.0" encoding="UTF-8" standalone="no" ?>
<gpx xmlns="http://www.topografix.com/GPX/1/1" xmlns:xsi="http://www.w3.org/2001/XMLSchema-instance" xsi:schemaLocation="http://www.topografix.com/GPX/1/1 http://www.topografix.com/GPX/1/1/gpx.xsd" version="1.1" creator="VisuGPX - https://www.visugpx.com">
  <metadata>
    <name>balade lannion trébeurden trégastel lannion</name>
    <desc><![CDATA[balade autour de lannion, via trébeurden et trégastel]]></desc>
  </metadata>
  <trk>
    <name><![CDATA[7 nov. 2015 14:03:41]]></name>
    <cmt><![CDATA[7 nov. 2015 14:03:41]]></cmt>
    <trkseg>
      <trkpt lat="48.73657" lon="-3.46309">
        <ele>49.8</ele>
        <time>2015-11-07T13:04:25Z</time>
      </trkpt>
      <trkpt lat="48.73681" lon="-3.46281">
        <ele>10</ele>
        <time>2015-11-07T13:04:33Z</time>
      </trkpt>
      <trkpt lat="48.73697" lon="-3.46265">
        <ele>8</ele>
        <time>2015-11-07T13:04:38Z</time>
      </trkpt>
      <trkpt lat="48.7371" lon="-3.4625">
        <ele>7</ele>
        <time>2015-11-07T13:04:43Z</time>
      </trkpt>
      <trkpt lat="48.73719" lon="-3.46239">
        <ele>6</ele>
        <time>2015-11-07T13:04:46Z</time>
      </trkpt>
      <trkpt lat="48.73727" lon="-3.46225">
        <ele>6</ele>
        <time>2015-11-07T13:04:48Z</time>
      </trkpt>
      <trkpt lat="48.73733" lon="-3.46211">
        <ele>6</ele>
        <time>2015-11-07T13:04:51Z</time>
      </trkpt>
      <trkpt lat="48.73738" lon="-3.462">
        <ele>6</ele>
        <time>2015-11-07T13:04:54Z</time>
      </trkpt>
      <trkpt lat="48.73748" lon="-3.462">
        <ele>5</ele>
        <time>2015-11-07T13:04:57Z</time>
      </trkpt>
      <trkpt lat="48.73761" lon="-3.46209">
        <ele>5</ele>
        <time>2015-11-07T13:05:00Z</time>
      </trkpt>
      <trkpt lat="48.73769" lon="-3.46215">
        <ele>5</ele>
        <time>2015-11-07T13:05:02Z</time>
      </trkpt>
      <trkpt lat="48.73788" lon="-3.46228">
        <ele>4</ele>
        <time>2015-11-07T13:05:06Z</time>
      </trkpt>
      <trkpt lat="48.73798" lon="-3.46235">
        <ele>4</ele>
        <time>2015-11-07T13:05:08Z</time>
      </trkpt>
      <trkpt lat="48.73808" lon="-3.46241">
        <ele>4</ele>
        <time>2015-11-07T13:05:10Z</time>
      </trkpt>
      <trkpt lat="48.73817" lon="-3.46248">
        <ele>3</ele>
        <time>2015-11-07T13:05:13Z</time>
      </trkpt>
      <trkpt lat="48.73827" lon="-3.46254">
        <ele>3</ele>
        <time>2015-11-07T13:05:14Z</time>
      </trkpt>
      <trkpt lat="48.73842" lon="-3.46261">
        <ele>3</ele>
        <time>2015-11-07T13:05:17Z</time>
      </trkpt>
      <trkpt lat="48.73852" lon="-3.46265">
        <ele>3</ele>
        <time>2015-11-07T13:05:19Z</time>
      </trkpt>
      <trkpt lat="48.73862" lon="-3.4627">
        <ele>3</ele>
        <time>2015-11-07T13:05:21Z</time>
      </trkpt>
      <trkpt lat="48.73877" lon="-3.46277">
        <ele>3</ele>
        <time>2015-11-07T13:05:24Z</time>
      </trkpt>
      <trkpt lat="48.73887" lon="-3.46283">
        <ele>3</ele>
        <time>2015-11-07T13:05:26Z</time>
      </trkpt>
      <trkpt lat="48.73896" lon="-3.46288">
        <ele>2</ele>
        <time>2015-11-07T13:05:28Z</time>
      </trkpt>
      <trkpt lat="48.73914" lon="-3.46298">
        <ele>2</ele>
        <time>2015-11-07T13:05:32Z</time>
      </trkpt>
      <trkpt lat="48.73925" lon="-3.46307">
        <ele>2</ele>
        <time>2015-11-07T13:05:35Z</time>
      </trkpt>
      <trkpt lat="48.73935" lon="-3.46328">
        <ele>2</ele>
        <time>2015-11-07T13:05:42Z</time>
      </trkpt>
      <trkpt lat="48.73938" lon="-3.46343">
        <ele>2</ele>
        <time>2015-11-07T13:05:46Z</time>
      </trkpt>
      <trkpt lat="48.73941" lon="-3.46356">
        <ele>1</ele>
        <time>2015-11-07T13:05:48Z</time>
      </trkpt>
      <trkpt lat="48.73945" lon="-3.4637">
        <ele>1</ele>
        <time>2015-11-07T13:05:50Z</time>
      </trkpt>
      <trkpt lat="48.7395" lon="-3.46384">
        <ele>1</ele>
        <time>2015-11-07T13:05:52Z</time>
      </trkpt>
      <trkpt lat="48.73963" lon="-3.46402">
        <ele>1</ele>
        <time>2015-11-07T13:05:55Z</time>
      </trkpt>
      <trkpt lat="48.73979" lon="-3.46411">
        <ele>1</ele>
        <time>2015-11-07T13:05:58Z</time>
      </trkpt>
      <trkpt lat="48.73991" lon="-3.46415">
        <ele>1</ele>
        <time>2015-11-07T13:06:00Z</time>
      </trkpt>
      <trkpt lat="48.74002" lon="-3.46417">
        <ele>47.1</ele>
        <time>2015-11-07T13:06:02Z</time>
      </trkpt>
      <trkpt lat="48.74011" lon="-3.4642">
        <ele>47.8</ele>
        <time>2015-11-07T13:06:04Z</time>
      </trkpt>
      <trkpt lat="48.7402" lon="-3.46422">
        <ele>48.3</ele>
        <time>2015-11-07T13:06:06Z</time>
      </trkpt>
      <trkpt lat="48.74031" lon="-3.46426">
        <ele>48.7</ele>
        <time>2015-11-07T13:06:09Z</time>
      </trkpt>
      <trkpt lat="48.74042" lon="-3.46428">
        <ele>48.7</ele>
        <time>2015-11-07T13:06:12Z</time>
      </trkpt>
      <trkpt lat="48.74051" lon="-3.46431">
        <ele>48.5</ele>
        <time>2015-11-07T13:06:15Z</time>
      </trkpt>
      <trkpt lat="48.74061" lon="-3.46433">
        <ele>47.7</ele>
        <time>2015-11-07T13:06:18Z</time>
      </trkpt>
      <trkpt lat="48.74071" lon="-3.46435">
        <ele>1</ele>
        <time>2015-11-07T13:06:21Z</time>
      </trkpt>
      <trkpt lat="48.7408" lon="-3.46437">
        <ele>1</ele>
        <time>2015-11-07T13:06:24Z</time>
      </trkpt>
      <trkpt lat="48.7409" lon="-3.46439">
        <ele>1</ele>
        <time>2015-11-07T13:06:27Z</time>
      </trkpt>
      <trkpt lat="48.74099" lon="-3.46442">
        <ele>1</ele>
        <time>2015-11-07T13:06:30Z</time>
      </trkpt>
      <trkpt lat="48.74115" lon="-3.46445">
        <ele>1</ele>
        <time>2015-11-07T13:06:35Z</time>
      </trkpt>
      <trkpt lat="48.74131" lon="-3.46448">
        <ele>1</ele>
        <time>2015-11-07T13:06:40Z</time>
      </trkpt>
      <trkpt lat="48.74146" lon="-3.46451">
        <ele>1</ele>
        <time>2015-11-07T13:06:45Z</time>
      </trkpt>
      <trkpt lat="48.74159" lon="-3.46454">
        <ele>2</ele>
        <time>2015-11-07T13:06:49Z</time>
      </trkpt>
      <trkpt lat="48.74174" lon="-3.46457">
        <ele>2</ele>
        <time>2015-11-07T13:06:55Z</time>
      </trkpt>
      <trkpt lat="48.74182" lon="-3.46459">
        <ele>2</ele>
        <time>2015-11-07T13:06:58Z</time>
      </trkpt>
      <trkpt lat="48.7419" lon="-3.46461">
        <ele>2</ele>
        <time>2015-11-07T13:07:01Z</time>
      </trkpt>
      <trkpt lat="48.74199" lon="-3.46464">
        <ele>2</ele>
        <time>2015-11-07T13:07:04Z</time>
      </trkpt>
      <trkpt lat="48.74207" lon="-3.46465">
        <ele>3</ele>
        <time>2015-11-07T13:07:07Z</time>
      </trkpt>
      <trkpt lat="48.74215" lon="-3.46467">
        <ele>3</ele>
        <time>2015-11-07T13:07:10Z</time>
      </trkpt>
      <trkpt lat="48.74225" lon="-3.4647">
        <ele>3</ele>
        <time>2015-11-07T13:07:14Z</time>
      </trkpt>
      <trkpt lat="48.74235" lon="-3.46472">
        <ele>4</ele>
        <time>2015-11-07T13:07:18Z</time>
      </trkpt>
      <trkpt lat="48.74244" lon="-3.46474">
        <ele>4</ele>
        <time>2015-11-07T13:07:22Z</time>
      </trkpt>
      <trkpt lat="48.7426" lon="-3.46477">
        <ele>4</ele>
        <time>2015-11-07T13:07:29Z</time>
      </trkpt>
      <trkpt lat="48.74269" lon="-3.4648">
        <ele>5</ele>
        <time>2015-11-07T13:07:33Z</time>
      </trkpt>
      <trkpt lat="48.74283" lon="-3.46484">
        <ele>7</ele>
        <time>2015-11-07T13:07:39Z</time>
      </trkpt>
      <trkpt lat="48.74292" lon="-3.46487">
        <ele>8</ele>
        <time>2015-11-07T13:07:43Z</time>
      </trkpt>
      <trkpt lat="48.74309" lon="-3.46492">
        <ele>9</ele>
        <time>2015-11-07T13:07:50Z</time>
      </trkpt>
      <trkpt lat="48.74318" lon="-3.46495">
        <ele>10</ele>
        <time>2015-11-07T13:07:54Z</time>
      </trkpt>
      <trkpt lat="48.74329" lon="-3.46498">
        <ele>11</ele>
        <time>2015-11-07T13:07:58Z</time>
      </trkpt>
      <trkpt lat="48.74339" lon="-3.465">
        <ele>12</ele>
        <time>2015-11-07T13:08:02Z</time>
      </trkpt>
      <trkpt lat="48.74353" lon="-3.46505">
        <ele>13</ele>
        <time>2015-11-07T13:08:07Z</time>
      </trkpt>
      <trkpt lat="48.74362" lon="-3.46507">
        <ele>13</ele>
        <time>2015-11-07T13:08:10Z</time>
      </trkpt>
      <trkpt lat="48.74372" lon="-3.46511">
        <ele>13</ele>
        <time>2015-11-07T13:08:13Z</time>
      </trkpt>
      <trkpt lat="48.74381" lon="-3.46515">
        <ele>14</ele>
        <time>2015-11-07T13:08:16Z</time>
      </trkpt>
      <trkpt lat="48.74391" lon="-3.46518">
        <ele>14</ele>
        <time>2015-11-07T13:08:19Z</time>
      </trkpt>
      <trkpt lat="48.74403" lon="-3.46524">
        <ele>14</ele>
        <time>2015-11-07T13:08:23Z</time>
      </trkpt>
      <trkpt lat="48.74416" lon="-3.4653">
        <ele>14</ele>
        <time>2015-11-07T13:08:27Z</time>
      </trkpt>
      <trkpt lat="48.74425" lon="-3.46534">
        <ele>15</ele>
        <time>2015-11-07T13:08:30Z</time>
      </trkpt>
      <trkpt lat="48.74434" lon="-3.46538">
        <ele>15</ele>
        <time>2015-11-07T13:08:33Z</time>
      </trkpt>
      <trkpt lat="48.74449" lon="-3.46546">
        <ele>15</ele>
        <time>2015-11-07T13:08:38Z</time>
      </trkpt>
      <trkpt lat="48.74459" lon="-3.4655">
        <ele>16</ele>
        <time>2015-11-07T13:08:41Z</time>
      </trkpt>
      <trkpt lat="48.74468" lon="-3.46554">
        <ele>16</ele>
        <time>2015-11-07T13:08:44Z</time>
      </trkpt>
      <trkpt lat="48.7448" lon="-3.46558">
        <ele>16</ele>
        <time>2015-11-07T13:08:48Z</time>
      </trkpt>
      <trkpt lat="48.74494" lon="-3.46566">
        <ele>17</ele>
        <time>2015-11-07T13:08:54Z</time>
      </trkpt>
      <trkpt lat="48.74511" lon="-3.46577">
        <ele>17</ele>
        <time>2015-11-07T13:08:59Z</time>
      </trkpt>
      <trkpt lat="48.74526" lon="-3.46586">
        <ele>17</ele>
        <time>2015-11-07T13:09:05Z</time>
      </trkpt>
      <trkpt lat="48.74541" lon="-3.46595">
        <ele>17</ele>
        <time>2015-11-07T13:09:10Z</time>
      </trkpt>
      <trkpt lat="48.7455" lon="-3.46601">
        <ele>17</ele>
        <time>2015-11-07T13:09:13Z</time>
      </trkpt>
      <trkpt lat="48.74559" lon="-3.46607">
        <ele>18</ele>
        <time>2015-11-07T13:09:16Z</time>
      </trkpt>
      <trkpt lat="48.74575" lon="-3.4662">
        <ele>18</ele>
        <time>2015-11-07T13:09:22Z</time>
      </trkpt>
      <trkpt lat="48.74585" lon="-3.46628">
        <ele>19</ele>
        <time>2015-11-07T13:09:26Z</time>
      </trkpt>
      <trkpt lat="48.746" lon="-3.46643">
        <ele>19</ele>
        <time>2015-11-07T13:09:33Z</time>
      </trkpt>
      <trkpt lat="48.74616" lon="-3.46652">
        <ele>20</ele>
        <time>2015-11-07T13:09:40Z</time>
      </trkpt>
      <trkpt lat="48.74625" lon="-3.46654">
        <ele>21</ele>
        <time>2015-11-07T13:09:46Z</time>
      </trkpt>
      <trkpt lat="48.74635" lon="-3.46652">
        <ele>22</ele>
        <time>2015-11-07T13:09:54Z</time>
      </trkpt>
      <trkpt lat="48.74653" lon="-3.46661">
        <ele>23</ele>
        <time>2015-11-07T13:10:00Z</time>
      </trkpt>
      <trkpt lat="48.74671" lon="-3.46669">
        <ele>23</ele>
        <time>2015-11-07T13:10:05Z</time>
      </trkpt>
      <trkpt lat="48.74689" lon="-3.46672">
        <ele>23</ele>
        <time>2015-11-07T13:10:11Z</time>
      </trkpt>
      <trkpt lat="48.74704" lon="-3.46674">
        <ele>23</ele>
        <time>2015-11-07T13:10:14Z</time>
      </trkpt>
      <trkpt lat="48.74722" lon="-3.46676">
        <ele>24</ele>
        <time>2015-11-07T13:10:20Z</time>
      </trkpt>
      <trkpt lat="48.74741" lon="-3.46679">
        <ele>24</ele>
        <time>2015-11-07T13:10:24Z</time>
      </trkpt>
      <trkpt lat="48.7476" lon="-3.46682">
        <ele>24</ele>
        <time>2015-11-07T13:10:29Z</time>
      </trkpt>
      <trkpt lat="48.74771" lon="-3.46682">
        <ele>25</ele>
        <time>2015-11-07T13:10:32Z</time>
      </trkpt>
      <trkpt lat="48.74782" lon="-3.46683">
        <ele>25</ele>
        <time>2015-11-07T13:10:35Z</time>
      </trkpt>
      <trkpt lat="48.74801" lon="-3.46684">
        <ele>26</ele>
        <time>2015-11-07T13:10:40Z</time>
      </trkpt>
      <trkpt lat="48.74817" lon="-3.46683">
        <ele>26</ele>
        <time>2015-11-07T13:10:44Z</time>
      </trkpt>
      <trkpt lat="48.74832" lon="-3.46683">
        <ele>26</ele>
        <time>2015-11-07T13:10:48Z</time>
      </trkpt>
      <trkpt lat="48.74848" lon="-3.46684">
        <ele>27</ele>
        <time>2015-11-07T13:10:52Z</time>
      </trkpt>
      <trkpt lat="48.74864" lon="-3.46683">
        <ele>27</ele>
        <time>2015-11-07T13:10:56Z</time>
      </trkpt>
      <trkpt lat="48.7488" lon="-3.46684">
        <ele>27</ele>
        <time>2015-11-07T13:11:00Z</time>
      </trkpt>
      <trkpt lat="48.74891" lon="-3.46686">
        <ele>28</ele>
        <time>2015-11-07T13:11:03Z</time>
      </trkpt>
      <trkpt lat="48.74921" lon="-3.46692">
        <ele>28</ele>
        <time>2015-11-07T13:11:13Z</time>
      </trkpt>
      <trkpt lat="48.74952" lon="-3.467">
        <ele>27</ele>
        <time>2015-11-07T13:11:22Z</time>
      </trkpt>
      <trkpt lat="48.74987" lon="-3.46699">
        <ele>27</ele>
        <time>2015-11-07T13:11:30Z</time>
      </trkpt>
      <trkpt lat="48.75005" lon="-3.46697">
        <ele>27</ele>
        <time>2015-11-07T13:11:34Z</time>
      </trkpt>
      <trkpt lat="48.7502" lon="-3.46697">
        <ele>27</ele>
        <time>2015-11-07T13:11:37Z</time>
      </trkpt>
      <trkpt lat="48.75037" lon="-3.46697">
        <ele>27</ele>
        <time>2015-11-07T13:11:40Z</time>
      </trkpt>
      <trkpt lat="48.75047" lon="-3.46698">
        <ele>27</ele>
        <time>2015-11-07T13:11:42Z</time>
      </trkpt>
      <trkpt lat="48.75057" lon="-3.467">
        <ele>27</ele>
        <time>2015-11-07T13:11:44Z</time>
      </trkpt>
      <trkpt lat="48.75066" lon="-3.46704">
        <ele>26</ele>
        <time>2015-11-07T13:11:46Z</time>
      </trkpt>
      <trkpt lat="48.75084" lon="-3.46714">
        <ele>26</ele>
        <time>2015-11-07T13:11:50Z</time>
      </trkpt>
      <trkpt lat="48.75096" lon="-3.4672">
        <ele>27</ele>
        <time>2015-11-07T13:11:53Z</time>
      </trkpt>
      <trkpt lat="48.75104" lon="-3.46724">
        <ele>27</ele>
        <time>2015-11-07T13:11:55Z</time>
      </trkpt>
      <trkpt lat="48.75115" lon="-3.46729">
        <ele>27</ele>
        <time>2015-11-07T13:11:58Z</time>
      </trkpt>
      <trkpt lat="48.75131" lon="-3.46736">
        <ele>28</ele>
        <time>2015-11-07T13:12:03Z</time>
      </trkpt>
      <trkpt lat="48.75145" lon="-3.46746">
        <ele>28</ele>
        <time>2015-11-07T13:12:08Z</time>
      </trkpt>
      <trkpt lat="48.75155" lon="-3.46768">
        <ele>29</ele>
        <time>2015-11-07T13:12:14Z</time>
      </trkpt>
      <trkpt lat="48.75159" lon="-3.46791">
        <ele>29</ele>
        <time>2015-11-07T13:12:19Z</time>
      </trkpt>
      <trkpt lat="48.75163" lon="-3.46816">
        <ele>30</ele>
        <time>2015-11-07T13:12:24Z</time>
      </trkpt>
      <trkpt lat="48.75168" lon="-3.46844">
        <ele>30</ele>
        <time>2015-11-07T13:12:29Z</time>
      </trkpt>
      <trkpt lat="48.75171" lon="-3.46862">
        <ele>30</ele>
        <time>2015-11-07T13:12:32Z</time>
      </trkpt>
      <trkpt lat="48.75175" lon="-3.46885">
        <ele>30</ele>
        <time>2015-11-07T13:12:36Z</time>
      </trkpt>
      <trkpt lat="48.75184" lon="-3.46928">
        <ele>30</ele>
        <time>2015-11-07T13:12:43Z</time>
      </trkpt>
      <trkpt lat="48.75187" lon="-3.46952">
        <ele>30</ele>
        <time>2015-11-07T13:12:48Z</time>
      </trkpt>
      <trkpt lat="48.7519" lon="-3.46976">
        <ele>30</ele>
        <time>2015-11-07T13:12:51Z</time>
      </trkpt>
      <trkpt lat="48.75194" lon="-3.47">
        <ele>29</ele>
        <time>2015-11-07T13:12:55Z</time>
      </trkpt>
      <trkpt lat="48.75199" lon="-3.47026">
        <ele>29</ele>
        <time>2015-11-07T13:12:59Z</time>
      </trkpt>
      <trkpt lat="48.75204" lon="-3.47048">
        <ele>28</ele>
        <time>2015-11-07T13:13:02Z</time>
      </trkpt>
      <trkpt lat="48.75207" lon="-3.47064">
        <ele>28</ele>
        <time>2015-11-07T13:13:04Z</time>
      </trkpt>
      <trkpt lat="48.7521" lon="-3.47079">
        <ele>28</ele>
        <time>2015-11-07T13:13:06Z</time>
      </trkpt>
      <trkpt lat="48.75213" lon="-3.47093">
        <ele>27</ele>
        <time>2015-11-07T13:13:08Z</time>
      </trkpt>
      <trkpt lat="48.75215" lon="-3.47107">
        <ele>27</ele>
        <time>2015-11-07T13:13:10Z</time>
      </trkpt>
      <trkpt lat="48.75219" lon="-3.47135">
        <ele>27</ele>
        <time>2015-11-07T13:13:14Z</time>
      </trkpt>
      <trkpt lat="48.7522" lon="-3.47162">
        <ele>27</ele>
        <time>2015-11-07T13:13:18Z</time>
      </trkpt>
      <trkpt lat="48.75219" lon="-3.47175">
        <ele>28</ele>
        <time>2015-11-07T13:13:20Z</time>
      </trkpt>
      <trkpt lat="48.75215" lon="-3.47194">
        <ele>28</ele>
        <time>2015-11-07T13:13:23Z</time>
      </trkpt>
      <trkpt lat="48.7521" lon="-3.47221">
        <ele>28</ele>
        <time>2015-11-07T13:13:27Z</time>
      </trkpt>
      <trkpt lat="48.75204" lon="-3.47246">
        <ele>29</ele>
        <time>2015-11-07T13:13:31Z</time>
      </trkpt>
      <trkpt lat="48.75201" lon="-3.47258">
        <ele>30</ele>
        <time>2015-11-07T13:13:33Z</time>
      </trkpt>
      <trkpt lat="48.75198" lon="-3.47271">
        <ele>30</ele>
        <time>2015-11-07T13:13:35Z</time>
      </trkpt>
      <trkpt lat="48.75194" lon="-3.47288">
        <ele>31</ele>
        <time>2015-11-07T13:13:38Z</time>
      </trkpt>
      <trkpt lat="48.7519" lon="-3.47305">
        <ele>31</ele>
        <time>2015-11-07T13:13:41Z</time>
      </trkpt>
      <trkpt lat="48.75187" lon="-3.47322">
        <ele>32</ele>
        <time>2015-11-07T13:13:44Z</time>
      </trkpt>
      <trkpt lat="48.75183" lon="-3.47339">
        <ele>33</ele>
        <time>2015-11-07T13:13:47Z</time>
      </trkpt>
      <trkpt lat="48.75178" lon="-3.47362">
        <ele>33</ele>
        <time>2015-11-07T13:13:51Z</time>
      </trkpt>
      <trkpt lat="48.75175" lon="-3.47379">
        <ele>34</ele>
        <time>2015-11-07T13:13:54Z</time>
      </trkpt>
      <trkpt lat="48.7517" lon="-3.47407">
        <ele>34</ele>
        <time>2015-11-07T13:13:59Z</time>
      </trkpt>
      <trkpt lat="48.75167" lon="-3.47424">
        <ele>35</ele>
        <time>2015-11-07T13:14:02Z</time>
      </trkpt>
      <trkpt lat="48.75164" lon="-3.47441">
        <ele>36</ele>
        <time>2015-11-07T13:14:05Z</time>
      </trkpt>
      <trkpt lat="48.75161" lon="-3.47464">
        <ele>36</ele>
        <time>2015-11-07T13:14:09Z</time>
      </trkpt>
      <trkpt lat="48.7516" lon="-3.47481">
        <ele>37</ele>
        <time>2015-11-07T13:14:12Z</time>
      </trkpt>
      <trkpt lat="48.7516" lon="-3.47505">
        <ele>37</ele>
        <time>2015-11-07T13:14:16Z</time>
      </trkpt>
      <trkpt lat="48.75161" lon="-3.47523">
        <ele>37</ele>
        <time>2015-11-07T13:14:19Z</time>
      </trkpt>
      <trkpt lat="48.75162" lon="-3.47542">
        <ele>38</ele>
        <time>2015-11-07T13:14:22Z</time>
      </trkpt>
      <trkpt lat="48.75164" lon="-3.47554">
        <ele>38</ele>
        <time>2015-11-07T13:14:25Z</time>
      </trkpt>
      <trkpt lat="48.75166" lon="-3.47566">
        <ele>38</ele>
        <time>2015-11-07T13:14:26Z</time>
      </trkpt>
      <trkpt lat="48.75169" lon="-3.47578">
        <ele>38</ele>
        <time>2015-11-07T13:14:28Z</time>
      </trkpt>
      <trkpt lat="48.75172" lon="-3.47591">
        <ele>39</ele>
        <time>2015-11-07T13:14:30Z</time>
      </trkpt>
      <trkpt lat="48.75175" lon="-3.47603">
        <ele>39</ele>
        <time>2015-11-07T13:14:32Z</time>
      </trkpt>
      <trkpt lat="48.75178" lon="-3.47616">
        <ele>39</ele>
        <time>2015-11-07T13:14:34Z</time>
      </trkpt>
      <trkpt lat="48.75181" lon="-3.47629">
        <ele>39</ele>
        <time>2015-11-07T13:14:36Z</time>
      </trkpt>
      <trkpt lat="48.75184" lon="-3.47642">
        <ele>40</ele>
        <time>2015-11-07T13:14:38Z</time>
      </trkpt>
      <trkpt lat="48.75187" lon="-3.47655">
        <ele>40</ele>
        <time>2015-11-07T13:14:40Z</time>
      </trkpt>
      <trkpt lat="48.75194" lon="-3.47681">
        <ele>40</ele>
        <time>2015-11-07T13:14:44Z</time>
      </trkpt>
      <trkpt lat="48.75198" lon="-3.47694">
        <ele>40</ele>
        <time>2015-11-07T13:14:46Z</time>
      </trkpt>
      <trkpt lat="48.75201" lon="-3.47707">
        <ele>40</ele>
        <time>2015-11-07T13:14:48Z</time>
      </trkpt>
      <trkpt lat="48.75206" lon="-3.47726">
        <ele>40</ele>
        <time>2015-11-07T13:14:51Z</time>
      </trkpt>
      <trkpt lat="48.75208" lon="-3.47739">
        <ele>40</ele>
        <time>2015-11-07T13:14:53Z</time>
      </trkpt>
      <trkpt lat="48.75204" lon="-3.47788">
        <ele>41</ele>
        <time>2015-11-07T13:15:00Z</time>
      </trkpt>
      <trkpt lat="48.75194" lon="-3.4781">
        <ele>40</ele>
        <time>2015-11-07T13:15:04Z</time>
      </trkpt>
      <trkpt lat="48.7515" lon="-3.47836">
        <ele>87</ele>
        <time>2015-11-07T13:15:14Z</time>
      </trkpt>
      <trkpt lat="48.75087" lon="-3.47883">
        <ele>40</ele>
        <time>2015-11-07T13:15:26Z</time>
      </trkpt>
      <trkpt lat="48.75076" lon="-3.4791">
        <ele>39</ele>
        <time>2015-11-07T13:15:30Z</time>
      </trkpt>
      <trkpt lat="48.75074" lon="-3.47937">
        <ele>39</ele>
        <time>2015-11-07T13:15:34Z</time>
      </trkpt>
      <trkpt lat="48.75073" lon="-3.47963">
        <ele>39</ele>
        <time>2015-11-07T13:15:38Z</time>
      </trkpt>
      <trkpt lat="48.75066" lon="-3.47988">
        <ele>39</ele>
        <time>2015-11-07T13:15:42Z</time>
      </trkpt>
      <trkpt lat="48.75057" lon="-3.48013">
        <ele>39</ele>
        <time>2015-11-07T13:15:46Z</time>
      </trkpt>
      <trkpt lat="48.75053" lon="-3.48025">
        <ele>39</ele>
        <time>2015-11-07T13:15:48Z</time>
      </trkpt>
      <trkpt lat="48.75047" lon="-3.48051">
        <ele>40</ele>
        <time>2015-11-07T13:15:52Z</time>
      </trkpt>
      <trkpt lat="48.75045" lon="-3.48064">
        <ele>40</ele>
        <time>2015-11-07T13:15:54Z</time>
      </trkpt>
      <trkpt lat="48.75043" lon="-3.48076">
        <ele>40</ele>
        <time>2015-11-07T13:15:56Z</time>
      </trkpt>
      <trkpt lat="48.7504" lon="-3.48088">
        <ele>40</ele>
        <time>2015-11-07T13:15:58Z</time>
      </trkpt>
      <trkpt lat="48.75038" lon="-3.481">
        <ele>40</ele>
        <time>2015-11-07T13:16:00Z</time>
      </trkpt>
      <trkpt lat="48.75035" lon="-3.48112">
        <ele>40</ele>
        <time>2015-11-07T13:16:02Z</time>
      </trkpt>
      <trkpt lat="48.75033" lon="-3.48124">
        <ele>40</ele>
        <time>2015-11-07T13:16:05Z</time>
      </trkpt>
      <trkpt lat="48.75031" lon="-3.48136">
        <ele>40</ele>
        <time>2015-11-07T13:16:06Z</time>
      </trkpt>
      <trkpt lat="48.7503" lon="-3.48155">
        <ele>40</ele>
        <time>2015-11-07T13:16:09Z</time>
      </trkpt>
      <trkpt lat="48.75029" lon="-3.48168">
        <ele>40</ele>
        <time>2015-11-07T13:16:11Z</time>
      </trkpt>
      <trkpt lat="48.75025" lon="-3.48191">
        <ele>40</ele>
        <time>2015-11-07T13:16:15Z</time>
      </trkpt>
      <trkpt lat="48.75022" lon="-3.48208">
        <ele>40</ele>
        <time>2015-11-07T13:16:18Z</time>
      </trkpt>
      <trkpt lat="48.75018" lon="-3.48224">
        <ele>40</ele>
        <time>2015-11-07T13:16:21Z</time>
      </trkpt>
      <trkpt lat="48.75011" lon="-3.4825">
        <ele>40</ele>
        <time>2015-11-07T13:16:26Z</time>
      </trkpt>
      <trkpt lat="48.75007" lon="-3.48263">
        <ele>40</ele>
        <time>2015-11-07T13:16:29Z</time>
      </trkpt>
      <trkpt lat="48.75001" lon="-3.48292">
        <ele>40</ele>
        <time>2015-11-07T13:16:36Z</time>
      </trkpt>
      <trkpt lat="48.74998" lon="-3.48304">
        <ele>41</ele>
        <time>2015-11-07T13:16:39Z</time>
      </trkpt>
      <trkpt lat="48.74996" lon="-3.48317">
        <ele>41</ele>
        <time>2015-11-07T13:16:42Z</time>
      </trkpt>
      <trkpt lat="48.74993" lon="-3.48329">
        <ele>41</ele>
        <time>2015-11-07T13:16:45Z</time>
      </trkpt>
      <trkpt lat="48.74991" lon="-3.48341">
        <ele>41</ele>
        <time>2015-11-07T13:16:48Z</time>
      </trkpt>
      <trkpt lat="48.74988" lon="-3.48357">
        <ele>42</ele>
        <time>2015-11-07T13:16:52Z</time>
      </trkpt>
      <trkpt lat="48.74982" lon="-3.48378">
        <ele>42</ele>
        <time>2015-11-07T13:16:58Z</time>
      </trkpt>
      <trkpt lat="48.74974" lon="-3.48392">
        <ele>43</ele>
        <time>2015-11-07T13:17:03Z</time>
      </trkpt>
      <trkpt lat="48.74966" lon="-3.48401">
        <ele>43</ele>
        <time>2015-11-07T13:17:07Z</time>
      </trkpt>
      <trkpt lat="48.74956" lon="-3.48409">
        <ele>43</ele>
        <time>2015-11-07T13:17:11Z</time>
      </trkpt>
      <trkpt lat="48.74949" lon="-3.48415">
        <ele>42</ele>
        <time>2015-11-07T13:17:14Z</time>
      </trkpt>
      <trkpt lat="48.74943" lon="-3.48426">
        <ele>42</ele>
        <time>2015-11-07T13:17:17Z</time>
      </trkpt>
      <trkpt lat="48.74938" lon="-3.48439">
        <ele>42</ele>
        <time>2015-11-07T13:17:20Z</time>
      </trkpt>
      <trkpt lat="48.74935" lon="-3.48453">
        <ele>42</ele>
        <time>2015-11-07T13:17:23Z</time>
      </trkpt>
      <trkpt lat="48.74932" lon="-3.48467">
        <ele>42</ele>
        <time>2015-11-07T13:17:26Z</time>
      </trkpt>
      <trkpt lat="48.74926" lon="-3.48489">
        <ele>42</ele>
        <time>2015-11-07T13:17:31Z</time>
      </trkpt>
      <trkpt lat="48.74923" lon="-3.48503">
        <ele>42</ele>
        <time>2015-11-07T13:17:34Z</time>
      </trkpt>
      <trkpt lat="48.74918" lon="-3.48528">
        <ele>42</ele>
        <time>2015-11-07T13:17:40Z</time>
      </trkpt>
      <trkpt lat="48.74914" lon="-3.48551">
        <ele>43</ele>
        <time>2015-11-07T13:17:46Z</time>
      </trkpt>
      <trkpt lat="48.74913" lon="-3.48578">
        <ele>43</ele>
        <time>2015-11-07T13:17:53Z</time>
      </trkpt>
      <trkpt lat="48.74912" lon="-3.48592">
        <ele>44</ele>
        <time>2015-11-07T13:17:57Z</time>
      </trkpt>
      <trkpt lat="48.74904" lon="-3.48607">
        <ele>44</ele>
        <time>2015-11-07T13:18:03Z</time>
      </trkpt>
      <trkpt lat="48.74892" lon="-3.48611">
        <ele>44</ele>
        <time>2015-11-07T13:18:06Z</time>
      </trkpt>
      <trkpt lat="48.74883" lon="-3.48618">
        <ele>44</ele>
        <time>2015-11-07T13:18:08Z</time>
      </trkpt>
      <trkpt lat="48.74878" lon="-3.48632">
        <ele>43</ele>
        <time>2015-11-07T13:18:10Z</time>
      </trkpt>
      <trkpt lat="48.74877" lon="-3.48647">
        <ele>43</ele>
        <time>2015-11-07T13:18:12Z</time>
      </trkpt>
      <trkpt lat="48.74879" lon="-3.48667">
        <ele>43</ele>
        <time>2015-11-07T13:18:15Z</time>
      </trkpt>
      <trkpt lat="48.74877" lon="-3.4868">
        <ele>43</ele>
        <time>2015-11-07T13:18:17Z</time>
      </trkpt>
      <trkpt lat="48.74871" lon="-3.48694">
        <ele>42</ele>
        <time>2015-11-07T13:18:20Z</time>
      </trkpt>
      <trkpt lat="48.74862" lon="-3.48706">
        <ele>42</ele>
        <time>2015-11-07T13:18:23Z</time>
      </trkpt>
      <trkpt lat="48.74849" lon="-3.48718">
        <ele>42</ele>
        <time>2015-11-07T13:18:27Z</time>
      </trkpt>
      <trkpt lat="48.74839" lon="-3.48726">
        <ele>42</ele>
        <time>2015-11-07T13:18:30Z</time>
      </trkpt>
      <trkpt lat="48.74821" lon="-3.48735">
        <ele>42</ele>
        <time>2015-11-07T13:18:35Z</time>
      </trkpt>
      <trkpt lat="48.74813" lon="-3.48737">
        <ele>42</ele>
        <time>2015-11-07T13:18:37Z</time>
      </trkpt>
      <trkpt lat="48.74796" lon="-3.48742">
        <ele>42</ele>
        <time>2015-11-07T13:18:41Z</time>
      </trkpt>
      <trkpt lat="48.74787" lon="-3.48745">
        <ele>43</ele>
        <time>2015-11-07T13:18:43Z</time>
      </trkpt>
      <trkpt lat="48.74778" lon="-3.48747">
        <ele>43</ele>
        <time>2015-11-07T13:18:45Z</time>
      </trkpt>
      <trkpt lat="48.74768" lon="-3.4875">
        <ele>43</ele>
        <time>2015-11-07T13:18:47Z</time>
      </trkpt>
      <trkpt lat="48.74759" lon="-3.48752">
        <ele>43</ele>
        <time>2015-11-07T13:18:49Z</time>
      </trkpt>
      <trkpt lat="48.74749" lon="-3.48755">
        <ele>44</ele>
        <time>2015-11-07T13:18:51Z</time>
      </trkpt>
      <trkpt lat="48.7474" lon="-3.48758">
        <ele>44</ele>
        <time>2015-11-07T13:18:53Z</time>
      </trkpt>
      <trkpt lat="48.74725" lon="-3.48763">
        <ele>44</ele>
        <time>2015-11-07T13:18:56Z</time>
      </trkpt>
      <trkpt lat="48.74712" lon="-3.48771">
        <ele>44</ele>
        <time>2015-11-07T13:18:59Z</time>
      </trkpt>
      <trkpt lat="48.74703" lon="-3.48777">
        <ele>45</ele>
        <time>2015-11-07T13:19:01Z</time>
      </trkpt>
      <trkpt lat="48.74695" lon="-3.48783">
        <ele>45</ele>
        <time>2015-11-07T13:19:03Z</time>
      </trkpt>
      <trkpt lat="48.74687" lon="-3.4879">
        <ele>45</ele>
        <time>2015-11-07T13:19:05Z</time>
      </trkpt>
      <trkpt lat="48.74679" lon="-3.48796">
        <ele>45</ele>
        <time>2015-11-07T13:19:07Z</time>
      </trkpt>
      <trkpt lat="48.74672" lon="-3.48804">
        <ele>46</ele>
        <time>2015-11-07T13:19:09Z</time>
      </trkpt>
      <trkpt lat="48.74666" lon="-3.48812">
        <ele>46</ele>
        <time>2015-11-07T13:19:11Z</time>
      </trkpt>
      <trkpt lat="48.74659" lon="-3.48827">
        <ele>46</ele>
        <time>2015-11-07T13:19:15Z</time>
      </trkpt>
      <trkpt lat="48.74654" lon="-3.48842">
        <ele>47</ele>
        <time>2015-11-07T13:19:17Z</time>
      </trkpt>
      <trkpt lat="48.74649" lon="-3.48856">
        <ele>47</ele>
        <time>2015-11-07T13:19:20Z</time>
      </trkpt>
      <trkpt lat="48.74644" lon="-3.48871">
        <ele>48</ele>
        <time>2015-11-07T13:19:23Z</time>
      </trkpt>
      <trkpt lat="48.74634" lon="-3.48894">
        <ele>48</ele>
        <time>2015-11-07T13:19:28Z</time>
      </trkpt>
      <trkpt lat="48.74618" lon="-3.48895">
        <ele>48</ele>
        <time>2015-11-07T13:19:33Z</time>
      </trkpt>
      <trkpt lat="48.74605" lon="-3.48893">
        <ele>48</ele>
        <time>2015-11-07T13:19:37Z</time>
      </trkpt>
      <trkpt lat="48.74598" lon="-3.48932">
        <ele>49</ele>
        <time>2015-11-07T13:19:44Z</time>
      </trkpt>
      <trkpt lat="48.74601" lon="-3.4896">
        <ele>49</ele>
        <time>2015-11-07T13:19:48Z</time>
      </trkpt>
      <trkpt lat="48.74602" lon="-3.48973">
        <ele>49</ele>
        <time>2015-11-07T13:19:50Z</time>
      </trkpt>
      <trkpt lat="48.74604" lon="-3.48999">
        <ele>49</ele>
        <time>2015-11-07T13:19:54Z</time>
      </trkpt>
      <trkpt lat="48.74604" lon="-3.49019">
        <ele>48</ele>
        <time>2015-11-07T13:19:57Z</time>
      </trkpt>
      <trkpt lat="48.74603" lon="-3.49046">
        <ele>48</ele>
        <time>2015-11-07T13:20:01Z</time>
      </trkpt>
      <trkpt lat="48.74601" lon="-3.4906">
        <ele>48</ele>
        <time>2015-11-07T13:20:03Z</time>
      </trkpt>
      <trkpt lat="48.74599" lon="-3.49081">
        <ele>48</ele>
        <time>2015-11-07T13:20:06Z</time>
      </trkpt>
      <trkpt lat="48.74598" lon="-3.49096">
        <ele>48</ele>
        <time>2015-11-07T13:20:08Z</time>
      </trkpt>
      <trkpt lat="48.74597" lon="-3.49111">
        <ele>48</ele>
        <time>2015-11-07T13:20:10Z</time>
      </trkpt>
      <trkpt lat="48.74596" lon="-3.49126">
        <ele>48</ele>
        <time>2015-11-07T13:20:12Z</time>
      </trkpt>
      <trkpt lat="48.74594" lon="-3.4914">
        <ele>48</ele>
        <time>2015-11-07T13:20:14Z</time>
      </trkpt>
      <trkpt lat="48.74592" lon="-3.4917">
        <ele>48</ele>
        <time>2015-11-07T13:20:18Z</time>
      </trkpt>
      <trkpt lat="48.7459" lon="-3.492">
        <ele>47</ele>
        <time>2015-11-07T13:20:22Z</time>
      </trkpt>
      <trkpt lat="48.74588" lon="-3.49215">
        <ele>47</ele>
        <time>2015-11-07T13:20:24Z</time>
      </trkpt>
      <trkpt lat="48.74586" lon="-3.49244">
        <ele>48</ele>
        <time>2015-11-07T13:20:28Z</time>
      </trkpt>
      <trkpt lat="48.74586" lon="-3.49258">
        <ele>48</ele>
        <time>2015-11-07T13:20:30Z</time>
      </trkpt>
      <trkpt lat="48.74586" lon="-3.49272">
        <ele>48</ele>
        <time>2015-11-07T13:20:32Z</time>
      </trkpt>
      <trkpt lat="48.74587" lon="-3.49286">
        <ele>48</ele>
        <time>2015-11-07T13:20:34Z</time>
      </trkpt>
      <trkpt lat="48.74587" lon="-3.493">
        <ele>48</ele>
        <time>2015-11-07T13:20:36Z</time>
      </trkpt>
      <trkpt lat="48.74586" lon="-3.49319">
        <ele>48</ele>
        <time>2015-11-07T13:20:39Z</time>
      </trkpt>
      <trkpt lat="48.74585" lon="-3.49332">
        <ele>48</ele>
        <time>2015-11-07T13:20:41Z</time>
      </trkpt>
      <trkpt lat="48.74581" lon="-3.49344">
        <ele>49</ele>
        <time>2015-11-07T13:20:43Z</time>
      </trkpt>
      <trkpt lat="48.74577" lon="-3.49357">
        <ele>49</ele>
        <time>2015-11-07T13:20:45Z</time>
      </trkpt>
      <trkpt lat="48.74571" lon="-3.4937">
        <ele>49</ele>
        <time>2015-11-07T13:20:47Z</time>
      </trkpt>
      <trkpt lat="48.74566" lon="-3.49383">
        <ele>49</ele>
        <time>2015-11-07T13:20:49Z</time>
      </trkpt>
      <trkpt lat="48.7456" lon="-3.49396">
        <ele>49</ele>
        <time>2015-11-07T13:20:51Z</time>
      </trkpt>
      <trkpt lat="48.74553" lon="-3.49411">
        <ele>49</ele>
        <time>2015-11-07T13:20:53Z</time>
      </trkpt>
      <trkpt lat="48.74547" lon="-3.49427">
        <ele>49</ele>
        <time>2015-11-07T13:20:55Z</time>
      </trkpt>
      <trkpt lat="48.74539" lon="-3.49443">
        <ele>50</ele>
        <time>2015-11-07T13:20:57Z</time>
      </trkpt>
      <trkpt lat="48.7453" lon="-3.4946">
        <ele>50</ele>
        <time>2015-11-07T13:20:59Z</time>
      </trkpt>
      <trkpt lat="48.74523" lon="-3.49479">
        <ele>50</ele>
        <time>2015-11-07T13:21:01Z</time>
      </trkpt>
      <trkpt lat="48.74517" lon="-3.495">
        <ele>51</ele>
        <time>2015-11-07T13:21:03Z</time>
      </trkpt>
      <trkpt lat="48.74512" lon="-3.49522">
        <ele>51</ele>
        <time>2015-11-07T13:21:05Z</time>
      </trkpt>
      <trkpt lat="48.7451" lon="-3.49545">
        <ele>51</ele>
        <time>2015-11-07T13:21:07Z</time>
      </trkpt>
      <trkpt lat="48.7451" lon="-3.49568">
        <ele>51</ele>
        <time>2015-11-07T13:21:09Z</time>
      </trkpt>
      <trkpt lat="48.74511" lon="-3.49591">
        <ele>51</ele>
        <time>2015-11-07T13:21:11Z</time>
      </trkpt>
      <trkpt lat="48.74515" lon="-3.49625">
        <ele>51</ele>
        <time>2015-11-07T13:21:14Z</time>
      </trkpt>
      <trkpt lat="48.74517" lon="-3.49659">
        <ele>51</ele>
        <time>2015-11-07T13:21:17Z</time>
      </trkpt>
      <trkpt lat="48.74517" lon="-3.49683">
        <ele>51</ele>
        <time>2015-11-07T13:21:19Z</time>
      </trkpt>
      <trkpt lat="48.74514" lon="-3.49717">
        <ele>51</ele>
        <time>2015-11-07T13:21:22Z</time>
      </trkpt>
      <trkpt lat="48.74509" lon="-3.49748">
        <ele>51</ele>
        <time>2015-11-07T13:21:25Z</time>
      </trkpt>
      <trkpt lat="48.74504" lon="-3.49775">
        <ele>51</ele>
        <time>2015-11-07T13:21:28Z</time>
      </trkpt>
      <trkpt lat="48.745" lon="-3.49801">
        <ele>51</ele>
        <time>2015-11-07T13:21:31Z</time>
      </trkpt>
      <trkpt lat="48.74496" lon="-3.49825">
        <ele>51</ele>
        <time>2015-11-07T13:21:34Z</time>
      </trkpt>
      <trkpt lat="48.74491" lon="-3.49853">
        <ele>51</ele>
        <time>2015-11-07T13:21:38Z</time>
      </trkpt>
      <trkpt lat="48.74486" lon="-3.49875">
        <ele>51</ele>
        <time>2015-11-07T13:21:42Z</time>
      </trkpt>
      <trkpt lat="48.74482" lon="-3.49892">
        <ele>50</ele>
        <time>2015-11-07T13:21:45Z</time>
      </trkpt>
      <trkpt lat="48.74476" lon="-3.49916">
        <ele>50</ele>
        <time>2015-11-07T13:21:49Z</time>
      </trkpt>
      <trkpt lat="48.74469" lon="-3.49939">
        <ele>50</ele>
        <time>2015-11-07T13:21:53Z</time>
      </trkpt>
      <trkpt lat="48.74463" lon="-3.49963">
        <ele>50</ele>
        <time>2015-11-07T13:21:57Z</time>
      </trkpt>
      <trkpt lat="48.74455" lon="-3.50003">
        <ele>49</ele>
        <time>2015-11-07T13:22:04Z</time>
      </trkpt>
      <trkpt lat="48.74453" lon="-3.50027">
        <ele>48</ele>
        <time>2015-11-07T13:22:08Z</time>
      </trkpt>
      <trkpt lat="48.74453" lon="-3.50045">
        <ele>47</ele>
        <time>2015-11-07T13:22:11Z</time>
      </trkpt>
      <trkpt lat="48.74452" lon="-3.5007">
        <ele>45</ele>
        <time>2015-11-07T13:22:15Z</time>
      </trkpt>
      <trkpt lat="48.7445" lon="-3.50096">
        <ele>44</ele>
        <time>2015-11-07T13:22:19Z</time>
      </trkpt>
      <trkpt lat="48.74443" lon="-3.50122">
        <ele>44</ele>
        <time>2015-11-07T13:22:23Z</time>
      </trkpt>
      <trkpt lat="48.74437" lon="-3.50141">
        <ele>43</ele>
        <time>2015-11-07T13:22:26Z</time>
      </trkpt>
      <trkpt lat="48.74432" lon="-3.50154">
        <ele>43</ele>
        <time>2015-11-07T13:22:28Z</time>
      </trkpt>
      <trkpt lat="48.74427" lon="-3.50166">
        <ele>42</ele>
        <time>2015-11-07T13:22:30Z</time>
      </trkpt>
      <trkpt lat="48.74422" lon="-3.50179">
        <ele>42</ele>
        <time>2015-11-07T13:22:32Z</time>
      </trkpt>
      <trkpt lat="48.74417" lon="-3.50192">
        <ele>42</ele>
        <time>2015-11-07T13:22:34Z</time>
      </trkpt>
      <trkpt lat="48.74409" lon="-3.50211">
        <ele>41</ele>
        <time>2015-11-07T13:22:37Z</time>
      </trkpt>
      <trkpt lat="48.74404" lon="-3.50224">
        <ele>41</ele>
        <time>2015-11-07T13:22:39Z</time>
      </trkpt>
      <trkpt lat="48.744" lon="-3.50237">
        <ele>41</ele>
        <time>2015-11-07T13:22:41Z</time>
      </trkpt>
      <trkpt lat="48.74395" lon="-3.5025">
        <ele>41</ele>
        <time>2015-11-07T13:22:43Z</time>
      </trkpt>
      <trkpt lat="48.7439" lon="-3.50263">
        <ele>42</ele>
        <time>2015-11-07T13:22:45Z</time>
      </trkpt>
      <trkpt lat="48.74385" lon="-3.50277">
        <ele>42</ele>
        <time>2015-11-07T13:22:47Z</time>
      </trkpt>
      <trkpt lat="48.74379" lon="-3.5029">
        <ele>42</ele>
        <time>2015-11-07T13:22:49Z</time>
      </trkpt>
      <trkpt lat="48.74374" lon="-3.50304">
        <ele>42</ele>
        <time>2015-11-07T13:22:52Z</time>
      </trkpt>
      <trkpt lat="48.74369" lon="-3.50319">
        <ele>42</ele>
        <time>2015-11-07T13:22:53Z</time>
      </trkpt>
      <trkpt lat="48.74363" lon="-3.50333">
        <ele>42</ele>
        <time>2015-11-07T13:22:55Z</time>
      </trkpt>
      <trkpt lat="48.74358" lon="-3.50348">
        <ele>43</ele>
        <time>2015-11-07T13:22:57Z</time>
      </trkpt>
      <trkpt lat="48.74353" lon="-3.50363">
        <ele>43</ele>
        <time>2015-11-07T13:22:59Z</time>
      </trkpt>
      <trkpt lat="48.74348" lon="-3.50378">
        <ele>43</ele>
        <time>2015-11-07T13:23:01Z</time>
      </trkpt>
      <trkpt lat="48.74343" lon="-3.50394">
        <ele>43</ele>
        <time>2015-11-07T13:23:03Z</time>
      </trkpt>
      <trkpt lat="48.74338" lon="-3.5041">
        <ele>44</ele>
        <time>2015-11-07T13:23:05Z</time>
      </trkpt>
      <trkpt lat="48.74332" lon="-3.50426">
        <ele>44</ele>
        <time>2015-11-07T13:23:07Z</time>
      </trkpt>
      <trkpt lat="48.74327" lon="-3.50443">
        <ele>44</ele>
        <time>2015-11-07T13:23:09Z</time>
      </trkpt>
      <trkpt lat="48.7432" lon="-3.50467">
        <ele>44</ele>
        <time>2015-11-07T13:23:12Z</time>
      </trkpt>
      <trkpt lat="48.74315" lon="-3.50485">
        <ele>44</ele>
        <time>2015-11-07T13:23:14Z</time>
      </trkpt>
      <trkpt lat="48.74311" lon="-3.50502">
        <ele>44</ele>
        <time>2015-11-07T13:23:16Z</time>
      </trkpt>
      <trkpt lat="48.74306" lon="-3.5052">
        <ele>45</ele>
        <time>2015-11-07T13:23:18Z</time>
      </trkpt>
      <trkpt lat="48.74298" lon="-3.5055">
        <ele>45</ele>
        <time>2015-11-07T13:23:21Z</time>
      </trkpt>
      <trkpt lat="48.74293" lon="-3.5057">
        <ele>45</ele>
        <time>2015-11-07T13:23:23Z</time>
      </trkpt>
      <trkpt lat="48.74289" lon="-3.5059">
        <ele>45</ele>
        <time>2015-11-07T13:23:25Z</time>
      </trkpt>
      <trkpt lat="48.74284" lon="-3.50618">
        <ele>45</ele>
        <time>2015-11-07T13:23:28Z</time>
      </trkpt>
      <trkpt lat="48.7428" lon="-3.50636">
        <ele>45</ele>
        <time>2015-11-07T13:23:30Z</time>
      </trkpt>
      <trkpt lat="48.74276" lon="-3.50652">
        <ele>45</ele>
        <time>2015-11-07T13:23:32Z</time>
      </trkpt>
      <trkpt lat="48.74272" lon="-3.50669">
        <ele>45</ele>
        <time>2015-11-07T13:23:34Z</time>
      </trkpt>
      <trkpt lat="48.74264" lon="-3.50694">
        <ele>45</ele>
        <time>2015-11-07T13:23:37Z</time>
      </trkpt>
      <trkpt lat="48.74257" lon="-3.50711">
        <ele>45</ele>
        <time>2015-11-07T13:23:39Z</time>
      </trkpt>
      <trkpt lat="48.74245" lon="-3.50737">
        <ele>45</ele>
        <time>2015-11-07T13:23:42Z</time>
      </trkpt>
      <trkpt lat="48.74232" lon="-3.50765">
        <ele>45</ele>
        <time>2015-11-07T13:23:45Z</time>
      </trkpt>
      <trkpt lat="48.74221" lon="-3.50791">
        <ele>45</ele>
        <time>2015-11-07T13:23:48Z</time>
      </trkpt>
      <trkpt lat="48.74213" lon="-3.50815">
        <ele>45</ele>
        <time>2015-11-07T13:23:51Z</time>
      </trkpt>
      <trkpt lat="48.74207" lon="-3.50842">
        <ele>45</ele>
        <time>2015-11-07T13:23:55Z</time>
      </trkpt>
      <trkpt lat="48.74203" lon="-3.50866">
        <ele>45</ele>
        <time>2015-11-07T13:23:59Z</time>
      </trkpt>
      <trkpt lat="48.74198" lon="-3.5089">
        <ele>45</ele>
        <time>2015-11-07T13:24:04Z</time>
      </trkpt>
      <trkpt lat="48.74194" lon="-3.50911">
        <ele>46</ele>
        <time>2015-11-07T13:24:09Z</time>
      </trkpt>
      <trkpt lat="48.7419" lon="-3.50934">
        <ele>46</ele>
        <time>2015-11-07T13:24:15Z</time>
      </trkpt>
      <trkpt lat="48.74187" lon="-3.50949">
        <ele>46</ele>
        <time>2015-11-07T13:24:19Z</time>
      </trkpt>
      <trkpt lat="48.74184" lon="-3.50964">
        <ele>47</ele>
        <time>2015-11-07T13:24:23Z</time>
      </trkpt>
      <trkpt lat="48.7418" lon="-3.50988">
        <ele>47</ele>
        <time>2015-11-07T13:24:29Z</time>
      </trkpt>
      <trkpt lat="48.74179" lon="-3.51001">
        <ele>47</ele>
        <time>2015-11-07T13:24:32Z</time>
      </trkpt>
      <trkpt lat="48.74178" lon="-3.51014">
        <ele>47</ele>
        <time>2015-11-07T13:24:35Z</time>
      </trkpt>
      <trkpt lat="48.74176" lon="-3.51038">
        <ele>47</ele>
        <time>2015-11-07T13:24:40Z</time>
      </trkpt>
      <trkpt lat="48.74175" lon="-3.51054">
        <ele>47</ele>
        <time>2015-11-07T13:24:43Z</time>
      </trkpt>
      <trkpt lat="48.74173" lon="-3.51069">
        <ele>47</ele>
        <time>2015-11-07T13:24:46Z</time>
      </trkpt>
      <trkpt lat="48.74171" lon="-3.51094">
        <ele>47</ele>
        <time>2015-11-07T13:24:51Z</time>
      </trkpt>
      <trkpt lat="48.74169" lon="-3.51119">
        <ele>47</ele>
        <time>2015-11-07T13:24:56Z</time>
      </trkpt>
      <trkpt lat="48.74166" lon="-3.51138">
        <ele>47</ele>
        <time>2015-11-07T13:25:00Z</time>
      </trkpt>
      <trkpt lat="48.74164" lon="-3.51152">
        <ele>47</ele>
        <time>2015-11-07T13:25:03Z</time>
      </trkpt>
      <trkpt lat="48.74163" lon="-3.51165">
        <ele>47</ele>
        <time>2015-11-07T13:25:07Z</time>
      </trkpt>
      <trkpt lat="48.7416" lon="-3.51182">
        <ele>47</ele>
        <time>2015-11-07T13:25:10Z</time>
      </trkpt>
      <trkpt lat="48.74158" lon="-3.51195">
        <ele>47</ele>
        <time>2015-11-07T13:25:13Z</time>
      </trkpt>
      <trkpt lat="48.74155" lon="-3.51208">
        <ele>48</ele>
        <time>2015-11-07T13:25:16Z</time>
      </trkpt>
      <trkpt lat="48.74153" lon="-3.51221">
        <ele>48</ele>
        <time>2015-11-07T13:25:19Z</time>
      </trkpt>
      <trkpt lat="48.7415" lon="-3.51234">
        <ele>48</ele>
        <time>2015-11-07T13:25:22Z</time>
      </trkpt>
      <trkpt lat="48.74145" lon="-3.51252">
        <ele>48</ele>
        <time>2015-11-07T13:25:26Z</time>
      </trkpt>
      <trkpt lat="48.74138" lon="-3.51279">
        <ele>48</ele>
        <time>2015-11-07T13:25:31Z</time>
      </trkpt>
      <trkpt lat="48.74134" lon="-3.51291">
        <ele>48</ele>
        <time>2015-11-07T13:25:33Z</time>
      </trkpt>
      <trkpt lat="48.74128" lon="-3.5131">
        <ele>48</ele>
        <time>2015-11-07T13:25:36Z</time>
      </trkpt>
      <trkpt lat="48.74124" lon="-3.51323">
        <ele>48</ele>
        <time>2015-11-07T13:25:38Z</time>
      </trkpt>
      <trkpt lat="48.74121" lon="-3.51337">
        <ele>48</ele>
        <time>2015-11-07T13:25:40Z</time>
      </trkpt>
      <trkpt lat="48.74117" lon="-3.5135">
        <ele>49</ele>
        <time>2015-11-07T13:25:42Z</time>
      </trkpt>
      <trkpt lat="48.74112" lon="-3.51364">
        <ele>48</ele>
        <time>2015-11-07T13:25:44Z</time>
      </trkpt>
      <trkpt lat="48.74108" lon="-3.51378">
        <ele>48</ele>
        <time>2015-11-07T13:25:46Z</time>
      </trkpt>
      <trkpt lat="48.74102" lon="-3.51401">
        <ele>48</ele>
        <time>2015-11-07T13:25:49Z</time>
      </trkpt>
      <trkpt lat="48.74096" lon="-3.51427">
        <ele>48</ele>
        <time>2015-11-07T13:25:52Z</time>
      </trkpt>
      <trkpt lat="48.74091" lon="-3.51452">
        <ele>48</ele>
        <time>2015-11-07T13:25:55Z</time>
      </trkpt>
      <trkpt lat="48.74087" lon="-3.51479">
        <ele>48</ele>
        <time>2015-11-07T13:25:58Z</time>
      </trkpt>
      <trkpt lat="48.74084" lon="-3.51496">
        <ele>48</ele>
        <time>2015-11-07T13:26:00Z</time>
      </trkpt>
      <trkpt lat="48.74081" lon="-3.51514">
        <ele>48</ele>
        <time>2015-11-07T13:26:02Z</time>
      </trkpt>
      <trkpt lat="48.74077" lon="-3.51541">
        <ele>49</ele>
        <time>2015-11-07T13:26:05Z</time>
      </trkpt>
      <trkpt lat="48.74075" lon="-3.5156">
        <ele>49</ele>
        <time>2015-11-07T13:26:07Z</time>
      </trkpt>
      <trkpt lat="48.74072" lon="-3.51589">
        <ele>49</ele>
        <time>2015-11-07T13:26:10Z</time>
      </trkpt>
      <trkpt lat="48.7407" lon="-3.51618">
        <ele>49</ele>
        <time>2015-11-07T13:26:13Z</time>
      </trkpt>
      <trkpt lat="48.7407" lon="-3.51649">
        <ele>48</ele>
        <time>2015-11-07T13:26:16Z</time>
      </trkpt>
      <trkpt lat="48.74072" lon="-3.5168">
        <ele>48</ele>
        <time>2015-11-07T13:26:19Z</time>
      </trkpt>
      <trkpt lat="48.74076" lon="-3.51711">
        <ele>48</ele>
        <time>2015-11-07T13:26:22Z</time>
      </trkpt>
      <trkpt lat="48.7408" lon="-3.51741">
        <ele>48</ele>
        <time>2015-11-07T13:26:25Z</time>
      </trkpt>
      <trkpt lat="48.74083" lon="-3.51771">
        <ele>48</ele>
        <time>2015-11-07T13:26:28Z</time>
      </trkpt>
      <trkpt lat="48.74084" lon="-3.51802">
        <ele>48</ele>
        <time>2015-11-07T13:26:31Z</time>
      </trkpt>
      <trkpt lat="48.74082" lon="-3.51832">
        <ele>48</ele>
        <time>2015-11-07T13:26:34Z</time>
      </trkpt>
      <trkpt lat="48.74081" lon="-3.51851">
        <ele>47</ele>
        <time>2015-11-07T13:26:37Z</time>
      </trkpt>
      <trkpt lat="48.7408" lon="-3.51871">
        <ele>47</ele>
        <time>2015-11-07T13:26:38Z</time>
      </trkpt>
      <trkpt lat="48.74079" lon="-3.51899">
        <ele>47</ele>
        <time>2015-11-07T13:26:41Z</time>
      </trkpt>
      <trkpt lat="48.74078" lon="-3.51927">
        <ele>47</ele>
        <time>2015-11-07T13:26:44Z</time>
      </trkpt>
      <trkpt lat="48.74077" lon="-3.51957">
        <ele>47</ele>
        <time>2015-11-07T13:26:48Z</time>
      </trkpt>
      <trkpt lat="48.74076" lon="-3.5197">
        <ele>47</ele>
        <time>2015-11-07T13:26:50Z</time>
      </trkpt>
      <trkpt lat="48.74075" lon="-3.51997">
        <ele>46</ele>
        <time>2015-11-07T13:26:54Z</time>
      </trkpt>
      <trkpt lat="48.74075" lon="-3.5201">
        <ele>46</ele>
        <time>2015-11-07T13:26:56Z</time>
      </trkpt>
      <trkpt lat="48.74074" lon="-3.52035">
        <ele>46</ele>
        <time>2015-11-07T13:27:00Z</time>
      </trkpt>
      <trkpt lat="48.74074" lon="-3.5206">
        <ele>46</ele>
        <time>2015-11-07T13:27:04Z</time>
      </trkpt>
      <trkpt lat="48.74072" lon="-3.52084">
        <ele>46</ele>
        <time>2015-11-07T13:27:08Z</time>
      </trkpt>
      <trkpt lat="48.74069" lon="-3.52108">
        <ele>46</ele>
        <time>2015-11-07T13:27:12Z</time>
      </trkpt>
      <trkpt lat="48.74066" lon="-3.52131">
        <ele>46</ele>
        <time>2015-11-07T13:27:16Z</time>
      </trkpt>
      <trkpt lat="48.74063" lon="-3.52157">
        <ele>45</ele>
        <time>2015-11-07T13:27:22Z</time>
      </trkpt>
      <trkpt lat="48.7406" lon="-3.52182">
        <ele>45</ele>
        <time>2015-11-07T13:27:26Z</time>
      </trkpt>
      <trkpt lat="48.74057" lon="-3.52202">
        <ele>45</ele>
        <time>2015-11-07T13:27:30Z</time>
      </trkpt>
      <trkpt lat="48.74054" lon="-3.52227">
        <ele>45</ele>
        <time>2015-11-07T13:27:35Z</time>
      </trkpt>
      <trkpt lat="48.74053" lon="-3.52244">
        <ele>45</ele>
        <time>2015-11-07T13:27:38Z</time>
      </trkpt>
      <trkpt lat="48.74052" lon="-3.52262">
        <ele>45</ele>
        <time>2015-11-07T13:27:41Z</time>
      </trkpt>
      <trkpt lat="48.74053" lon="-3.52287">
        <ele>44</ele>
        <time>2015-11-07T13:27:45Z</time>
      </trkpt>
      <trkpt lat="48.74053" lon="-3.523">
        <ele>44</ele>
        <time>2015-11-07T13:27:47Z</time>
      </trkpt>
      <trkpt lat="48.74053" lon="-3.52324">
        <ele>44</ele>
        <time>2015-11-07T13:27:51Z</time>
      </trkpt>
      <trkpt lat="48.74053" lon="-3.52347">
        <ele>44</ele>
        <time>2015-11-07T13:27:55Z</time>
      </trkpt>
      <trkpt lat="48.74054" lon="-3.52364">
        <ele>44</ele>
        <time>2015-11-07T13:27:58Z</time>
      </trkpt>
      <trkpt lat="48.74055" lon="-3.52381">
        <ele>43</ele>
        <time>2015-11-07T13:28:01Z</time>
      </trkpt>
      <trkpt lat="48.74055" lon="-3.52398">
        <ele>43</ele>
        <time>2015-11-07T13:28:04Z</time>
      </trkpt>
      <trkpt lat="48.74057" lon="-3.52419">
        <ele>43</ele>
        <time>2015-11-07T13:28:08Z</time>
      </trkpt>
      <trkpt lat="48.74059" lon="-3.52443">
        <ele>43</ele>
        <time>2015-11-07T13:28:13Z</time>
      </trkpt>
      <trkpt lat="48.7406" lon="-3.52467">
        <ele>43</ele>
        <time>2015-11-07T13:28:18Z</time>
      </trkpt>
      <trkpt lat="48.74062" lon="-3.52493">
        <ele>43</ele>
        <time>2015-11-07T13:28:24Z</time>
      </trkpt>
      <trkpt lat="48.74064" lon="-3.52505">
        <ele>42</ele>
        <time>2015-11-07T13:28:27Z</time>
      </trkpt>
      <trkpt lat="48.74065" lon="-3.52523">
        <ele>42</ele>
        <time>2015-11-07T13:28:31Z</time>
      </trkpt>
      <trkpt lat="48.74066" lon="-3.52537">
        <ele>42</ele>
        <time>2015-11-07T13:28:34Z</time>
      </trkpt>
      <trkpt lat="48.74068" lon="-3.52553">
        <ele>42</ele>
        <time>2015-11-07T13:28:37Z</time>
      </trkpt>
      <trkpt lat="48.74071" lon="-3.52576">
        <ele>42</ele>
        <time>2015-11-07T13:28:41Z</time>
      </trkpt>
      <trkpt lat="48.74075" lon="-3.52603">
        <ele>43</ele>
        <time>2015-11-07T13:28:45Z</time>
      </trkpt>
      <trkpt lat="48.74077" lon="-3.52627">
        <ele>43</ele>
        <time>2015-11-07T13:28:48Z</time>
      </trkpt>
      <trkpt lat="48.74079" lon="-3.52646">
        <ele>43</ele>
        <time>2015-11-07T13:28:50Z</time>
      </trkpt>
      <trkpt lat="48.74081" lon="-3.52663">
        <ele>43</ele>
        <time>2015-11-07T13:28:52Z</time>
      </trkpt>
      <trkpt lat="48.74083" lon="-3.52689">
        <ele>42</ele>
        <time>2015-11-07T13:28:55Z</time>
      </trkpt>
      <trkpt lat="48.74083" lon="-3.52716">
        <ele>42</ele>
        <time>2015-11-07T13:28:58Z</time>
      </trkpt>
      <trkpt lat="48.74083" lon="-3.52734">
        <ele>42</ele>
        <time>2015-11-07T13:29:00Z</time>
      </trkpt>
      <trkpt lat="48.74082" lon="-3.52762">
        <ele>42</ele>
        <time>2015-11-07T13:29:03Z</time>
      </trkpt>
      <trkpt lat="48.74082" lon="-3.52782">
        <ele>42</ele>
        <time>2015-11-07T13:29:05Z</time>
      </trkpt>
      <trkpt lat="48.74081" lon="-3.52801">
        <ele>42</ele>
        <time>2015-11-07T13:29:07Z</time>
      </trkpt>
      <trkpt lat="48.7408" lon="-3.5282">
        <ele>42</ele>
        <time>2015-11-07T13:29:09Z</time>
      </trkpt>
      <trkpt lat="48.74081" lon="-3.52838">
        <ele>42</ele>
        <time>2015-11-07T13:29:11Z</time>
      </trkpt>
      <trkpt lat="48.74082" lon="-3.52856">
        <ele>42</ele>
        <time>2015-11-07T13:29:13Z</time>
      </trkpt>
      <trkpt lat="48.74087" lon="-3.52883">
        <ele>42</ele>
        <time>2015-11-07T13:29:16Z</time>
      </trkpt>
      <trkpt lat="48.7409" lon="-3.52901">
        <ele>42</ele>
        <time>2015-11-07T13:29:18Z</time>
      </trkpt>
      <trkpt lat="48.74093" lon="-3.52918">
        <ele>42</ele>
        <time>2015-11-07T13:29:20Z</time>
      </trkpt>
      <trkpt lat="48.74096" lon="-3.52935">
        <ele>42</ele>
        <time>2015-11-07T13:29:22Z</time>
      </trkpt>
      <trkpt lat="48.74099" lon="-3.52952">
        <ele>42</ele>
        <time>2015-11-07T13:29:24Z</time>
      </trkpt>
      <trkpt lat="48.74102" lon="-3.5297">
        <ele>42</ele>
        <time>2015-11-07T13:29:26Z</time>
      </trkpt>
      <trkpt lat="48.74108" lon="-3.52997">
        <ele>42</ele>
        <time>2015-11-07T13:29:29Z</time>
      </trkpt>
      <trkpt lat="48.74113" lon="-3.53014">
        <ele>42</ele>
        <time>2015-11-07T13:29:31Z</time>
      </trkpt>
      <trkpt lat="48.7412" lon="-3.53032">
        <ele>42</ele>
        <time>2015-11-07T13:29:33Z</time>
      </trkpt>
      <trkpt lat="48.74128" lon="-3.53059">
        <ele>42</ele>
        <time>2015-11-07T13:29:36Z</time>
      </trkpt>
      <trkpt lat="48.74131" lon="-3.53079">
        <ele>42</ele>
        <time>2015-11-07T13:29:38Z</time>
      </trkpt>
      <trkpt lat="48.74135" lon="-3.53099">
        <ele>42</ele>
        <time>2015-11-07T13:29:40Z</time>
      </trkpt>
      <trkpt lat="48.74138" lon="-3.5312">
        <ele>42</ele>
        <time>2015-11-07T13:29:42Z</time>
      </trkpt>
      <trkpt lat="48.7414" lon="-3.53141">
        <ele>42</ele>
        <time>2015-11-07T13:29:44Z</time>
      </trkpt>
      <trkpt lat="48.74143" lon="-3.53161">
        <ele>42</ele>
        <time>2015-11-07T13:29:46Z</time>
      </trkpt>
      <trkpt lat="48.74146" lon="-3.53191">
        <ele>42</ele>
        <time>2015-11-07T13:29:49Z</time>
      </trkpt>
      <trkpt lat="48.74149" lon="-3.5322">
        <ele>42</ele>
        <time>2015-11-07T13:29:52Z</time>
      </trkpt>
      <trkpt lat="48.7415" lon="-3.5324">
        <ele>42</ele>
        <time>2015-11-07T13:29:54Z</time>
      </trkpt>
      <trkpt lat="48.7415" lon="-3.53257">
        <ele>42</ele>
        <time>2015-11-07T13:29:56Z</time>
      </trkpt>
      <trkpt lat="48.7415" lon="-3.53271">
        <ele>42</ele>
        <time>2015-11-07T13:29:58Z</time>
      </trkpt>
      <trkpt lat="48.74151" lon="-3.53284">
        <ele>41</ele>
        <time>2015-11-07T13:30:00Z</time>
      </trkpt>
      <trkpt lat="48.74153" lon="-3.53301">
        <ele>41</ele>
        <time>2015-11-07T13:30:03Z</time>
      </trkpt>
      <trkpt lat="48.74155" lon="-3.53322">
        <ele>41</ele>
        <time>2015-11-07T13:30:08Z</time>
      </trkpt>
      <trkpt lat="48.74157" lon="-3.53338">
        <ele>41</ele>
        <time>2015-11-07T13:30:10Z</time>
      </trkpt>
      <trkpt lat="48.74159" lon="-3.53357">
        <ele>41</ele>
        <time>2015-11-07T13:30:13Z</time>
      </trkpt>
      <trkpt lat="48.74164" lon="-3.53383">
        <ele>40</ele>
        <time>2015-11-07T13:30:17Z</time>
      </trkpt>
      <trkpt lat="48.74172" lon="-3.53409">
        <ele>40</ele>
        <time>2015-11-07T13:30:21Z</time>
      </trkpt>
      <trkpt lat="48.7418" lon="-3.53429">
        <ele>40</ele>
        <time>2015-11-07T13:30:24Z</time>
      </trkpt>
      <trkpt lat="48.7419" lon="-3.53455">
        <ele>39</ele>
        <time>2015-11-07T13:30:28Z</time>
      </trkpt>
      <trkpt lat="48.74203" lon="-3.53492">
        <ele>39</ele>
        <time>2015-11-07T13:30:34Z</time>
      </trkpt>
      <trkpt lat="48.74212" lon="-3.53516">
        <ele>39</ele>
        <time>2015-11-07T13:30:38Z</time>
      </trkpt>
      <trkpt lat="48.7422" lon="-3.53539">
        <ele>38</ele>
        <time>2015-11-07T13:30:42Z</time>
      </trkpt>
      <trkpt lat="48.74227" lon="-3.53564">
        <ele>38</ele>
        <time>2015-11-07T13:30:46Z</time>
      </trkpt>
      <trkpt lat="48.7423" lon="-3.53578">
        <ele>38</ele>
        <time>2015-11-07T13:30:48Z</time>
      </trkpt>
      <trkpt lat="48.74232" lon="-3.53593">
        <ele>37</ele>
        <time>2015-11-07T13:30:50Z</time>
      </trkpt>
      <trkpt lat="48.74233" lon="-3.53611">
        <ele>37</ele>
        <time>2015-11-07T13:30:52Z</time>
      </trkpt>
      <trkpt lat="48.74233" lon="-3.5363">
        <ele>37</ele>
        <time>2015-11-07T13:30:54Z</time>
      </trkpt>
      <trkpt lat="48.74232" lon="-3.53649">
        <ele>36</ele>
        <time>2015-11-07T13:30:56Z</time>
      </trkpt>
      <trkpt lat="48.74231" lon="-3.53678">
        <ele>36</ele>
        <time>2015-11-07T13:30:59Z</time>
      </trkpt>
      <trkpt lat="48.74231" lon="-3.53707">
        <ele>36</ele>
        <time>2015-11-07T13:31:02Z</time>
      </trkpt>
      <trkpt lat="48.74231" lon="-3.53726">
        <ele>36</ele>
        <time>2015-11-07T13:31:04Z</time>
      </trkpt>
      <trkpt lat="48.74232" lon="-3.53744">
        <ele>36</ele>
        <time>2015-11-07T13:31:06Z</time>
      </trkpt>
      <trkpt lat="48.74233" lon="-3.53772">
        <ele>36</ele>
        <time>2015-11-07T13:31:09Z</time>
      </trkpt>
      <trkpt lat="48.74233" lon="-3.5379">
        <ele>36</ele>
        <time>2015-11-07T13:31:11Z</time>
      </trkpt>
      <trkpt lat="48.74232" lon="-3.53809">
        <ele>36</ele>
        <time>2015-11-07T13:31:13Z</time>
      </trkpt>
      <trkpt lat="48.74232" lon="-3.53829">
        <ele>36</ele>
        <time>2015-11-07T13:31:15Z</time>
      </trkpt>
      <trkpt lat="48.74234" lon="-3.53858">
        <ele>36</ele>
        <time>2015-11-07T13:31:18Z</time>
      </trkpt>
      <trkpt lat="48.74239" lon="-3.53885">
        <ele>36</ele>
        <time>2015-11-07T13:31:21Z</time>
      </trkpt>
      <trkpt lat="48.74245" lon="-3.53911">
        <ele>36</ele>
        <time>2015-11-07T13:31:24Z</time>
      </trkpt>
      <trkpt lat="48.74251" lon="-3.53935">
        <ele>36</ele>
        <time>2015-11-07T13:31:27Z</time>
      </trkpt>
      <trkpt lat="48.74257" lon="-3.53958">
        <ele>36</ele>
        <time>2015-11-07T13:31:30Z</time>
      </trkpt>
      <trkpt lat="48.74269" lon="-3.53983">
        <ele>36</ele>
        <time>2015-11-07T13:31:34Z</time>
      </trkpt>
      <trkpt lat="48.74286" lon="-3.53983">
        <ele>36</ele>
        <time>2015-11-07T13:31:38Z</time>
      </trkpt>
      <trkpt lat="48.74292" lon="-3.53972">
        <ele>36</ele>
        <time>2015-11-07T13:31:40Z</time>
      </trkpt>
      <trkpt lat="48.74301" lon="-3.53952">
        <ele>35</ele>
        <time>2015-11-07T13:31:43Z</time>
      </trkpt>
      <trkpt lat="48.74311" lon="-3.53933">
        <ele>35</ele>
        <time>2015-11-07T13:31:46Z</time>
      </trkpt>
      <trkpt lat="48.74322" lon="-3.53912">
        <ele>35</ele>
        <time>2015-11-07T13:31:49Z</time>
      </trkpt>
      <trkpt lat="48.74334" lon="-3.5389">
        <ele>35</ele>
        <time>2015-11-07T13:31:52Z</time>
      </trkpt>
      <trkpt lat="48.74342" lon="-3.53875">
        <ele>35</ele>
        <time>2015-11-07T13:31:54Z</time>
      </trkpt>
      <trkpt lat="48.74349" lon="-3.53859">
        <ele>35</ele>
        <time>2015-11-07T13:31:56Z</time>
      </trkpt>
      <trkpt lat="48.74355" lon="-3.53844">
        <ele>35</ele>
        <time>2015-11-07T13:31:58Z</time>
      </trkpt>
      <trkpt lat="48.74361" lon="-3.53829">
        <ele>34</ele>
        <time>2015-11-07T13:32:00Z</time>
      </trkpt>
      <trkpt lat="48.74365" lon="-3.53816">
        <ele>34</ele>
        <time>2015-11-07T13:32:02Z</time>
      </trkpt>
      <trkpt lat="48.7437" lon="-3.538">
        <ele>34</ele>
        <time>2015-11-07T13:32:06Z</time>
      </trkpt>
      <trkpt lat="48.74374" lon="-3.53787">
        <ele>34</ele>
        <time>2015-11-07T13:32:09Z</time>
      </trkpt>
      <trkpt lat="48.74377" lon="-3.53775">
        <ele>34</ele>
        <time>2015-11-07T13:32:12Z</time>
      </trkpt>
      <trkpt lat="48.7438" lon="-3.53763">
        <ele>34</ele>
        <time>2015-11-07T13:32:14Z</time>
      </trkpt>
      <trkpt lat="48.74383" lon="-3.53747">
        <ele>34</ele>
        <time>2015-11-07T13:32:18Z</time>
      </trkpt>
      <trkpt lat="48.74386" lon="-3.53731">
        <ele>34</ele>
        <time>2015-11-07T13:32:22Z</time>
      </trkpt>
      <trkpt lat="48.74389" lon="-3.53716">
        <ele>34</ele>
        <time>2015-11-07T13:32:26Z</time>
      </trkpt>
      <trkpt lat="48.74393" lon="-3.53693">
        <ele>34</ele>
        <time>2015-11-07T13:32:32Z</time>
      </trkpt>
      <trkpt lat="48.74397" lon="-3.53669">
        <ele>35</ele>
        <time>2015-11-07T13:32:38Z</time>
      </trkpt>
      <trkpt lat="48.74401" lon="-3.53642">
        <ele>35</ele>
        <time>2015-11-07T13:32:44Z</time>
      </trkpt>
      <trkpt lat="48.74405" lon="-3.53617">
        <ele>35</ele>
        <time>2015-11-07T13:32:49Z</time>
      </trkpt>
      <trkpt lat="48.74409" lon="-3.53591">
        <ele>35</ele>
        <time>2015-11-07T13:32:54Z</time>
      </trkpt>
      <trkpt lat="48.74414" lon="-3.53564">
        <ele>35</ele>
        <time>2015-11-07T13:32:59Z</time>
      </trkpt>
      <trkpt lat="48.74417" lon="-3.53549">
        <ele>35</ele>
        <time>2015-11-07T13:33:02Z</time>
      </trkpt>
      <trkpt lat="48.74422" lon="-3.53523">
        <ele>36</ele>
        <time>2015-11-07T13:33:07Z</time>
      </trkpt>
      <trkpt lat="48.74426" lon="-3.53502">
        <ele>36</ele>
        <time>2015-11-07T13:33:11Z</time>
      </trkpt>
      <trkpt lat="48.7443" lon="-3.53484">
        <ele>36</ele>
        <time>2015-11-07T13:33:14Z</time>
      </trkpt>
      <trkpt lat="48.74435" lon="-3.53459">
        <ele>37</ele>
        <time>2015-11-07T13:33:18Z</time>
      </trkpt>
      <trkpt lat="48.74441" lon="-3.53439">
        <ele>37</ele>
        <time>2015-11-07T13:33:21Z</time>
      </trkpt>
      <trkpt lat="48.74445" lon="-3.53427">
        <ele>37</ele>
        <time>2015-11-07T13:33:23Z</time>
      </trkpt>
      <trkpt lat="48.74456" lon="-3.53403">
        <ele>38</ele>
        <time>2015-11-07T13:33:27Z</time>
      </trkpt>
      <trkpt lat="48.74469" lon="-3.53383">
        <ele>38</ele>
        <time>2015-11-07T13:33:31Z</time>
      </trkpt>
      <trkpt lat="48.74484" lon="-3.53366">
        <ele>38</ele>
        <time>2015-11-07T13:33:35Z</time>
      </trkpt>
      <trkpt lat="48.74501" lon="-3.53352">
        <ele>38</ele>
        <time>2015-11-07T13:33:39Z</time>
      </trkpt>
      <trkpt lat="48.74515" lon="-3.53342">
        <ele>38</ele>
        <time>2015-11-07T13:33:42Z</time>
      </trkpt>
      <trkpt lat="48.74531" lon="-3.53331">
        <ele>38</ele>
        <time>2015-11-07T13:33:45Z</time>
      </trkpt>
      <trkpt lat="48.74544" lon="-3.53319">
        <ele>38</ele>
        <time>2015-11-07T13:33:48Z</time>
      </trkpt>
      <trkpt lat="48.74579" lon="-3.5328">
        <ele>38</ele>
        <time>2015-11-07T13:33:56Z</time>
      </trkpt>
      <trkpt lat="48.74593" lon="-3.53263">
        <ele>38</ele>
        <time>2015-11-07T13:33:59Z</time>
      </trkpt>
      <trkpt lat="48.74606" lon="-3.53246">
        <ele>38</ele>
        <time>2015-11-07T13:34:02Z</time>
      </trkpt>
      <trkpt lat="48.74619" lon="-3.53228">
        <ele>38</ele>
        <time>2015-11-07T13:34:05Z</time>
      </trkpt>
      <trkpt lat="48.74687" lon="-3.53112">
        <ele>85</ele>
        <time>2015-11-07T13:34:24Z</time>
      </trkpt>
      <trkpt lat="48.7474" lon="-3.52903">
        <ele>36</ele>
        <time>2015-11-07T13:34:54Z</time>
      </trkpt>
      <trkpt lat="48.74748" lon="-3.52871">
        <ele>36</ele>
        <time>2015-11-07T13:35:00Z</time>
      </trkpt>
      <trkpt lat="48.74757" lon="-3.52846">
        <ele>36</ele>
        <time>2015-11-07T13:35:05Z</time>
      </trkpt>
      <trkpt lat="48.74768" lon="-3.52824">
        <ele>36</ele>
        <time>2015-11-07T13:35:10Z</time>
      </trkpt>
      <trkpt lat="48.74775" lon="-3.52812">
        <ele>36</ele>
        <time>2015-11-07T13:35:13Z</time>
      </trkpt>
      <trkpt lat="48.74788" lon="-3.52794">
        <ele>36</ele>
        <time>2015-11-07T13:35:18Z</time>
      </trkpt>
      <trkpt lat="48.748" lon="-3.52779">
        <ele>36</ele>
        <time>2015-11-07T13:35:23Z</time>
      </trkpt>
      <trkpt lat="48.74812" lon="-3.52763">
        <ele>36</ele>
        <time>2015-11-07T13:35:28Z</time>
      </trkpt>
      <trkpt lat="48.74824" lon="-3.52748">
        <ele>37</ele>
        <time>2015-11-07T13:35:33Z</time>
      </trkpt>
      <trkpt lat="48.74838" lon="-3.5273">
        <ele>37</ele>
        <time>2015-11-07T13:35:39Z</time>
      </trkpt>
      <trkpt lat="48.7485" lon="-3.5271">
        <ele>37</ele>
        <time>2015-11-07T13:35:44Z</time>
      </trkpt>
      <trkpt lat="48.7486" lon="-3.52688">
        <ele>37</ele>
        <time>2015-11-07T13:35:49Z</time>
      </trkpt>
      <trkpt lat="48.74866" lon="-3.52675">
        <ele>37</ele>
        <time>2015-11-07T13:35:52Z</time>
      </trkpt>
      <trkpt lat="48.74875" lon="-3.52654">
        <ele>38</ele>
        <time>2015-11-07T13:35:57Z</time>
      </trkpt>
      <trkpt lat="48.74882" lon="-3.52638">
        <ele>39</ele>
        <time>2015-11-07T13:36:01Z</time>
      </trkpt>
      <trkpt lat="48.7489" lon="-3.52618">
        <ele>39</ele>
        <time>2015-11-07T13:36:06Z</time>
      </trkpt>
      <trkpt lat="48.74899" lon="-3.52594">
        <ele>39</ele>
        <time>2015-11-07T13:36:12Z</time>
      </trkpt>
      <trkpt lat="48.74907" lon="-3.52573">
        <ele>39</ele>
        <time>2015-11-07T13:36:17Z</time>
      </trkpt>
      <trkpt lat="48.74915" lon="-3.52554">
        <ele>40</ele>
        <time>2015-11-07T13:36:22Z</time>
      </trkpt>
      <trkpt lat="48.74922" lon="-3.52542">
        <ele>39</ele>
        <time>2015-11-07T13:36:25Z</time>
      </trkpt>
      <trkpt lat="48.74934" lon="-3.52525">
        <ele>39</ele>
        <time>2015-11-07T13:36:31Z</time>
      </trkpt>
      <trkpt lat="48.74948" lon="-3.52511">
        <ele>39</ele>
        <time>2015-11-07T13:36:35Z</time>
      </trkpt>
      <trkpt lat="48.74956" lon="-3.52504">
        <ele>39</ele>
        <time>2015-11-07T13:36:38Z</time>
      </trkpt>
      <trkpt lat="48.74964" lon="-3.52497">
        <ele>39</ele>
        <time>2015-11-07T13:36:41Z</time>
      </trkpt>
      <trkpt lat="48.7498" lon="-3.52484">
        <ele>39</ele>
        <time>2015-11-07T13:36:46Z</time>
      </trkpt>
      <trkpt lat="48.7499" lon="-3.52474">
        <ele>39</ele>
        <time>2015-11-07T13:36:49Z</time>
      </trkpt>
      <trkpt lat="48.74998" lon="-3.52461">
        <ele>39</ele>
        <time>2015-11-07T13:36:52Z</time>
      </trkpt>
      <trkpt lat="48.75003" lon="-3.52451">
        <ele>39</ele>
        <time>2015-11-07T13:36:54Z</time>
      </trkpt>
      <trkpt lat="48.75033" lon="-3.52438">
        <ele>39</ele>
        <time>2015-11-07T13:37:04Z</time>
      </trkpt>
      <trkpt lat="48.75057" lon="-3.52468">
        <ele>40</ele>
        <time>2015-11-07T13:37:11Z</time>
      </trkpt>
      <trkpt lat="48.7507" lon="-3.52481">
        <ele>40</ele>
        <time>2015-11-07T13:37:14Z</time>
      </trkpt>
      <trkpt lat="48.75087" lon="-3.52477">
        <ele>40</ele>
        <time>2015-11-07T13:37:18Z</time>
      </trkpt>
      <trkpt lat="48.75097" lon="-3.52468">
        <ele>40</ele>
        <time>2015-11-07T13:37:21Z</time>
      </trkpt>
      <trkpt lat="48.75107" lon="-3.52459">
        <ele>40</ele>
        <time>2015-11-07T13:37:24Z</time>
      </trkpt>
      <trkpt lat="48.7512" lon="-3.52446">
        <ele>41</ele>
        <time>2015-11-07T13:37:28Z</time>
      </trkpt>
      <trkpt lat="48.7513" lon="-3.52438">
        <ele>41</ele>
        <time>2015-11-07T13:37:31Z</time>
      </trkpt>
      <trkpt lat="48.75141" lon="-3.52434">
        <ele>41</ele>
        <time>2015-11-07T13:37:34Z</time>
      </trkpt>
      <trkpt lat="48.75153" lon="-3.52435">
        <ele>41</ele>
        <time>2015-11-07T13:37:37Z</time>
      </trkpt>
      <trkpt lat="48.75168" lon="-3.52444">
        <ele>41</ele>
        <time>2015-11-07T13:37:41Z</time>
      </trkpt>
      <trkpt lat="48.75176" lon="-3.52449">
        <ele>41</ele>
        <time>2015-11-07T13:37:43Z</time>
      </trkpt>
      <trkpt lat="48.75191" lon="-3.52459">
        <ele>41</ele>
        <time>2015-11-07T13:37:47Z</time>
      </trkpt>
      <trkpt lat="48.75205" lon="-3.52471">
        <ele>41</ele>
        <time>2015-11-07T13:37:51Z</time>
      </trkpt>
      <trkpt lat="48.75225" lon="-3.5249">
        <ele>41</ele>
        <time>2015-11-07T13:37:57Z</time>
      </trkpt>
      <trkpt lat="48.7524" lon="-3.52502">
        <ele>42</ele>
        <time>2015-11-07T13:38:01Z</time>
      </trkpt>
      <trkpt lat="48.75254" lon="-3.52513">
        <ele>42</ele>
        <time>2015-11-07T13:38:05Z</time>
      </trkpt>
      <trkpt lat="48.75269" lon="-3.52524">
        <ele>43</ele>
        <time>2015-11-07T13:38:09Z</time>
      </trkpt>
      <trkpt lat="48.75284" lon="-3.52534">
        <ele>43</ele>
        <time>2015-11-07T13:38:13Z</time>
      </trkpt>
      <trkpt lat="48.75299" lon="-3.52544">
        <ele>44</ele>
        <time>2015-11-07T13:38:17Z</time>
      </trkpt>
      <trkpt lat="48.75313" lon="-3.52554">
        <ele>44</ele>
        <time>2015-11-07T13:38:21Z</time>
      </trkpt>
      <trkpt lat="48.75328" lon="-3.52564">
        <ele>45</ele>
        <time>2015-11-07T13:38:25Z</time>
      </trkpt>
      <trkpt lat="48.75343" lon="-3.52574">
        <ele>45</ele>
        <time>2015-11-07T13:38:29Z</time>
      </trkpt>
      <trkpt lat="48.75358" lon="-3.52583">
        <ele>46</ele>
        <time>2015-11-07T13:38:33Z</time>
      </trkpt>
      <trkpt lat="48.75374" lon="-3.52593">
        <ele>46</ele>
        <time>2015-11-07T13:38:37Z</time>
      </trkpt>
      <trkpt lat="48.7539" lon="-3.52601">
        <ele>46</ele>
        <time>2015-11-07T13:38:41Z</time>
      </trkpt>
      <trkpt lat="48.75405" lon="-3.5261">
        <ele>46</ele>
        <time>2015-11-07T13:38:45Z</time>
      </trkpt>
      <trkpt lat="48.75415" lon="-3.52616">
        <ele>47</ele>
        <time>2015-11-07T13:38:48Z</time>
      </trkpt>
      <trkpt lat="48.7543" lon="-3.52624">
        <ele>47</ele>
        <time>2015-11-07T13:38:53Z</time>
      </trkpt>
      <trkpt lat="48.75446" lon="-3.52631">
        <ele>47</ele>
        <time>2015-11-07T13:38:56Z</time>
      </trkpt>
      <trkpt lat="48.7546" lon="-3.52643">
        <ele>47</ele>
        <time>2015-11-07T13:39:00Z</time>
      </trkpt>
      <trkpt lat="48.75469" lon="-3.52658">
        <ele>47</ele>
        <time>2015-11-07T13:39:03Z</time>
      </trkpt>
      <trkpt lat="48.75472" lon="-3.52684">
        <ele>47</ele>
        <time>2015-11-07T13:39:07Z</time>
      </trkpt>
      <trkpt lat="48.75474" lon="-3.52704">
        <ele>47</ele>
        <time>2015-11-07T13:39:10Z</time>
      </trkpt>
      <trkpt lat="48.75474" lon="-3.52718">
        <ele>47</ele>
        <time>2015-11-07T13:39:12Z</time>
      </trkpt>
      <trkpt lat="48.75473" lon="-3.52747">
        <ele>47</ele>
        <time>2015-11-07T13:39:16Z</time>
      </trkpt>
      <trkpt lat="48.75472" lon="-3.52777">
        <ele>47</ele>
        <time>2015-11-07T13:39:20Z</time>
      </trkpt>
      <trkpt lat="48.7547" lon="-3.52806">
        <ele>47</ele>
        <time>2015-11-07T13:39:24Z</time>
      </trkpt>
      <trkpt lat="48.75468" lon="-3.52837">
        <ele>47</ele>
        <time>2015-11-07T13:39:28Z</time>
      </trkpt>
      <trkpt lat="48.75467" lon="-3.5286">
        <ele>47</ele>
        <time>2015-11-07T13:39:31Z</time>
      </trkpt>
      <trkpt lat="48.75466" lon="-3.5289">
        <ele>47</ele>
        <time>2015-11-07T13:39:35Z</time>
      </trkpt>
      <trkpt lat="48.75465" lon="-3.52905">
        <ele>48</ele>
        <time>2015-11-07T13:39:37Z</time>
      </trkpt>
      <trkpt lat="48.75465" lon="-3.5292">
        <ele>48</ele>
        <time>2015-11-07T13:39:39Z</time>
      </trkpt>
      <trkpt lat="48.75464" lon="-3.52935">
        <ele>48</ele>
        <time>2015-11-07T13:39:41Z</time>
      </trkpt>
      <trkpt lat="48.75468" lon="-3.52956">
        <ele>48</ele>
        <time>2015-11-07T13:39:44Z</time>
      </trkpt>
      <trkpt lat="48.7548" lon="-3.52971">
        <ele>48</ele>
        <time>2015-11-07T13:39:47Z</time>
      </trkpt>
      <trkpt lat="48.7549" lon="-3.52976">
        <ele>48</ele>
        <time>2015-11-07T13:39:49Z</time>
      </trkpt>
      <trkpt lat="48.75509" lon="-3.52982">
        <ele>49</ele>
        <time>2015-11-07T13:39:53Z</time>
      </trkpt>
      <trkpt lat="48.75529" lon="-3.52987">
        <ele>49</ele>
        <time>2015-11-07T13:39:57Z</time>
      </trkpt>
      <trkpt lat="48.75554" lon="-3.52992">
        <ele>50</ele>
        <time>2015-11-07T13:40:02Z</time>
      </trkpt>
      <trkpt lat="48.75569" lon="-3.52996">
        <ele>50</ele>
        <time>2015-11-07T13:40:05Z</time>
      </trkpt>
      <trkpt lat="48.75585" lon="-3.53">
        <ele>49</ele>
        <time>2015-11-07T13:40:08Z</time>
      </trkpt>
      <trkpt lat="48.75601" lon="-3.53003">
        <ele>49</ele>
        <time>2015-11-07T13:40:11Z</time>
      </trkpt>
      <trkpt lat="48.75617" lon="-3.53005">
        <ele>49</ele>
        <time>2015-11-07T13:40:14Z</time>
      </trkpt>
      <trkpt lat="48.75632" lon="-3.53015">
        <ele>48</ele>
        <time>2015-11-07T13:40:17Z</time>
      </trkpt>
      <trkpt lat="48.75642" lon="-3.53024">
        <ele>48</ele>
        <time>2015-11-07T13:40:19Z</time>
      </trkpt>
      <trkpt lat="48.75651" lon="-3.53035">
        <ele>48</ele>
        <time>2015-11-07T13:40:21Z</time>
      </trkpt>
      <trkpt lat="48.75661" lon="-3.53056">
        <ele>47</ele>
        <time>2015-11-07T13:40:24Z</time>
      </trkpt>
      <trkpt lat="48.7567" lon="-3.53076">
        <ele>47</ele>
        <time>2015-11-07T13:40:27Z</time>
      </trkpt>
      <trkpt lat="48.75686" lon="-3.5309">
        <ele>46</ele>
        <time>2015-11-07T13:40:31Z</time>
      </trkpt>
      <trkpt lat="48.75703" lon="-3.53085">
        <ele>45</ele>
        <time>2015-11-07T13:40:35Z</time>
      </trkpt>
      <trkpt lat="48.7572" lon="-3.53074">
        <ele>45</ele>
        <time>2015-11-07T13:40:40Z</time>
      </trkpt>
      <trkpt lat="48.75728" lon="-3.53072">
        <ele>44</ele>
        <time>2015-11-07T13:40:41Z</time>
      </trkpt>
      <trkpt lat="48.75742" lon="-3.53068">
        <ele>44</ele>
        <time>2015-11-07T13:40:44Z</time>
      </trkpt>
      <trkpt lat="48.75751" lon="-3.53065">
        <ele>43</ele>
        <time>2015-11-07T13:40:46Z</time>
      </trkpt>
      <trkpt lat="48.75769" lon="-3.53062">
        <ele>43</ele>
        <time>2015-11-07T13:40:50Z</time>
      </trkpt>
      <trkpt lat="48.75775" lon="-3.53084">
        <ele>43</ele>
        <time>2015-11-07T13:40:54Z</time>
      </trkpt>
      <trkpt lat="48.75773" lon="-3.5311">
        <ele>42</ele>
        <time>2015-11-07T13:40:58Z</time>
      </trkpt>
      <trkpt lat="48.75774" lon="-3.5314">
        <ele>41</ele>
        <time>2015-11-07T13:41:02Z</time>
      </trkpt>
      <trkpt lat="48.75775" lon="-3.53169">
        <ele>40</ele>
        <time>2015-11-07T13:41:05Z</time>
      </trkpt>
      <trkpt lat="48.75777" lon="-3.53194">
        <ele>39</ele>
        <time>2015-11-07T13:41:08Z</time>
      </trkpt>
      <trkpt lat="48.7578" lon="-3.53224">
        <ele>38</ele>
        <time>2015-11-07T13:41:14Z</time>
      </trkpt>
      <trkpt lat="48.7577" lon="-3.53254">
        <ele>37</ele>
        <time>2015-11-07T13:41:20Z</time>
      </trkpt>
      <trkpt lat="48.75721" lon="-3.53338">
        <ele>36</ele>
        <time>2015-11-07T13:41:32Z</time>
      </trkpt>
      <trkpt lat="48.75713" lon="-3.53366">
        <ele>35</ele>
        <time>2015-11-07T13:41:35Z</time>
      </trkpt>
      <trkpt lat="48.75705" lon="-3.53392">
        <ele>35</ele>
        <time>2015-11-07T13:41:38Z</time>
      </trkpt>
      <trkpt lat="48.75657" lon="-3.53493">
        <ele>34</ele>
        <time>2015-11-07T13:41:52Z</time>
      </trkpt>
      <trkpt lat="48.75644" lon="-3.5352">
        <ele>34</ele>
        <time>2015-11-07T13:41:55Z</time>
      </trkpt>
      <trkpt lat="48.75631" lon="-3.53549">
        <ele>33</ele>
        <time>2015-11-07T13:41:58Z</time>
      </trkpt>
      <trkpt lat="48.75619" lon="-3.53577">
        <ele>33</ele>
        <time>2015-11-07T13:42:01Z</time>
      </trkpt>
      <trkpt lat="48.75608" lon="-3.53606">
        <ele>33</ele>
        <time>2015-11-07T13:42:04Z</time>
      </trkpt>
      <trkpt lat="48.75598" lon="-3.53634">
        <ele>33</ele>
        <time>2015-11-07T13:42:07Z</time>
      </trkpt>
      <trkpt lat="48.7559" lon="-3.5366">
        <ele>33</ele>
        <time>2015-11-07T13:42:10Z</time>
      </trkpt>
      <trkpt lat="48.75574" lon="-3.53688">
        <ele>33</ele>
        <time>2015-11-07T13:42:14Z</time>
      </trkpt>
      <trkpt lat="48.75558" lon="-3.53709">
        <ele>33</ele>
        <time>2015-11-07T13:42:17Z</time>
      </trkpt>
      <trkpt lat="48.75542" lon="-3.53729">
        <ele>33</ele>
        <time>2015-11-07T13:42:20Z</time>
      </trkpt>
      <trkpt lat="48.75528" lon="-3.5375">
        <ele>33</ele>
        <time>2015-11-07T13:42:23Z</time>
      </trkpt>
      <trkpt lat="48.7552" lon="-3.53768">
        <ele>33</ele>
        <time>2015-11-07T13:42:26Z</time>
      </trkpt>
      <trkpt lat="48.75509" lon="-3.53786">
        <ele>33</ele>
        <time>2015-11-07T13:42:31Z</time>
      </trkpt>
      <trkpt lat="48.75496" lon="-3.53802">
        <ele>33</ele>
        <time>2015-11-07T13:42:36Z</time>
      </trkpt>
      <trkpt lat="48.75483" lon="-3.53819">
        <ele>33</ele>
        <time>2015-11-07T13:42:39Z</time>
      </trkpt>
      <trkpt lat="48.75473" lon="-3.53832">
        <ele>33</ele>
        <time>2015-11-07T13:42:41Z</time>
      </trkpt>
      <trkpt lat="48.75463" lon="-3.53846">
        <ele>33</ele>
        <time>2015-11-07T13:42:43Z</time>
      </trkpt>
      <trkpt lat="48.75454" lon="-3.53859">
        <ele>33</ele>
        <time>2015-11-07T13:42:45Z</time>
      </trkpt>
      <trkpt lat="48.75442" lon="-3.53878">
        <ele>33</ele>
        <time>2015-11-07T13:42:48Z</time>
      </trkpt>
      <trkpt lat="48.75433" lon="-3.5389">
        <ele>33</ele>
        <time>2015-11-07T13:42:50Z</time>
      </trkpt>
      <trkpt lat="48.75418" lon="-3.53902">
        <ele>33</ele>
        <time>2015-11-07T13:42:53Z</time>
      </trkpt>
      <trkpt lat="48.75403" lon="-3.53913">
        <ele>33</ele>
        <time>2015-11-07T13:42:56Z</time>
      </trkpt>
      <trkpt lat="48.75389" lon="-3.53925">
        <ele>34</ele>
        <time>2015-11-07T13:42:59Z</time>
      </trkpt>
      <trkpt lat="48.75377" lon="-3.53942">
        <ele>34</ele>
        <time>2015-11-07T13:43:04Z</time>
      </trkpt>
      <trkpt lat="48.75367" lon="-3.53958">
        <ele>34</ele>
        <time>2015-11-07T13:43:07Z</time>
      </trkpt>
      <trkpt lat="48.75356" lon="-3.53979">
        <ele>34</ele>
        <time>2015-11-07T13:43:12Z</time>
      </trkpt>
      <trkpt lat="48.75345" lon="-3.54001">
        <ele>35</ele>
        <time>2015-11-07T13:43:16Z</time>
      </trkpt>
      <trkpt lat="48.75338" lon="-3.54016">
        <ele>35</ele>
        <time>2015-11-07T13:43:18Z</time>
      </trkpt>
      <trkpt lat="48.75328" lon="-3.5404">
        <ele>35</ele>
        <time>2015-11-07T13:43:21Z</time>
      </trkpt>
      <trkpt lat="48.75322" lon="-3.54056">
        <ele>36</ele>
        <time>2015-11-07T13:43:23Z</time>
      </trkpt>
      <trkpt lat="48.75316" lon="-3.54071">
        <ele>36</ele>
        <time>2015-11-07T13:43:25Z</time>
      </trkpt>
      <trkpt lat="48.75304" lon="-3.54092">
        <ele>36</ele>
        <time>2015-11-07T13:43:28Z</time>
      </trkpt>
      <trkpt lat="48.75296" lon="-3.54108">
        <ele>36</ele>
        <time>2015-11-07T13:43:30Z</time>
      </trkpt>
      <trkpt lat="48.7529" lon="-3.54135">
        <ele>37</ele>
        <time>2015-11-07T13:43:33Z</time>
      </trkpt>
      <trkpt lat="48.75294" lon="-3.54158">
        <ele>37</ele>
        <time>2015-11-07T13:43:36Z</time>
      </trkpt>
      <trkpt lat="48.753" lon="-3.54174">
        <ele>37</ele>
        <time>2015-11-07T13:43:39Z</time>
      </trkpt>
      <trkpt lat="48.75305" lon="-3.54185">
        <ele>37</ele>
        <time>2015-11-07T13:43:42Z</time>
      </trkpt>
      <trkpt lat="48.75313" lon="-3.54205">
        <ele>37</ele>
        <time>2015-11-07T13:43:48Z</time>
      </trkpt>
      <trkpt lat="48.75317" lon="-3.54224">
        <ele>37</ele>
        <time>2015-11-07T13:43:53Z</time>
      </trkpt>
      <trkpt lat="48.7532" lon="-3.54239">
        <ele>37</ele>
        <time>2015-11-07T13:43:57Z</time>
      </trkpt>
      <trkpt lat="48.75322" lon="-3.54256">
        <ele>37</ele>
        <time>2015-11-07T13:44:01Z</time>
      </trkpt>
      <trkpt lat="48.75324" lon="-3.54268">
        <ele>37</ele>
        <time>2015-11-07T13:44:04Z</time>
      </trkpt>
      <trkpt lat="48.75327" lon="-3.54282">
        <ele>38</ele>
        <time>2015-11-07T13:44:07Z</time>
      </trkpt>
      <trkpt lat="48.75334" lon="-3.54305">
        <ele>37</ele>
        <time>2015-11-07T13:44:12Z</time>
      </trkpt>
      <trkpt lat="48.7534" lon="-3.54323">
        <ele>37</ele>
        <time>2015-11-07T13:44:16Z</time>
      </trkpt>
      <trkpt lat="48.7534" lon="-3.5436">
        <ele>37</ele>
        <time>2015-11-07T13:44:24Z</time>
      </trkpt>
      <trkpt lat="48.75335" lon="-3.5438">
        <ele>37</ele>
        <time>2015-11-07T13:44:29Z</time>
      </trkpt>
      <trkpt lat="48.75333" lon="-3.54398">
        <ele>36</ele>
        <time>2015-11-07T13:44:35Z</time>
      </trkpt>
      <trkpt lat="48.75332" lon="-3.54413">
        <ele>36</ele>
        <time>2015-11-07T13:44:40Z</time>
      </trkpt>
      <trkpt lat="48.75332" lon="-3.54436">
        <ele>36</ele>
        <time>2015-11-07T13:44:49Z</time>
      </trkpt>
      <trkpt lat="48.75332" lon="-3.54449">
        <ele>36</ele>
        <time>2015-11-07T13:44:54Z</time>
      </trkpt>
      <trkpt lat="48.75334" lon="-3.54461">
        <ele>36</ele>
        <time>2015-11-07T13:44:59Z</time>
      </trkpt>
      <trkpt lat="48.75333" lon="-3.54481">
        <ele>37</ele>
        <time>2015-11-07T13:45:07Z</time>
      </trkpt>
      <trkpt lat="48.75331" lon="-3.54493">
        <ele>37</ele>
        <time>2015-11-07T13:45:10Z</time>
      </trkpt>
      <trkpt lat="48.75328" lon="-3.54506">
        <ele>38</ele>
        <time>2015-11-07T13:45:14Z</time>
      </trkpt>
      <trkpt lat="48.75323" lon="-3.5452">
        <ele>38</ele>
        <time>2015-11-07T13:45:18Z</time>
      </trkpt>
      <trkpt lat="48.75318" lon="-3.54536">
        <ele>39</ele>
        <time>2015-11-07T13:45:23Z</time>
      </trkpt>
      <trkpt lat="48.75316" lon="-3.5455">
        <ele>40</ele>
        <time>2015-11-07T13:45:28Z</time>
      </trkpt>
      <trkpt lat="48.75314" lon="-3.54563">
        <ele>41</ele>
        <time>2015-11-07T13:45:33Z</time>
      </trkpt>
      <trkpt lat="48.75313" lon="-3.54578">
        <ele>41</ele>
        <time>2015-11-07T13:45:39Z</time>
      </trkpt>
      <trkpt lat="48.75312" lon="-3.54591">
        <ele>41</ele>
        <time>2015-11-07T13:45:44Z</time>
      </trkpt>
      <trkpt lat="48.75313" lon="-3.54605">
        <ele>42</ele>
        <time>2015-11-07T13:45:49Z</time>
      </trkpt>
      <trkpt lat="48.75314" lon="-3.54619">
        <ele>42</ele>
        <time>2015-11-07T13:45:53Z</time>
      </trkpt>
      <trkpt lat="48.75316" lon="-3.5464">
        <ele>43</ele>
        <time>2015-11-07T13:45:58Z</time>
      </trkpt>
      <trkpt lat="48.75318" lon="-3.54667">
        <ele>43</ele>
        <time>2015-11-07T13:46:04Z</time>
      </trkpt>
      <trkpt lat="48.75321" lon="-3.54692">
        <ele>44</ele>
        <time>2015-11-07T13:46:10Z</time>
      </trkpt>
      <trkpt lat="48.75324" lon="-3.54707">
        <ele>44</ele>
        <time>2015-11-07T13:46:14Z</time>
      </trkpt>
      <trkpt lat="48.75326" lon="-3.54724">
        <ele>44</ele>
        <time>2015-11-07T13:46:18Z</time>
      </trkpt>
      <trkpt lat="48.75329" lon="-3.54749">
        <ele>44</ele>
        <time>2015-11-07T13:46:23Z</time>
      </trkpt>
      <trkpt lat="48.75332" lon="-3.54771">
        <ele>44</ele>
        <time>2015-11-07T13:46:27Z</time>
      </trkpt>
      <trkpt lat="48.75336" lon="-3.54794">
        <ele>44</ele>
        <time>2015-11-07T13:46:31Z</time>
      </trkpt>
      <trkpt lat="48.7534" lon="-3.54817">
        <ele>44</ele>
        <time>2015-11-07T13:46:35Z</time>
      </trkpt>
      <trkpt lat="48.75343" lon="-3.54834">
        <ele>44</ele>
        <time>2015-11-07T13:46:38Z</time>
      </trkpt>
      <trkpt lat="48.75347" lon="-3.54851">
        <ele>44</ele>
        <time>2015-11-07T13:46:41Z</time>
      </trkpt>
      <trkpt lat="48.75353" lon="-3.54867">
        <ele>44</ele>
        <time>2015-11-07T13:46:44Z</time>
      </trkpt>
      <trkpt lat="48.75365" lon="-3.54891">
        <ele>44</ele>
        <time>2015-11-07T13:46:49Z</time>
      </trkpt>
      <trkpt lat="48.75372" lon="-3.54904">
        <ele>44</ele>
        <time>2015-11-07T13:46:52Z</time>
      </trkpt>
      <trkpt lat="48.75385" lon="-3.54924">
        <ele>44</ele>
        <time>2015-11-07T13:46:57Z</time>
      </trkpt>
      <trkpt lat="48.75398" lon="-3.54942">
        <ele>44</ele>
        <time>2015-11-07T13:47:01Z</time>
      </trkpt>
      <trkpt lat="48.75409" lon="-3.54965">
        <ele>43</ele>
        <time>2015-11-07T13:47:05Z</time>
      </trkpt>
      <trkpt lat="48.7542" lon="-3.54982">
        <ele>43</ele>
        <time>2015-11-07T13:47:08Z</time>
      </trkpt>
      <trkpt lat="48.75458" lon="-3.55002">
        <ele>43</ele>
        <time>2015-11-07T13:47:16Z</time>
      </trkpt>
      <trkpt lat="48.75498" lon="-3.55032">
        <ele>43</ele>
        <time>2015-11-07T13:47:23Z</time>
      </trkpt>
      <trkpt lat="48.75514" lon="-3.55056">
        <ele>43</ele>
        <time>2015-11-07T13:47:26Z</time>
      </trkpt>
      <trkpt lat="48.75528" lon="-3.55079">
        <ele>42</ele>
        <time>2015-11-07T13:47:29Z</time>
      </trkpt>
      <trkpt lat="48.75541" lon="-3.55097">
        <ele>42</ele>
        <time>2015-11-07T13:47:32Z</time>
      </trkpt>
      <trkpt lat="48.75555" lon="-3.55112">
        <ele>42</ele>
        <time>2015-11-07T13:47:35Z</time>
      </trkpt>
      <trkpt lat="48.75572" lon="-3.55128">
        <ele>42</ele>
        <time>2015-11-07T13:47:39Z</time>
      </trkpt>
      <trkpt lat="48.7558" lon="-3.55136">
        <ele>41</ele>
        <time>2015-11-07T13:47:41Z</time>
      </trkpt>
      <trkpt lat="48.75593" lon="-3.55155">
        <ele>41</ele>
        <time>2015-11-07T13:47:45Z</time>
      </trkpt>
      <trkpt lat="48.75605" lon="-3.55178">
        <ele>40</ele>
        <time>2015-11-07T13:47:49Z</time>
      </trkpt>
      <trkpt lat="48.75612" lon="-3.55198">
        <ele>40</ele>
        <time>2015-11-07T13:47:52Z</time>
      </trkpt>
      <trkpt lat="48.75614" lon="-3.55223">
        <ele>39</ele>
        <time>2015-11-07T13:47:55Z</time>
      </trkpt>
      <trkpt lat="48.75613" lon="-3.55249">
        <ele>39</ele>
        <time>2015-11-07T13:47:58Z</time>
      </trkpt>
      <trkpt lat="48.75618" lon="-3.55285">
        <ele>38</ele>
        <time>2015-11-07T13:48:02Z</time>
      </trkpt>
      <trkpt lat="48.75632" lon="-3.55306">
        <ele>38</ele>
        <time>2015-11-07T13:48:05Z</time>
      </trkpt>
      <trkpt lat="48.75642" lon="-3.55317">
        <ele>38</ele>
        <time>2015-11-07T13:48:07Z</time>
      </trkpt>
      <trkpt lat="48.75656" lon="-3.55329">
        <ele>37</ele>
        <time>2015-11-07T13:48:10Z</time>
      </trkpt>
      <trkpt lat="48.75665" lon="-3.55338">
        <ele>37</ele>
        <time>2015-11-07T13:48:12Z</time>
      </trkpt>
      <trkpt lat="48.75679" lon="-3.55352">
        <ele>37</ele>
        <time>2015-11-07T13:48:15Z</time>
      </trkpt>
      <trkpt lat="48.75692" lon="-3.55366">
        <ele>37</ele>
        <time>2015-11-07T13:48:18Z</time>
      </trkpt>
      <trkpt lat="48.75702" lon="-3.55371">
        <ele>37</ele>
        <time>2015-11-07T13:48:20Z</time>
      </trkpt>
      <trkpt lat="48.75721" lon="-3.55373">
        <ele>37</ele>
        <time>2015-11-07T13:48:24Z</time>
      </trkpt>
      <trkpt lat="48.7573" lon="-3.55373">
        <ele>36</ele>
        <time>2015-11-07T13:48:26Z</time>
      </trkpt>
      <trkpt lat="48.75747" lon="-3.55376">
        <ele>36</ele>
        <time>2015-11-07T13:48:30Z</time>
      </trkpt>
      <trkpt lat="48.75764" lon="-3.55381">
        <ele>36</ele>
        <time>2015-11-07T13:48:34Z</time>
      </trkpt>
      <trkpt lat="48.75785" lon="-3.55384">
        <ele>36</ele>
        <time>2015-11-07T13:48:39Z</time>
      </trkpt>
      <trkpt lat="48.75802" lon="-3.55386">
        <ele>36</ele>
        <time>2015-11-07T13:48:43Z</time>
      </trkpt>
      <trkpt lat="48.75819" lon="-3.55394">
        <ele>36</ele>
        <time>2015-11-07T13:48:47Z</time>
      </trkpt>
      <trkpt lat="48.75837" lon="-3.55406">
        <ele>36</ele>
        <time>2015-11-07T13:48:51Z</time>
      </trkpt>
      <trkpt lat="48.75846" lon="-3.55413">
        <ele>35</ele>
        <time>2015-11-07T13:48:53Z</time>
      </trkpt>
      <trkpt lat="48.75858" lon="-3.55424">
        <ele>35</ele>
        <time>2015-11-07T13:48:57Z</time>
      </trkpt>
      <trkpt lat="48.75881" lon="-3.55455">
        <ele>34</ele>
        <time>2015-11-07T13:49:02Z</time>
      </trkpt>
      <trkpt lat="48.7589" lon="-3.55501">
        <ele>34</ele>
        <time>2015-11-07T13:49:08Z</time>
      </trkpt>
      <trkpt lat="48.75898" lon="-3.55526">
        <ele>33</ele>
        <time>2015-11-07T13:49:11Z</time>
      </trkpt>
      <trkpt lat="48.7591" lon="-3.55547">
        <ele>33</ele>
        <time>2015-11-07T13:49:14Z</time>
      </trkpt>
      <trkpt lat="48.75928" lon="-3.55567">
        <ele>33</ele>
        <time>2015-11-07T13:49:17Z</time>
      </trkpt>
      <trkpt lat="48.75942" lon="-3.55582">
        <ele>32</ele>
        <time>2015-11-07T13:49:19Z</time>
      </trkpt>
      <trkpt lat="48.75958" lon="-3.55596">
        <ele>32</ele>
        <time>2015-11-07T13:49:21Z</time>
      </trkpt>
      <trkpt lat="48.75966" lon="-3.55603">
        <ele>32</ele>
        <time>2015-11-07T13:49:22Z</time>
      </trkpt>
      <trkpt lat="48.75975" lon="-3.5561">
        <ele>32</ele>
        <time>2015-11-07T13:49:23Z</time>
      </trkpt>
      <trkpt lat="48.75985" lon="-3.55617">
        <ele>31</ele>
        <time>2015-11-07T13:49:25Z</time>
      </trkpt>
      <trkpt lat="48.76003" lon="-3.55631">
        <ele>31</ele>
        <time>2015-11-07T13:49:26Z</time>
      </trkpt>
      <trkpt lat="48.76012" lon="-3.55638">
        <ele>31</ele>
        <time>2015-11-07T13:49:27Z</time>
      </trkpt>
      <trkpt lat="48.7604" lon="-3.5566">
        <ele>31</ele>
        <time>2015-11-07T13:49:30Z</time>
      </trkpt>
      <trkpt lat="48.76056" lon="-3.55682">
        <ele>31</ele>
        <time>2015-11-07T13:49:32Z</time>
      </trkpt>
      <trkpt lat="48.76063" lon="-3.55694">
        <ele>31</ele>
        <time>2015-11-07T13:49:33Z</time>
      </trkpt>
      <trkpt lat="48.76073" lon="-3.55721">
        <ele>30</ele>
        <time>2015-11-07T13:49:35Z</time>
      </trkpt>
      <trkpt lat="48.76077" lon="-3.55734">
        <ele>30</ele>
        <time>2015-11-07T13:49:36Z</time>
      </trkpt>
      <trkpt lat="48.76087" lon="-3.55753">
        <ele>30</ele>
        <time>2015-11-07T13:49:38Z</time>
      </trkpt>
      <trkpt lat="48.76101" lon="-3.5577">
        <ele>30</ele>
        <time>2015-11-07T13:49:41Z</time>
      </trkpt>
      <trkpt lat="48.76115" lon="-3.55783">
        <ele>30</ele>
        <time>2015-11-07T13:49:46Z</time>
      </trkpt>
      <trkpt lat="48.76123" lon="-3.55789">
        <ele>29</ele>
        <time>2015-11-07T13:49:50Z</time>
      </trkpt>
      <trkpt lat="48.76134" lon="-3.55799">
        <ele>29</ele>
        <time>2015-11-07T13:49:56Z</time>
      </trkpt>
      <trkpt lat="48.76141" lon="-3.55807">
        <ele>29</ele>
        <time>2015-11-07T13:50:00Z</time>
      </trkpt>
      <trkpt lat="48.76152" lon="-3.55823">
        <ele>29</ele>
        <time>2015-11-07T13:50:07Z</time>
      </trkpt>
      <trkpt lat="48.76166" lon="-3.55843">
        <ele>30</ele>
        <time>2015-11-07T13:50:14Z</time>
      </trkpt>
      <trkpt lat="48.76177" lon="-3.55862">
        <ele>30</ele>
        <time>2015-11-07T13:50:19Z</time>
      </trkpt>
      <trkpt lat="48.76183" lon="-3.55874">
        <ele>30</ele>
        <time>2015-11-07T13:50:21Z</time>
      </trkpt>
      <trkpt lat="48.76202" lon="-3.55902">
        <ele>30</ele>
        <time>2015-11-07T13:50:26Z</time>
      </trkpt>
      <trkpt lat="48.76217" lon="-3.5592">
        <ele>29</ele>
        <time>2015-11-07T13:50:30Z</time>
      </trkpt>
      <trkpt lat="48.76232" lon="-3.55933">
        <ele>29</ele>
        <time>2015-11-07T13:50:34Z</time>
      </trkpt>
      <trkpt lat="48.76257" lon="-3.55936">
        <ele>28</ele>
        <time>2015-11-07T13:50:39Z</time>
      </trkpt>
      <trkpt lat="48.76272" lon="-3.55941">
        <ele>28</ele>
        <time>2015-11-07T13:50:42Z</time>
      </trkpt>
      <trkpt lat="48.76292" lon="-3.55946">
        <ele>26</ele>
        <time>2015-11-07T13:50:46Z</time>
      </trkpt>
      <trkpt lat="48.76327" lon="-3.55971">
        <ele>25</ele>
        <time>2015-11-07T13:50:54Z</time>
      </trkpt>
      <trkpt lat="48.76341" lon="-3.55984">
        <ele>24</ele>
        <time>2015-11-07T13:50:57Z</time>
      </trkpt>
      <trkpt lat="48.76351" lon="-3.56003">
        <ele>24</ele>
        <time>2015-11-07T13:51:00Z</time>
      </trkpt>
      <trkpt lat="48.76359" lon="-3.56025">
        <ele>24</ele>
        <time>2015-11-07T13:51:03Z</time>
      </trkpt>
      <trkpt lat="48.76368" lon="-3.56044">
        <ele>23</ele>
        <time>2015-11-07T13:51:06Z</time>
      </trkpt>
      <trkpt lat="48.7638" lon="-3.5606">
        <ele>23</ele>
        <time>2015-11-07T13:51:09Z</time>
      </trkpt>
      <trkpt lat="48.76395" lon="-3.56073">
        <ele>23</ele>
        <time>2015-11-07T13:51:12Z</time>
      </trkpt>
      <trkpt lat="48.76412" lon="-3.56086">
        <ele>23</ele>
        <time>2015-11-07T13:51:15Z</time>
      </trkpt>
      <trkpt lat="48.7644" lon="-3.56122">
        <ele>23</ele>
        <time>2015-11-07T13:51:20Z</time>
      </trkpt>
      <trkpt lat="48.76454" lon="-3.56135">
        <ele>23</ele>
        <time>2015-11-07T13:51:22Z</time>
      </trkpt>
      <trkpt lat="48.7647" lon="-3.56146">
        <ele>23</ele>
        <time>2015-11-07T13:51:24Z</time>
      </trkpt>
      <trkpt lat="48.76488" lon="-3.56154">
        <ele>23</ele>
        <time>2015-11-07T13:51:26Z</time>
      </trkpt>
      <trkpt lat="48.76498" lon="-3.56157">
        <ele>23</ele>
        <time>2015-11-07T13:51:27Z</time>
      </trkpt>
      <trkpt lat="48.76509" lon="-3.56159">
        <ele>23</ele>
        <time>2015-11-07T13:51:28Z</time>
      </trkpt>
      <trkpt lat="48.7652" lon="-3.56161">
        <ele>23</ele>
        <time>2015-11-07T13:51:29Z</time>
      </trkpt>
      <trkpt lat="48.76531" lon="-3.56161">
        <ele>23</ele>
        <time>2015-11-07T13:51:30Z</time>
      </trkpt>
      <trkpt lat="48.76542" lon="-3.56161">
        <ele>22</ele>
        <time>2015-11-07T13:51:31Z</time>
      </trkpt>
      <trkpt lat="48.76553" lon="-3.5616">
        <ele>22</ele>
        <time>2015-11-07T13:51:32Z</time>
      </trkpt>
      <trkpt lat="48.76582" lon="-3.56161">
        <ele>22</ele>
        <time>2015-11-07T13:51:35Z</time>
      </trkpt>
      <trkpt lat="48.76598" lon="-3.56169">
        <ele>21</ele>
        <time>2015-11-07T13:51:37Z</time>
      </trkpt>
      <trkpt lat="48.76615" lon="-3.56184">
        <ele>21</ele>
        <time>2015-11-07T13:51:40Z</time>
      </trkpt>
      <trkpt lat="48.76626" lon="-3.56201">
        <ele>20</ele>
        <time>2015-11-07T13:51:43Z</time>
      </trkpt>
      <trkpt lat="48.7664" lon="-3.56223">
        <ele>19</ele>
        <time>2015-11-07T13:51:48Z</time>
      </trkpt>
      <trkpt lat="48.7665" lon="-3.56237">
        <ele>18</ele>
        <time>2015-11-07T13:51:52Z</time>
      </trkpt>
      <trkpt lat="48.76663" lon="-3.5625">
        <ele>18</ele>
        <time>2015-11-07T13:51:57Z</time>
      </trkpt>
      <trkpt lat="48.76677" lon="-3.56259">
        <ele>18</ele>
        <time>2015-11-07T13:52:02Z</time>
      </trkpt>
      <trkpt lat="48.76694" lon="-3.56268">
        <ele>19</ele>
        <time>2015-11-07T13:52:08Z</time>
      </trkpt>
      <trkpt lat="48.76706" lon="-3.56274">
        <ele>19</ele>
        <time>2015-11-07T13:52:12Z</time>
      </trkpt>
      <trkpt lat="48.76714" lon="-3.5628">
        <ele>20</ele>
        <time>2015-11-07T13:52:15Z</time>
      </trkpt>
      <trkpt lat="48.76728" lon="-3.56291">
        <ele>21</ele>
        <time>2015-11-07T13:52:20Z</time>
      </trkpt>
      <trkpt lat="48.76739" lon="-3.56299">
        <ele>22</ele>
        <time>2015-11-07T13:52:24Z</time>
      </trkpt>
      <trkpt lat="48.7675" lon="-3.56306">
        <ele>23</ele>
        <time>2015-11-07T13:52:28Z</time>
      </trkpt>
      <trkpt lat="48.76765" lon="-3.56316">
        <ele>24</ele>
        <time>2015-11-07T13:52:33Z</time>
      </trkpt>
      <trkpt lat="48.7678" lon="-3.56323">
        <ele>25</ele>
        <time>2015-11-07T13:52:38Z</time>
      </trkpt>
      <trkpt lat="48.76792" lon="-3.56328">
        <ele>26</ele>
        <time>2015-11-07T13:52:42Z</time>
      </trkpt>
      <trkpt lat="48.76802" lon="-3.56334">
        <ele>27</ele>
        <time>2015-11-07T13:52:45Z</time>
      </trkpt>
      <trkpt lat="48.76819" lon="-3.56342">
        <ele>27</ele>
        <time>2015-11-07T13:52:51Z</time>
      </trkpt>
      <trkpt lat="48.7685" lon="-3.5635">
        <ele>28</ele>
        <time>2015-11-07T13:52:58Z</time>
      </trkpt>
      <trkpt lat="48.76866" lon="-3.5636">
        <ele>28</ele>
        <time>2015-11-07T13:53:01Z</time>
      </trkpt>
      <trkpt lat="48.76886" lon="-3.5636">
        <ele>28</ele>
        <time>2015-11-07T13:53:05Z</time>
      </trkpt>
      <trkpt lat="48.76917" lon="-3.56392">
        <ele>28</ele>
        <time>2015-11-07T13:53:13Z</time>
      </trkpt>
      <trkpt lat="48.76932" lon="-3.56407">
        <ele>28</ele>
        <time>2015-11-07T13:53:17Z</time>
      </trkpt>
      <trkpt lat="48.76953" lon="-3.56418">
        <ele>28</ele>
        <time>2015-11-07T13:53:22Z</time>
      </trkpt>
      <trkpt lat="48.76972" lon="-3.56422">
        <ele>28</ele>
        <time>2015-11-07T13:53:26Z</time>
      </trkpt>
      <trkpt lat="48.76983" lon="-3.56398">
        <ele>28</ele>
        <time>2015-11-07T13:53:29Z</time>
      </trkpt>
      <trkpt lat="48.76989" lon="-3.56367">
        <ele>27</ele>
        <time>2015-11-07T13:53:32Z</time>
      </trkpt>
      <trkpt lat="48.76993" lon="-3.56347">
        <ele>27</ele>
        <time>2015-11-07T13:53:34Z</time>
      </trkpt>
      <trkpt lat="48.76997" lon="-3.56327">
        <ele>27</ele>
        <time>2015-11-07T13:53:36Z</time>
      </trkpt>
      <trkpt lat="48.77001" lon="-3.56306">
        <ele>26</ele>
        <time>2015-11-07T13:53:38Z</time>
      </trkpt>
      <trkpt lat="48.77006" lon="-3.56286">
        <ele>26</ele>
        <time>2015-11-07T13:53:40Z</time>
      </trkpt>
      <trkpt lat="48.77011" lon="-3.56265">
        <ele>26</ele>
        <time>2015-11-07T13:53:43Z</time>
      </trkpt>
      <trkpt lat="48.77021" lon="-3.56234">
        <ele>26</ele>
        <time>2015-11-07T13:53:45Z</time>
      </trkpt>
      <trkpt lat="48.77033" lon="-3.56204">
        <ele>26</ele>
        <time>2015-11-07T13:53:48Z</time>
      </trkpt>
      <trkpt lat="48.7704" lon="-3.56184">
        <ele>26</ele>
        <time>2015-11-07T13:53:50Z</time>
      </trkpt>
      <trkpt lat="48.77047" lon="-3.56164">
        <ele>25</ele>
        <time>2015-11-07T13:53:52Z</time>
      </trkpt>
      <trkpt lat="48.77055" lon="-3.56145">
        <ele>25</ele>
        <time>2015-11-07T13:53:54Z</time>
      </trkpt>
      <trkpt lat="48.77062" lon="-3.56124">
        <ele>25</ele>
        <time>2015-11-07T13:53:56Z</time>
      </trkpt>
      <trkpt lat="48.7707" lon="-3.56104">
        <ele>25</ele>
        <time>2015-11-07T13:53:58Z</time>
      </trkpt>
      <trkpt lat="48.7708" lon="-3.56084">
        <ele>25</ele>
        <time>2015-11-07T13:54:00Z</time>
      </trkpt>
      <trkpt lat="48.77091" lon="-3.56066">
        <ele>25</ele>
        <time>2015-11-07T13:54:02Z</time>
      </trkpt>
      <trkpt lat="48.77103" lon="-3.56051">
        <ele>25</ele>
        <time>2015-11-07T13:54:04Z</time>
      </trkpt>
      <trkpt lat="48.77121" lon="-3.56032">
        <ele>25</ele>
        <time>2015-11-07T13:54:07Z</time>
      </trkpt>
      <trkpt lat="48.77138" lon="-3.56015">
        <ele>25</ele>
        <time>2015-11-07T13:54:10Z</time>
      </trkpt>
      <trkpt lat="48.77153" lon="-3.55998">
        <ele>24</ele>
        <time>2015-11-07T13:54:13Z</time>
      </trkpt>
      <trkpt lat="48.77169" lon="-3.55979">
        <ele>24</ele>
        <time>2015-11-07T13:54:16Z</time>
      </trkpt>
      <trkpt lat="48.77181" lon="-3.55956">
        <ele>24</ele>
        <time>2015-11-07T13:54:19Z</time>
      </trkpt>
      <trkpt lat="48.77188" lon="-3.55939">
        <ele>24</ele>
        <time>2015-11-07T13:54:21Z</time>
      </trkpt>
      <trkpt lat="48.77197" lon="-3.55911">
        <ele>24</ele>
        <time>2015-11-07T13:54:24Z</time>
      </trkpt>
      <trkpt lat="48.77201" lon="-3.55892">
        <ele>24</ele>
        <time>2015-11-07T13:54:26Z</time>
      </trkpt>
      <trkpt lat="48.77205" lon="-3.55873">
        <ele>24</ele>
        <time>2015-11-07T13:54:28Z</time>
      </trkpt>
      <trkpt lat="48.77208" lon="-3.55853">
        <ele>24</ele>
        <time>2015-11-07T13:54:30Z</time>
      </trkpt>
      <trkpt lat="48.77212" lon="-3.55825">
        <ele>24</ele>
        <time>2015-11-07T13:54:33Z</time>
      </trkpt>
      <trkpt lat="48.77215" lon="-3.55797">
        <ele>24</ele>
        <time>2015-11-07T13:54:36Z</time>
      </trkpt>
      <trkpt lat="48.77218" lon="-3.5578">
        <ele>24</ele>
        <time>2015-11-07T13:54:38Z</time>
      </trkpt>
      <trkpt lat="48.7722" lon="-3.55762">
        <ele>24</ele>
        <time>2015-11-07T13:54:40Z</time>
      </trkpt>
      <trkpt lat="48.77223" lon="-3.55745">
        <ele>24</ele>
        <time>2015-11-07T13:54:42Z</time>
      </trkpt>
      <trkpt lat="48.77227" lon="-3.55718">
        <ele>24</ele>
        <time>2015-11-07T13:54:45Z</time>
      </trkpt>
      <trkpt lat="48.77232" lon="-3.5569">
        <ele>24</ele>
        <time>2015-11-07T13:54:48Z</time>
      </trkpt>
      <trkpt lat="48.77236" lon="-3.5567">
        <ele>25</ele>
        <time>2015-11-07T13:54:50Z</time>
      </trkpt>
      <trkpt lat="48.7724" lon="-3.55651">
        <ele>25</ele>
        <time>2015-11-07T13:54:52Z</time>
      </trkpt>
      <trkpt lat="48.77245" lon="-3.55632">
        <ele>25</ele>
        <time>2015-11-07T13:54:54Z</time>
      </trkpt>
      <trkpt lat="48.77249" lon="-3.55614">
        <ele>25</ele>
        <time>2015-11-07T13:54:56Z</time>
      </trkpt>
      <trkpt lat="48.77253" lon="-3.55587">
        <ele>25</ele>
        <time>2015-11-07T13:54:59Z</time>
      </trkpt>
      <trkpt lat="48.77257" lon="-3.55561">
        <ele>25</ele>
        <time>2015-11-07T13:55:02Z</time>
      </trkpt>
      <trkpt lat="48.77257" lon="-3.55543">
        <ele>26</ele>
        <time>2015-11-07T13:55:05Z</time>
      </trkpt>
      <trkpt lat="48.77255" lon="-3.55526">
        <ele>26</ele>
        <time>2015-11-07T13:55:06Z</time>
      </trkpt>
      <trkpt lat="48.77256" lon="-3.55509">
        <ele>26</ele>
        <time>2015-11-07T13:55:08Z</time>
      </trkpt>
      <trkpt lat="48.77259" lon="-3.55484">
        <ele>26</ele>
        <time>2015-11-07T13:55:11Z</time>
      </trkpt>
      <trkpt lat="48.77258" lon="-3.55457">
        <ele>26</ele>
        <time>2015-11-07T13:55:14Z</time>
      </trkpt>
      <trkpt lat="48.77256" lon="-3.5544">
        <ele>26</ele>
        <time>2015-11-07T13:55:16Z</time>
      </trkpt>
      <trkpt lat="48.77254" lon="-3.55423">
        <ele>26</ele>
        <time>2015-11-07T13:55:18Z</time>
      </trkpt>
      <trkpt lat="48.77252" lon="-3.55406">
        <ele>27</ele>
        <time>2015-11-07T13:55:20Z</time>
      </trkpt>
      <trkpt lat="48.77251" lon="-3.55382">
        <ele>27</ele>
        <time>2015-11-07T13:55:23Z</time>
      </trkpt>
      <trkpt lat="48.7725" lon="-3.55366">
        <ele>27</ele>
        <time>2015-11-07T13:55:25Z</time>
      </trkpt>
      <trkpt lat="48.7725" lon="-3.55341">
        <ele>27</ele>
        <time>2015-11-07T13:55:28Z</time>
      </trkpt>
      <trkpt lat="48.7725" lon="-3.55316">
        <ele>27</ele>
        <time>2015-11-07T13:55:31Z</time>
      </trkpt>
      <trkpt lat="48.77251" lon="-3.55292">
        <ele>28</ele>
        <time>2015-11-07T13:55:34Z</time>
      </trkpt>
      <trkpt lat="48.77252" lon="-3.55267">
        <ele>28</ele>
        <time>2015-11-07T13:55:37Z</time>
      </trkpt>
      <trkpt lat="48.77254" lon="-3.55243">
        <ele>28</ele>
        <time>2015-11-07T13:55:40Z</time>
      </trkpt>
      <trkpt lat="48.77255" lon="-3.55227">
        <ele>28</ele>
        <time>2015-11-07T13:55:42Z</time>
      </trkpt>
      <trkpt lat="48.77257" lon="-3.55204">
        <ele>29</ele>
        <time>2015-11-07T13:55:45Z</time>
      </trkpt>
      <trkpt lat="48.77259" lon="-3.55181">
        <ele>29</ele>
        <time>2015-11-07T13:55:48Z</time>
      </trkpt>
      <trkpt lat="48.77261" lon="-3.55166">
        <ele>29</ele>
        <time>2015-11-07T13:55:51Z</time>
      </trkpt>
      <trkpt lat="48.77264" lon="-3.55136">
        <ele>29</ele>
        <time>2015-11-07T13:55:54Z</time>
      </trkpt>
      <trkpt lat="48.77266" lon="-3.55105">
        <ele>29</ele>
        <time>2015-11-07T13:55:58Z</time>
      </trkpt>
      <trkpt lat="48.77266" lon="-3.55081">
        <ele>29</ele>
        <time>2015-11-07T13:56:01Z</time>
      </trkpt>
      <trkpt lat="48.77266" lon="-3.55057">
        <ele>29</ele>
        <time>2015-11-07T13:56:04Z</time>
      </trkpt>
      <trkpt lat="48.77264" lon="-3.55027">
        <ele>30</ele>
        <time>2015-11-07T13:56:08Z</time>
      </trkpt>
      <trkpt lat="48.77263" lon="-3.55008">
        <ele>30</ele>
        <time>2015-11-07T13:56:11Z</time>
      </trkpt>
      <trkpt lat="48.77262" lon="-3.54978">
        <ele>30</ele>
        <time>2015-11-07T13:56:16Z</time>
      </trkpt>
      <trkpt lat="48.77261" lon="-3.54953">
        <ele>30</ele>
        <time>2015-11-07T13:56:20Z</time>
      </trkpt>
      <trkpt lat="48.7726" lon="-3.54936">
        <ele>30</ele>
        <time>2015-11-07T13:56:23Z</time>
      </trkpt>
      <trkpt lat="48.77259" lon="-3.54912">
        <ele>30</ele>
        <time>2015-11-07T13:56:27Z</time>
      </trkpt>
      <trkpt lat="48.77258" lon="-3.54894">
        <ele>31</ele>
        <time>2015-11-07T13:56:30Z</time>
      </trkpt>
      <trkpt lat="48.77258" lon="-3.54877">
        <ele>31</ele>
        <time>2015-11-07T13:56:33Z</time>
      </trkpt>
      <trkpt lat="48.77257" lon="-3.5486">
        <ele>31</ele>
        <time>2015-11-07T13:56:36Z</time>
      </trkpt>
      <trkpt lat="48.77254" lon="-3.54837">
        <ele>31</ele>
        <time>2015-11-07T13:56:40Z</time>
      </trkpt>
      <trkpt lat="48.77254" lon="-3.5482">
        <ele>32</ele>
        <time>2015-11-07T13:56:43Z</time>
      </trkpt>
      <trkpt lat="48.77253" lon="-3.54803">
        <ele>32</ele>
        <time>2015-11-07T13:56:46Z</time>
      </trkpt>
      <trkpt lat="48.77252" lon="-3.54786">
        <ele>32</ele>
        <time>2015-11-07T13:56:49Z</time>
      </trkpt>
      <trkpt lat="48.77249" lon="-3.54758">
        <ele>32</ele>
        <time>2015-11-07T13:56:54Z</time>
      </trkpt>
      <trkpt lat="48.77248" lon="-3.54733">
        <ele>33</ele>
        <time>2015-11-07T13:56:59Z</time>
      </trkpt>
      <trkpt lat="48.77245" lon="-3.54713">
        <ele>33</ele>
        <time>2015-11-07T13:57:03Z</time>
      </trkpt>
      <trkpt lat="48.77239" lon="-3.54688">
        <ele>34</ele>
        <time>2015-11-07T13:57:08Z</time>
      </trkpt>
      <trkpt lat="48.77235" lon="-3.54673">
        <ele>34</ele>
        <time>2015-11-07T13:57:11Z</time>
      </trkpt>
      <trkpt lat="48.77231" lon="-3.54658">
        <ele>34</ele>
        <time>2015-11-07T13:57:14Z</time>
      </trkpt>
      <trkpt lat="48.77225" lon="-3.54639">
        <ele>34</ele>
        <time>2015-11-07T13:57:18Z</time>
      </trkpt>
      <trkpt lat="48.77219" lon="-3.54616">
        <ele>35</ele>
        <time>2015-11-07T13:57:23Z</time>
      </trkpt>
      <trkpt lat="48.77214" lon="-3.54597">
        <ele>35</ele>
        <time>2015-11-07T13:57:27Z</time>
      </trkpt>
      <trkpt lat="48.7721" lon="-3.54578">
        <ele>35</ele>
        <time>2015-11-07T13:57:31Z</time>
      </trkpt>
      <trkpt lat="48.77206" lon="-3.54556">
        <ele>36</ele>
        <time>2015-11-07T13:57:36Z</time>
      </trkpt>
      <trkpt lat="48.77204" lon="-3.54542">
        <ele>36</ele>
        <time>2015-11-07T13:57:40Z</time>
      </trkpt>
      <trkpt lat="48.77201" lon="-3.54515">
        <ele>37</ele>
        <time>2015-11-07T13:57:45Z</time>
      </trkpt>
      <trkpt lat="48.77199" lon="-3.5449">
        <ele>37</ele>
        <time>2015-11-07T13:57:51Z</time>
      </trkpt>
      <trkpt lat="48.77198" lon="-3.54466">
        <ele>37</ele>
        <time>2015-11-07T13:57:57Z</time>
      </trkpt>
      <trkpt lat="48.77197" lon="-3.54442">
        <ele>38</ele>
        <time>2015-11-07T13:58:03Z</time>
      </trkpt>
      <trkpt lat="48.77196" lon="-3.54421">
        <ele>39</ele>
        <time>2015-11-07T13:58:08Z</time>
      </trkpt>
      <trkpt lat="48.77195" lon="-3.54409">
        <ele>39</ele>
        <time>2015-11-07T13:58:11Z</time>
      </trkpt>
      <trkpt lat="48.77193" lon="-3.54381">
        <ele>39</ele>
        <time>2015-11-07T13:58:17Z</time>
      </trkpt>
      <trkpt lat="48.77191" lon="-3.54363">
        <ele>40</ele>
        <time>2015-11-07T13:58:20Z</time>
      </trkpt>
      <trkpt lat="48.77187" lon="-3.54334">
        <ele>40</ele>
        <time>2015-11-07T13:58:24Z</time>
      </trkpt>
      <trkpt lat="48.77185" lon="-3.54318">
        <ele>40</ele>
        <time>2015-11-07T13:58:26Z</time>
      </trkpt>
      <trkpt lat="48.77184" lon="-3.54303">
        <ele>41</ele>
        <time>2015-11-07T13:58:28Z</time>
      </trkpt>
      <trkpt lat="48.77182" lon="-3.5428">
        <ele>41</ele>
        <time>2015-11-07T13:58:31Z</time>
      </trkpt>
      <trkpt lat="48.77182" lon="-3.54254">
        <ele>41</ele>
        <time>2015-11-07T13:58:34Z</time>
      </trkpt>
      <trkpt lat="48.77184" lon="-3.54225">
        <ele>41</ele>
        <time>2015-11-07T13:58:37Z</time>
      </trkpt>
      <trkpt lat="48.77187" lon="-3.54193">
        <ele>41</ele>
        <time>2015-11-07T13:58:40Z</time>
      </trkpt>
      <trkpt lat="48.7719" lon="-3.54161">
        <ele>41</ele>
        <time>2015-11-07T13:58:43Z</time>
      </trkpt>
      <trkpt lat="48.77193" lon="-3.54139">
        <ele>41</ele>
        <time>2015-11-07T13:58:45Z</time>
      </trkpt>
      <trkpt lat="48.77196" lon="-3.54119">
        <ele>41</ele>
        <time>2015-11-07T13:58:47Z</time>
      </trkpt>
      <trkpt lat="48.77198" lon="-3.541">
        <ele>41</ele>
        <time>2015-11-07T13:58:49Z</time>
      </trkpt>
      <trkpt lat="48.772" lon="-3.54071">
        <ele>41</ele>
        <time>2015-11-07T13:58:52Z</time>
      </trkpt>
      <trkpt lat="48.77201" lon="-3.54045">
        <ele>42</ele>
        <time>2015-11-07T13:58:55Z</time>
      </trkpt>
      <trkpt lat="48.77202" lon="-3.54022">
        <ele>42</ele>
        <time>2015-11-07T13:58:58Z</time>
      </trkpt>
      <trkpt lat="48.77203" lon="-3.53995">
        <ele>42</ele>
        <time>2015-11-07T13:59:02Z</time>
      </trkpt>
      <trkpt lat="48.77204" lon="-3.53977">
        <ele>42</ele>
        <time>2015-11-07T13:59:05Z</time>
      </trkpt>
      <trkpt lat="48.77206" lon="-3.53953">
        <ele>42</ele>
        <time>2015-11-07T13:59:09Z</time>
      </trkpt>
      <trkpt lat="48.77206" lon="-3.53936">
        <ele>42</ele>
        <time>2015-11-07T13:59:12Z</time>
      </trkpt>
      <trkpt lat="48.77207" lon="-3.5392">
        <ele>42</ele>
        <time>2015-11-07T13:59:15Z</time>
      </trkpt>
      <trkpt lat="48.77209" lon="-3.53892">
        <ele>42</ele>
        <time>2015-11-07T13:59:21Z</time>
      </trkpt>
      <trkpt lat="48.7721" lon="-3.53874">
        <ele>42</ele>
        <time>2015-11-07T13:59:25Z</time>
      </trkpt>
      <trkpt lat="48.77211" lon="-3.53861">
        <ele>42</ele>
        <time>2015-11-07T13:59:28Z</time>
      </trkpt>
      <trkpt lat="48.77213" lon="-3.53834">
        <ele>43</ele>
        <time>2015-11-07T13:59:34Z</time>
      </trkpt>
      <trkpt lat="48.77213" lon="-3.53816">
        <ele>43</ele>
        <time>2015-11-07T13:59:38Z</time>
      </trkpt>
      <trkpt lat="48.77213" lon="-3.53803">
        <ele>43</ele>
        <time>2015-11-07T13:59:41Z</time>
      </trkpt>
      <trkpt lat="48.77212" lon="-3.5379">
        <ele>44</ele>
        <time>2015-11-07T13:59:44Z</time>
      </trkpt>
      <trkpt lat="48.7721" lon="-3.53777">
        <ele>44</ele>
        <time>2015-11-07T13:59:47Z</time>
      </trkpt>
      <trkpt lat="48.77208" lon="-3.53765">
        <ele>44</ele>
        <time>2015-11-07T13:59:50Z</time>
      </trkpt>
      <trkpt lat="48.77206" lon="-3.53753">
        <ele>44</ele>
        <time>2015-11-07T13:59:53Z</time>
      </trkpt>
      <trkpt lat="48.77203" lon="-3.53741">
        <ele>45</ele>
        <time>2015-11-07T13:59:56Z</time>
      </trkpt>
      <trkpt lat="48.77197" lon="-3.53721">
        <ele>45</ele>
        <time>2015-11-07T14:00:01Z</time>
      </trkpt>
      <trkpt lat="48.77192" lon="-3.53709">
        <ele>45</ele>
        <time>2015-11-07T14:00:04Z</time>
      </trkpt>
      <trkpt lat="48.77184" lon="-3.53689">
        <ele>46</ele>
        <time>2015-11-07T14:00:09Z</time>
      </trkpt>
      <trkpt lat="48.77179" lon="-3.53676">
        <ele>46</ele>
        <time>2015-11-07T14:00:12Z</time>
      </trkpt>
      <trkpt lat="48.77174" lon="-3.53662">
        <ele>47</ele>
        <time>2015-11-07T14:00:15Z</time>
      </trkpt>
      <trkpt lat="48.77165" lon="-3.53639">
        <ele>47</ele>
        <time>2015-11-07T14:00:20Z</time>
      </trkpt>
      <trkpt lat="48.77158" lon="-3.53619">
        <ele>48</ele>
        <time>2015-11-07T14:00:24Z</time>
      </trkpt>
      <trkpt lat="48.77152" lon="-3.53603">
        <ele>48</ele>
        <time>2015-11-07T14:00:27Z</time>
      </trkpt>
      <trkpt lat="48.77147" lon="-3.53587">
        <ele>49</ele>
        <time>2015-11-07T14:00:30Z</time>
      </trkpt>
      <trkpt lat="48.77141" lon="-3.53569">
        <ele>49</ele>
        <time>2015-11-07T14:00:33Z</time>
      </trkpt>
      <trkpt lat="48.77134" lon="-3.53546">
        <ele>49</ele>
        <time>2015-11-07T14:00:37Z</time>
      </trkpt>
      <trkpt lat="48.77128" lon="-3.5353">
        <ele>49</ele>
        <time>2015-11-07T14:00:40Z</time>
      </trkpt>
      <trkpt lat="48.77116" lon="-3.53509">
        <ele>50</ele>
        <time>2015-11-07T14:00:44Z</time>
      </trkpt>
      <trkpt lat="48.77103" lon="-3.53496">
        <ele>50</ele>
        <time>2015-11-07T14:00:47Z</time>
      </trkpt>
      <trkpt lat="48.77089" lon="-3.53484">
        <ele>50</ele>
        <time>2015-11-07T14:00:50Z</time>
      </trkpt>
      <trkpt lat="48.77074" lon="-3.53476">
        <ele>51</ele>
        <time>2015-11-07T14:00:53Z</time>
      </trkpt>
      <trkpt lat="48.77054" lon="-3.53468">
        <ele>51</ele>
        <time>2015-11-07T14:00:57Z</time>
      </trkpt>
      <trkpt lat="48.77044" lon="-3.53464">
        <ele>51</ele>
        <time>2015-11-07T14:00:59Z</time>
      </trkpt>
      <trkpt lat="48.77029" lon="-3.53457">
        <ele>52</ele>
        <time>2015-11-07T14:01:02Z</time>
      </trkpt>
      <trkpt lat="48.77014" lon="-3.53447">
        <ele>52</ele>
        <time>2015-11-07T14:01:05Z</time>
      </trkpt>
      <trkpt lat="48.77006" lon="-3.53439">
        <ele>52</ele>
        <time>2015-11-07T14:01:07Z</time>
      </trkpt>
      <trkpt lat="48.76992" lon="-3.53423">
        <ele>52</ele>
        <time>2015-11-07T14:01:11Z</time>
      </trkpt>
      <trkpt lat="48.76981" lon="-3.53401">
        <ele>52</ele>
        <time>2015-11-07T14:01:15Z</time>
      </trkpt>
      <trkpt lat="48.76974" lon="-3.53376">
        <ele>52</ele>
        <time>2015-11-07T14:01:19Z</time>
      </trkpt>
      <trkpt lat="48.76971" lon="-3.53315">
        <ele>52</ele>
        <time>2015-11-07T14:01:28Z</time>
      </trkpt>
      <trkpt lat="48.76975" lon="-3.53284">
        <ele>52</ele>
        <time>2015-11-07T14:01:32Z</time>
      </trkpt>
      <trkpt lat="48.7698" lon="-3.5326">
        <ele>52</ele>
        <time>2015-11-07T14:01:35Z</time>
      </trkpt>
      <trkpt lat="48.76986" lon="-3.53238">
        <ele>52</ele>
        <time>2015-11-07T14:01:38Z</time>
      </trkpt>
      <trkpt lat="48.76993" lon="-3.53217">
        <ele>52</ele>
        <time>2015-11-07T14:01:41Z</time>
      </trkpt>
      <trkpt lat="48.76999" lon="-3.53195">
        <ele>52</ele>
        <time>2015-11-07T14:01:44Z</time>
      </trkpt>
      <trkpt lat="48.77006" lon="-3.53166">
        <ele>52</ele>
        <time>2015-11-07T14:01:48Z</time>
      </trkpt>
      <trkpt lat="48.77013" lon="-3.53135">
        <ele>52</ele>
        <time>2015-11-07T14:01:52Z</time>
      </trkpt>
      <trkpt lat="48.77019" lon="-3.53109">
        <ele>52</ele>
        <time>2015-11-07T14:01:55Z</time>
      </trkpt>
      <trkpt lat="48.77025" lon="-3.53081">
        <ele>52</ele>
        <time>2015-11-07T14:01:58Z</time>
      </trkpt>
      <trkpt lat="48.77088" lon="-3.52851">
        <ele>95.8</ele>
        <time>2015-11-07T14:02:23Z</time>
      </trkpt>
      <trkpt lat="48.77151" lon="-3.52673">
        <ele>93.6</ele>
        <time>2015-11-07T14:02:44Z</time>
      </trkpt>
      <trkpt lat="48.77244" lon="-3.5239">
        <ele>45</ele>
        <time>2015-11-07T14:03:13Z</time>
      </trkpt>
      <trkpt lat="48.77249" lon="-3.5235">
        <ele>45</ele>
        <time>2015-11-07T14:03:17Z</time>
      </trkpt>
      <trkpt lat="48.77254" lon="-3.52319">
        <ele>44</ele>
        <time>2015-11-07T14:03:20Z</time>
      </trkpt>
      <trkpt lat="48.77259" lon="-3.52296">
        <ele>44</ele>
        <time>2015-11-07T14:03:22Z</time>
      </trkpt>
      <trkpt lat="48.77263" lon="-3.52274">
        <ele>44</ele>
        <time>2015-11-07T14:03:24Z</time>
      </trkpt>
      <trkpt lat="48.77268" lon="-3.52251">
        <ele>44</ele>
        <time>2015-11-07T14:03:26Z</time>
      </trkpt>
      <trkpt lat="48.77273" lon="-3.52228">
        <ele>43</ele>
        <time>2015-11-07T14:03:28Z</time>
      </trkpt>
      <trkpt lat="48.77278" lon="-3.52207">
        <ele>43</ele>
        <time>2015-11-07T14:03:30Z</time>
      </trkpt>
      <trkpt lat="48.77284" lon="-3.52187">
        <ele>43</ele>
        <time>2015-11-07T14:03:32Z</time>
      </trkpt>
      <trkpt lat="48.7729" lon="-3.5217">
        <ele>43</ele>
        <time>2015-11-07T14:03:34Z</time>
      </trkpt>
      <trkpt lat="48.77295" lon="-3.52154">
        <ele>43</ele>
        <time>2015-11-07T14:03:36Z</time>
      </trkpt>
      <trkpt lat="48.773" lon="-3.52139">
        <ele>43</ele>
        <time>2015-11-07T14:03:38Z</time>
      </trkpt>
      <trkpt lat="48.77305" lon="-3.52124">
        <ele>43</ele>
        <time>2015-11-07T14:03:40Z</time>
      </trkpt>
      <trkpt lat="48.77309" lon="-3.5211">
        <ele>43</ele>
        <time>2015-11-07T14:03:42Z</time>
      </trkpt>
      <trkpt lat="48.77314" lon="-3.52096">
        <ele>43</ele>
        <time>2015-11-07T14:03:44Z</time>
      </trkpt>
      <trkpt lat="48.77319" lon="-3.52082">
        <ele>43</ele>
        <time>2015-11-07T14:03:46Z</time>
      </trkpt>
      <trkpt lat="48.77322" lon="-3.52067">
        <ele>43</ele>
        <time>2015-11-07T14:03:48Z</time>
      </trkpt>
      <trkpt lat="48.77324" lon="-3.52043">
        <ele>42</ele>
        <time>2015-11-07T14:03:51Z</time>
      </trkpt>
      <trkpt lat="48.7734" lon="-3.5204">
        <ele>42</ele>
        <time>2015-11-07T14:03:56Z</time>
      </trkpt>
      <trkpt lat="48.77348" lon="-3.52068">
        <ele>42</ele>
        <time>2015-11-07T14:04:00Z</time>
      </trkpt>
      <trkpt lat="48.77356" lon="-3.52084">
        <ele>42</ele>
        <time>2015-11-07T14:04:02Z</time>
      </trkpt>
      <trkpt lat="48.77372" lon="-3.52107">
        <ele>42</ele>
        <time>2015-11-07T14:04:05Z</time>
      </trkpt>
      <trkpt lat="48.77384" lon="-3.52125">
        <ele>42</ele>
        <time>2015-11-07T14:04:07Z</time>
      </trkpt>
      <trkpt lat="48.77395" lon="-3.52143">
        <ele>41</ele>
        <time>2015-11-07T14:04:09Z</time>
      </trkpt>
      <trkpt lat="48.77407" lon="-3.52162">
        <ele>41</ele>
        <time>2015-11-07T14:04:11Z</time>
      </trkpt>
      <trkpt lat="48.77419" lon="-3.52181">
        <ele>41</ele>
        <time>2015-11-07T14:04:13Z</time>
      </trkpt>
      <trkpt lat="48.77431" lon="-3.52202">
        <ele>41</ele>
        <time>2015-11-07T14:04:15Z</time>
      </trkpt>
      <trkpt lat="48.77436" lon="-3.52212">
        <ele>40</ele>
        <time>2015-11-07T14:04:16Z</time>
      </trkpt>
      <trkpt lat="48.77448" lon="-3.52233">
        <ele>40</ele>
        <time>2015-11-07T14:04:18Z</time>
      </trkpt>
      <trkpt lat="48.77454" lon="-3.52243">
        <ele>40</ele>
        <time>2015-11-07T14:04:19Z</time>
      </trkpt>
      <trkpt lat="48.77461" lon="-3.52254">
        <ele>40</ele>
        <time>2015-11-07T14:04:20Z</time>
      </trkpt>
      <trkpt lat="48.77467" lon="-3.52265">
        <ele>40</ele>
        <time>2015-11-07T14:04:21Z</time>
      </trkpt>
      <trkpt lat="48.77474" lon="-3.52277">
        <ele>40</ele>
        <time>2015-11-07T14:04:22Z</time>
      </trkpt>
      <trkpt lat="48.7748" lon="-3.52288">
        <ele>39</ele>
        <time>2015-11-07T14:04:23Z</time>
      </trkpt>
      <trkpt lat="48.77486" lon="-3.52298">
        <ele>39</ele>
        <time>2015-11-07T14:04:24Z</time>
      </trkpt>
      <trkpt lat="48.77493" lon="-3.52308">
        <ele>39</ele>
        <time>2015-11-07T14:04:25Z</time>
      </trkpt>
      <trkpt lat="48.77499" lon="-3.52319">
        <ele>39</ele>
        <time>2015-11-07T14:04:26Z</time>
      </trkpt>
      <trkpt lat="48.77506" lon="-3.5233">
        <ele>39</ele>
        <time>2015-11-07T14:04:27Z</time>
      </trkpt>
      <trkpt lat="48.77557" lon="-3.5241">
        <ele>38</ele>
        <time>2015-11-07T14:04:34Z</time>
      </trkpt>
      <trkpt lat="48.77573" lon="-3.52434">
        <ele>38</ele>
        <time>2015-11-07T14:04:36Z</time>
      </trkpt>
      <trkpt lat="48.77581" lon="-3.52446">
        <ele>38</ele>
        <time>2015-11-07T14:04:37Z</time>
      </trkpt>
      <trkpt lat="48.77588" lon="-3.52458">
        <ele>37</ele>
        <time>2015-11-07T14:04:38Z</time>
      </trkpt>
      <trkpt lat="48.77602" lon="-3.52483">
        <ele>37</ele>
        <time>2015-11-07T14:04:40Z</time>
      </trkpt>
      <trkpt lat="48.7761" lon="-3.52495">
        <ele>36</ele>
        <time>2015-11-07T14:04:41Z</time>
      </trkpt>
      <trkpt lat="48.77617" lon="-3.52508">
        <ele>36</ele>
        <time>2015-11-07T14:04:42Z</time>
      </trkpt>
      <trkpt lat="48.77623" lon="-3.5252">
        <ele>36</ele>
        <time>2015-11-07T14:04:43Z</time>
      </trkpt>
      <trkpt lat="48.7763" lon="-3.52533">
        <ele>35</ele>
        <time>2015-11-07T14:04:44Z</time>
      </trkpt>
      <trkpt lat="48.77637" lon="-3.52545">
        <ele>35</ele>
        <time>2015-11-07T14:04:45Z</time>
      </trkpt>
      <trkpt lat="48.77645" lon="-3.52557">
        <ele>35</ele>
        <time>2015-11-07T14:04:46Z</time>
      </trkpt>
      <trkpt lat="48.77653" lon="-3.5257">
        <ele>34</ele>
        <time>2015-11-07T14:04:47Z</time>
      </trkpt>
      <trkpt lat="48.77661" lon="-3.52581">
        <ele>34</ele>
        <time>2015-11-07T14:04:48Z</time>
      </trkpt>
      <trkpt lat="48.77669" lon="-3.52593">
        <ele>33</ele>
        <time>2015-11-07T14:04:49Z</time>
      </trkpt>
      <trkpt lat="48.77677" lon="-3.52604">
        <ele>33</ele>
        <time>2015-11-07T14:04:50Z</time>
      </trkpt>
      <trkpt lat="48.77686" lon="-3.52615">
        <ele>33</ele>
        <time>2015-11-07T14:04:51Z</time>
      </trkpt>
      <trkpt lat="48.77695" lon="-3.52624">
        <ele>33</ele>
        <time>2015-11-07T14:04:52Z</time>
      </trkpt>
      <trkpt lat="48.77704" lon="-3.52634">
        <ele>32</ele>
        <time>2015-11-07T14:04:53Z</time>
      </trkpt>
      <trkpt lat="48.77713" lon="-3.52643">
        <ele>32</ele>
        <time>2015-11-07T14:04:54Z</time>
      </trkpt>
      <trkpt lat="48.77722" lon="-3.52652">
        <ele>32</ele>
        <time>2015-11-07T14:04:55Z</time>
      </trkpt>
      <trkpt lat="48.77799" lon="-3.52715">
        <ele>31</ele>
        <time>2015-11-07T14:05:03Z</time>
      </trkpt>
      <trkpt lat="48.77841" lon="-3.52736">
        <ele>30</ele>
        <time>2015-11-07T14:05:07Z</time>
      </trkpt>
      <trkpt lat="48.77851" lon="-3.5274">
        <ele>29</ele>
        <time>2015-11-07T14:05:08Z</time>
      </trkpt>
      <trkpt lat="48.77862" lon="-3.52744">
        <ele>29</ele>
        <time>2015-11-07T14:05:09Z</time>
      </trkpt>
      <trkpt lat="48.77871" lon="-3.52748">
        <ele>28</ele>
        <time>2015-11-07T14:05:10Z</time>
      </trkpt>
      <trkpt lat="48.77881" lon="-3.52753">
        <ele>28</ele>
        <time>2015-11-07T14:05:11Z</time>
      </trkpt>
      <trkpt lat="48.7789" lon="-3.52757">
        <ele>27</ele>
        <time>2015-11-07T14:05:12Z</time>
      </trkpt>
      <trkpt lat="48.779" lon="-3.52761">
        <ele>27</ele>
        <time>2015-11-07T14:05:13Z</time>
      </trkpt>
      <trkpt lat="48.77909" lon="-3.52765">
        <ele>26</ele>
        <time>2015-11-07T14:05:14Z</time>
      </trkpt>
      <trkpt lat="48.77918" lon="-3.5277">
        <ele>25</ele>
        <time>2015-11-07T14:05:15Z</time>
      </trkpt>
      <trkpt lat="48.77926" lon="-3.52774">
        <ele>25</ele>
        <time>2015-11-07T14:05:16Z</time>
      </trkpt>
      <trkpt lat="48.77943" lon="-3.52783">
        <ele>24</ele>
        <time>2015-11-07T14:05:18Z</time>
      </trkpt>
      <trkpt lat="48.77959" lon="-3.52792">
        <ele>23</ele>
        <time>2015-11-07T14:05:20Z</time>
      </trkpt>
      <trkpt lat="48.77975" lon="-3.528">
        <ele>22</ele>
        <time>2015-11-07T14:05:22Z</time>
      </trkpt>
      <trkpt lat="48.77991" lon="-3.52808">
        <ele>21</ele>
        <time>2015-11-07T14:05:24Z</time>
      </trkpt>
      <trkpt lat="48.78006" lon="-3.52816">
        <ele>20</ele>
        <time>2015-11-07T14:05:26Z</time>
      </trkpt>
      <trkpt lat="48.78027" lon="-3.52826">
        <ele>19</ele>
        <time>2015-11-07T14:05:29Z</time>
      </trkpt>
      <trkpt lat="48.78047" lon="-3.52836">
        <ele>17</ele>
        <time>2015-11-07T14:05:32Z</time>
      </trkpt>
      <trkpt lat="48.78085" lon="-3.52837">
        <ele>16</ele>
        <time>2015-11-07T14:05:38Z</time>
      </trkpt>
      <trkpt lat="48.78103" lon="-3.52814">
        <ele>15</ele>
        <time>2015-11-07T14:05:41Z</time>
      </trkpt>
      <trkpt lat="48.78114" lon="-3.52794">
        <ele>14</ele>
        <time>2015-11-07T14:05:44Z</time>
      </trkpt>
      <trkpt lat="48.78123" lon="-3.52773">
        <ele>13</ele>
        <time>2015-11-07T14:05:45Z</time>
      </trkpt>
      <trkpt lat="48.78131" lon="-3.52752">
        <ele>12</ele>
        <time>2015-11-07T14:05:47Z</time>
      </trkpt>
      <trkpt lat="48.78138" lon="-3.52732">
        <ele>11</ele>
        <time>2015-11-07T14:05:49Z</time>
      </trkpt>
      <trkpt lat="48.78148" lon="-3.52703">
        <ele>9</ele>
        <time>2015-11-07T14:05:52Z</time>
      </trkpt>
      <trkpt lat="48.78154" lon="-3.52684">
        <ele>8</ele>
        <time>2015-11-07T14:05:54Z</time>
      </trkpt>
      <trkpt lat="48.78158" lon="-3.52667">
        <ele>7</ele>
        <time>2015-11-07T14:05:56Z</time>
      </trkpt>
      <trkpt lat="48.78162" lon="-3.5265">
        <ele>6</ele>
        <time>2015-11-07T14:05:58Z</time>
      </trkpt>
      <trkpt lat="48.78166" lon="-3.52634">
        <ele>5</ele>
        <time>2015-11-07T14:06:00Z</time>
      </trkpt>
      <trkpt lat="48.78171" lon="-3.5261">
        <ele>4</ele>
        <time>2015-11-07T14:06:03Z</time>
      </trkpt>
      <trkpt lat="48.78176" lon="-3.52587">
        <ele>3</ele>
        <time>2015-11-07T14:06:06Z</time>
      </trkpt>
      <trkpt lat="48.78181" lon="-3.52564">
        <ele>3</ele>
        <time>2015-11-07T14:06:09Z</time>
      </trkpt>
      <trkpt lat="48.78184" lon="-3.52549">
        <ele>2</ele>
        <time>2015-11-07T14:06:11Z</time>
      </trkpt>
      <trkpt lat="48.78189" lon="-3.52526">
        <ele>1</ele>
        <time>2015-11-07T14:06:14Z</time>
      </trkpt>
      <trkpt lat="48.78195" lon="-3.52503">
        <ele>1</ele>
        <time>2015-11-07T14:06:17Z</time>
      </trkpt>
      <trkpt lat="48.782" lon="-3.5248">
        <ele>42</ele>
        <time>2015-11-07T14:06:20Z</time>
      </trkpt>
      <trkpt lat="48.78204" lon="-3.52465">
        <ele>42.1</ele>
        <time>2015-11-07T14:06:22Z</time>
      </trkpt>
      <trkpt lat="48.78208" lon="-3.5245">
        <ele>42</ele>
        <time>2015-11-07T14:06:24Z</time>
      </trkpt>
      <trkpt lat="48.78212" lon="-3.52434">
        <ele>-1</ele>
        <time>2015-11-07T14:06:26Z</time>
      </trkpt>
      <trkpt lat="48.78216" lon="-3.52417">
        <ele>-1</ele>
        <time>2015-11-07T14:06:28Z</time>
      </trkpt>
      <trkpt lat="48.78222" lon="-3.52388">
        <ele>-1</ele>
        <time>2015-11-07T14:06:31Z</time>
      </trkpt>
      <trkpt lat="48.78227" lon="-3.52356">
        <ele>-2</ele>
        <time>2015-11-07T14:06:34Z</time>
      </trkpt>
      <trkpt lat="48.78231" lon="-3.52333">
        <ele>-2</ele>
        <time>2015-11-07T14:06:36Z</time>
      </trkpt>
      <trkpt lat="48.78234" lon="-3.52309">
        <ele>-2</ele>
        <time>2015-11-07T14:06:38Z</time>
      </trkpt>
      <trkpt lat="48.78236" lon="-3.52283">
        <ele>-2</ele>
        <time>2015-11-07T14:06:40Z</time>
      </trkpt>
      <trkpt lat="48.78238" lon="-3.52255">
        <ele>-2</ele>
        <time>2015-11-07T14:06:42Z</time>
      </trkpt>
      <trkpt lat="48.78239" lon="-3.52241">
        <ele>-2</ele>
        <time>2015-11-07T14:06:43Z</time>
      </trkpt>
      <trkpt lat="48.78241" lon="-3.522">
        <ele>-2</ele>
        <time>2015-11-07T14:06:46Z</time>
      </trkpt>
      <trkpt lat="48.78241" lon="-3.52186">
        <ele>-2</ele>
        <time>2015-11-07T14:06:47Z</time>
      </trkpt>
      <trkpt lat="48.78243" lon="-3.52171">
        <ele>-2</ele>
        <time>2015-11-07T14:06:48Z</time>
      </trkpt>
      <trkpt lat="48.78245" lon="-3.52156">
        <ele>-3</ele>
        <time>2015-11-07T14:06:49Z</time>
      </trkpt>
      <trkpt lat="48.78247" lon="-3.52142">
        <ele>-3</ele>
        <time>2015-11-07T14:06:50Z</time>
      </trkpt>
      <trkpt lat="48.7825" lon="-3.52127">
        <ele>-3</ele>
        <time>2015-11-07T14:06:51Z</time>
      </trkpt>
      <trkpt lat="48.78254" lon="-3.52113">
        <ele>-3</ele>
        <time>2015-11-07T14:06:52Z</time>
      </trkpt>
      <trkpt lat="48.78264" lon="-3.5209">
        <ele>-3</ele>
        <time>2015-11-07T14:06:54Z</time>
      </trkpt>
      <trkpt lat="48.78275" lon="-3.52071">
        <ele>-4</ele>
        <time>2015-11-07T14:06:56Z</time>
      </trkpt>
      <trkpt lat="48.78291" lon="-3.52048">
        <ele>-4</ele>
        <time>2015-11-07T14:06:59Z</time>
      </trkpt>
      <trkpt lat="48.78303" lon="-3.52032">
        <ele>-5</ele>
        <time>2015-11-07T14:07:02Z</time>
      </trkpt>
      <trkpt lat="48.78314" lon="-3.52018">
        <ele>-6</ele>
        <time>2015-11-07T14:07:06Z</time>
      </trkpt>
      <trkpt lat="48.78321" lon="-3.52009">
        <ele>-6</ele>
        <time>2015-11-07T14:07:09Z</time>
      </trkpt>
      <trkpt lat="48.78333" lon="-3.51994">
        <ele>-7</ele>
        <time>2015-11-07T14:07:17Z</time>
      </trkpt>
      <trkpt lat="48.78346" lon="-3.51981">
        <ele>-8</ele>
        <time>2015-11-07T14:07:26Z</time>
      </trkpt>
      <trkpt lat="48.78357" lon="-3.51971">
        <ele>-8</ele>
        <time>2015-11-07T14:07:34Z</time>
      </trkpt>
      <trkpt lat="48.78364" lon="-3.51964">
        <ele>-8</ele>
        <time>2015-11-07T14:07:39Z</time>
      </trkpt>
      <trkpt lat="48.78372" lon="-3.51954">
        <ele>-8</ele>
        <time>2015-11-07T14:07:45Z</time>
      </trkpt>
      <trkpt lat="48.78381" lon="-3.51946">
        <ele>-8</ele>
        <time>2015-11-07T14:07:51Z</time>
      </trkpt>
      <trkpt lat="48.78394" lon="-3.51934">
        <ele>-7</ele>
        <time>2015-11-07T14:08:00Z</time>
      </trkpt>
      <trkpt lat="48.78403" lon="-3.51926">
        <ele>-7</ele>
        <time>2015-11-07T14:08:06Z</time>
      </trkpt>
      <trkpt lat="48.78411" lon="-3.51919">
        <ele>-7</ele>
        <time>2015-11-07T14:08:12Z</time>
      </trkpt>
      <trkpt lat="48.78425" lon="-3.51909">
        <ele>-6</ele>
        <time>2015-11-07T14:08:21Z</time>
      </trkpt>
      <trkpt lat="48.78433" lon="-3.51904">
        <ele>-6</ele>
        <time>2015-11-07T14:08:26Z</time>
      </trkpt>
      <trkpt lat="48.78444" lon="-3.51897">
        <ele>-5</ele>
        <time>2015-11-07T14:08:32Z</time>
      </trkpt>
      <trkpt lat="48.78461" lon="-3.51891">
        <ele>-4</ele>
        <time>2015-11-07T14:08:40Z</time>
      </trkpt>
      <trkpt lat="48.78477" lon="-3.5189">
        <ele>-4</ele>
        <time>2015-11-07T14:08:47Z</time>
      </trkpt>
      <trkpt lat="48.78489" lon="-3.51891">
        <ele>-3</ele>
        <time>2015-11-07T14:08:50Z</time>
      </trkpt>
      <trkpt lat="48.785" lon="-3.51892">
        <ele>-2</ele>
        <time>2015-11-07T14:08:53Z</time>
      </trkpt>
      <trkpt lat="48.78513" lon="-3.51893">
        <ele>-2</ele>
        <time>2015-11-07T14:08:57Z</time>
      </trkpt>
      <trkpt lat="48.78531" lon="-3.51898">
        <ele>-2</ele>
        <time>2015-11-07T14:09:02Z</time>
      </trkpt>
      <trkpt lat="48.78544" lon="-3.51904">
        <ele>-2</ele>
        <time>2015-11-07T14:09:05Z</time>
      </trkpt>
      <trkpt lat="48.78552" lon="-3.51909">
        <ele>-2</ele>
        <time>2015-11-07T14:09:07Z</time>
      </trkpt>
      <trkpt lat="48.78562" lon="-3.51916">
        <ele>-3</ele>
        <time>2015-11-07T14:09:09Z</time>
      </trkpt>
      <trkpt lat="48.78571" lon="-3.51924">
        <ele>-3</ele>
        <time>2015-11-07T14:09:11Z</time>
      </trkpt>
      <trkpt lat="48.7858" lon="-3.51932">
        <ele>-3</ele>
        <time>2015-11-07T14:09:13Z</time>
      </trkpt>
      <trkpt lat="48.78594" lon="-3.51945">
        <ele>-4</ele>
        <time>2015-11-07T14:09:16Z</time>
      </trkpt>
      <trkpt lat="48.78608" lon="-3.51958">
        <ele>-4</ele>
        <time>2015-11-07T14:09:19Z</time>
      </trkpt>
      <trkpt lat="48.78622" lon="-3.51971">
        <ele>-4</ele>
        <time>2015-11-07T14:09:22Z</time>
      </trkpt>
      <trkpt lat="48.78632" lon="-3.5198">
        <ele>-4</ele>
        <time>2015-11-07T14:09:24Z</time>
      </trkpt>
      <trkpt lat="48.78642" lon="-3.51989">
        <ele>-5</ele>
        <time>2015-11-07T14:09:26Z</time>
      </trkpt>
      <trkpt lat="48.78651" lon="-3.51998">
        <ele>-5</ele>
        <time>2015-11-07T14:09:28Z</time>
      </trkpt>
      <trkpt lat="48.78666" lon="-3.52011">
        <ele>-5</ele>
        <time>2015-11-07T14:09:31Z</time>
      </trkpt>
      <trkpt lat="48.78681" lon="-3.52025">
        <ele>-5</ele>
        <time>2015-11-07T14:09:34Z</time>
      </trkpt>
      <trkpt lat="48.78697" lon="-3.52026">
        <ele>-5</ele>
        <time>2015-11-07T14:09:37Z</time>
      </trkpt>
      <trkpt lat="48.78707" lon="-3.52017">
        <ele>-5</ele>
        <time>2015-11-07T14:09:40Z</time>
      </trkpt>
      <trkpt lat="48.78703" lon="-3.52015">
        <ele>1</ele>
        <time>2015-11-07T14:15:26Z</time>
      </trkpt>
      <trkpt lat="48.78699" lon="-3.52037">
        <ele>2</ele>
        <time>2015-11-07T14:16:11Z</time>
      </trkpt>
      <trkpt lat="48.78714" lon="-3.52053">
        <ele>2</ele>
        <time>2015-11-07T14:16:17Z</time>
      </trkpt>
      <trkpt lat="48.78742" lon="-3.52063">
        <ele>2</ele>
        <time>2015-11-07T14:16:24Z</time>
      </trkpt>
      <trkpt lat="48.78787" lon="-3.52045">
        <ele>43.9</ele>
        <time>2015-11-07T14:16:35Z</time>
      </trkpt>
      <trkpt lat="48.7883" lon="-3.52021">
        <ele>43</ele>
        <time>2015-11-07T14:16:43Z</time>
      </trkpt>
      <trkpt lat="48.78919" lon="-3.52032">
        <ele>-1</ele>
        <time>2015-11-07T14:16:54Z</time>
      </trkpt>
      <trkpt lat="48.78941" lon="-3.52037">
        <ele>-3</ele>
        <time>2015-11-07T14:16:57Z</time>
      </trkpt>
      <trkpt lat="48.78971" lon="-3.52046">
        <ele>-3</ele>
        <time>2015-11-07T14:17:01Z</time>
      </trkpt>
      <trkpt lat="48.78986" lon="-3.5205">
        <ele>-4</ele>
        <time>2015-11-07T14:17:03Z</time>
      </trkpt>
      <trkpt lat="48.79001" lon="-3.52056">
        <ele>-5</ele>
        <time>2015-11-07T14:17:05Z</time>
      </trkpt>
      <trkpt lat="48.79023" lon="-3.52064">
        <ele>-5</ele>
        <time>2015-11-07T14:17:08Z</time>
      </trkpt>
      <trkpt lat="48.79205" lon="-3.52125">
        <ele>37.5</ele>
        <time>2015-11-07T14:17:38Z</time>
      </trkpt>
      <trkpt lat="48.79292" lon="-3.52146">
        <ele>-10</ele>
        <time>2015-11-07T14:17:54Z</time>
      </trkpt>
      <trkpt lat="48.7942" lon="-3.52169">
        <ele>-12</ele>
        <time>2015-11-07T14:18:13Z</time>
      </trkpt>
      <trkpt lat="48.79437" lon="-3.5218">
        <ele>-14</ele>
        <time>2015-11-07T14:18:15Z</time>
      </trkpt>
      <trkpt lat="48.79452" lon="-3.52191">
        <ele>-15</ele>
        <time>2015-11-07T14:18:17Z</time>
      </trkpt>
      <trkpt lat="48.7947" lon="-3.52206">
        <ele>-16</ele>
        <time>2015-11-07T14:18:20Z</time>
      </trkpt>
      <trkpt lat="48.79486" lon="-3.52219">
        <ele>-17</ele>
        <time>2015-11-07T14:18:23Z</time>
      </trkpt>
      <trkpt lat="48.79509" lon="-3.52238">
        <ele>-18</ele>
        <time>2015-11-07T14:18:28Z</time>
      </trkpt>
      <trkpt lat="48.79526" lon="-3.52247">
        <ele>-19</ele>
        <time>2015-11-07T14:18:32Z</time>
      </trkpt>
      <trkpt lat="48.79544" lon="-3.52255">
        <ele>-20</ele>
        <time>2015-11-07T14:18:36Z</time>
      </trkpt>
      <trkpt lat="48.79571" lon="-3.52259">
        <ele>-20</ele>
        <time>2015-11-07T14:18:43Z</time>
      </trkpt>
      <trkpt lat="48.79589" lon="-3.52264">
        <ele>-21</ele>
        <time>2015-11-07T14:18:49Z</time>
      </trkpt>
      <trkpt lat="48.79607" lon="-3.52272">
        <ele>-22</ele>
        <time>2015-11-07T14:18:53Z</time>
      </trkpt>
      <trkpt lat="48.79623" lon="-3.52278">
        <ele>-22</ele>
        <time>2015-11-07T14:18:56Z</time>
      </trkpt>
      <trkpt lat="48.79639" lon="-3.52278">
        <ele>-23</ele>
        <time>2015-11-07T14:18:59Z</time>
      </trkpt>
      <trkpt lat="48.79702" lon="-3.52253">
        <ele>-23</ele>
        <time>2015-11-07T14:19:09Z</time>
      </trkpt>
      <trkpt lat="48.79722" lon="-3.52257">
        <ele>-23</ele>
        <time>2015-11-07T14:19:11Z</time>
      </trkpt>
      <trkpt lat="48.79744" lon="-3.5226">
        <ele>-23</ele>
        <time>2015-11-07T14:19:13Z</time>
      </trkpt>
      <trkpt lat="48.79764" lon="-3.52262">
        <ele>-24</ele>
        <time>2015-11-07T14:19:15Z</time>
      </trkpt>
      <trkpt lat="48.79783" lon="-3.52263">
        <ele>-24</ele>
        <time>2015-11-07T14:19:17Z</time>
      </trkpt>
      <trkpt lat="48.79792" lon="-3.52263">
        <ele>-24</ele>
        <time>2015-11-07T14:19:18Z</time>
      </trkpt>
      <trkpt lat="48.798" lon="-3.52264">
        <ele>-24</ele>
        <time>2015-11-07T14:19:19Z</time>
      </trkpt>
      <trkpt lat="48.79816" lon="-3.52263">
        <ele>-25</ele>
        <time>2015-11-07T14:19:21Z</time>
      </trkpt>
      <trkpt lat="48.79832" lon="-3.52261">
        <ele>-25</ele>
        <time>2015-11-07T14:19:23Z</time>
      </trkpt>
      <trkpt lat="48.79853" lon="-3.52258">
        <ele>-25</ele>
        <time>2015-11-07T14:19:26Z</time>
      </trkpt>
      <trkpt lat="48.7987" lon="-3.52256">
        <ele>-25</ele>
        <time>2015-11-07T14:19:30Z</time>
      </trkpt>
      <trkpt lat="48.79887" lon="-3.52259">
        <ele>-25</ele>
        <time>2015-11-07T14:19:33Z</time>
      </trkpt>
      <trkpt lat="48.79907" lon="-3.52261">
        <ele>-25</ele>
        <time>2015-11-07T14:19:38Z</time>
      </trkpt>
      <trkpt lat="48.79922" lon="-3.52261">
        <ele>-26</ele>
        <time>2015-11-07T14:19:42Z</time>
      </trkpt>
      <trkpt lat="48.79938" lon="-3.52262">
        <ele>-26</ele>
        <time>2015-11-07T14:19:46Z</time>
      </trkpt>
      <trkpt lat="48.79947" lon="-3.52263">
        <ele>-26</ele>
        <time>2015-11-07T14:19:48Z</time>
      </trkpt>
      <trkpt lat="48.79965" lon="-3.52263">
        <ele>-25</ele>
        <time>2015-11-07T14:19:52Z</time>
      </trkpt>
      <trkpt lat="48.79984" lon="-3.52263">
        <ele>-25</ele>
        <time>2015-11-07T14:19:56Z</time>
      </trkpt>
      <trkpt lat="48.80019" lon="-3.52265">
        <ele>-25</ele>
        <time>2015-11-07T14:20:03Z</time>
      </trkpt>
      <trkpt lat="48.80039" lon="-3.52267">
        <ele>-25</ele>
        <time>2015-11-07T14:20:07Z</time>
      </trkpt>
      <trkpt lat="48.80054" lon="-3.52268">
        <ele>-25</ele>
        <time>2015-11-07T14:20:10Z</time>
      </trkpt>
      <trkpt lat="48.8007" lon="-3.52268">
        <ele>-24</ele>
        <time>2015-11-07T14:20:13Z</time>
      </trkpt>
      <trkpt lat="48.80094" lon="-3.52269">
        <ele>-24</ele>
        <time>2015-11-07T14:20:19Z</time>
      </trkpt>
      <trkpt lat="48.80112" lon="-3.52265">
        <ele>-24</ele>
        <time>2015-11-07T14:20:24Z</time>
      </trkpt>
      <trkpt lat="48.80131" lon="-3.5226">
        <ele>-24</ele>
        <time>2015-11-07T14:20:29Z</time>
      </trkpt>
      <trkpt lat="48.80148" lon="-3.52258">
        <ele>-24</ele>
        <time>2015-11-07T14:20:33Z</time>
      </trkpt>
      <trkpt lat="48.80163" lon="-3.52256">
        <ele>-23</ele>
        <time>2015-11-07T14:20:36Z</time>
      </trkpt>
      <trkpt lat="48.80241" lon="-3.52249">
        <ele>-22</ele>
        <time>2015-11-07T14:20:52Z</time>
      </trkpt>
      <trkpt lat="48.80257" lon="-3.52251">
        <ele>-22</ele>
        <time>2015-11-07T14:20:55Z</time>
      </trkpt>
      <trkpt lat="48.80272" lon="-3.52254">
        <ele>-21</ele>
        <time>2015-11-07T14:20:58Z</time>
      </trkpt>
      <trkpt lat="48.80291" lon="-3.52259">
        <ele>-21</ele>
        <time>2015-11-07T14:21:02Z</time>
      </trkpt>
      <trkpt lat="48.80309" lon="-3.52268">
        <ele>-20</ele>
        <time>2015-11-07T14:21:06Z</time>
      </trkpt>
      <trkpt lat="48.80327" lon="-3.52296">
        <ele>-19</ele>
        <time>2015-11-07T14:21:12Z</time>
      </trkpt>
      <trkpt lat="48.80338" lon="-3.52319">
        <ele>-18</ele>
        <time>2015-11-07T14:21:16Z</time>
      </trkpt>
      <trkpt lat="48.80345" lon="-3.5233">
        <ele>-18</ele>
        <time>2015-11-07T14:21:18Z</time>
      </trkpt>
      <trkpt lat="48.80351" lon="-3.52339">
        <ele>-17</ele>
        <time>2015-11-07T14:21:20Z</time>
      </trkpt>
      <trkpt lat="48.80364" lon="-3.52356">
        <ele>-17</ele>
        <time>2015-11-07T14:21:24Z</time>
      </trkpt>
      <trkpt lat="48.80378" lon="-3.52369">
        <ele>-16</ele>
        <time>2015-11-07T14:21:28Z</time>
      </trkpt>
      <trkpt lat="48.80393" lon="-3.52387">
        <ele>-16</ele>
        <time>2015-11-07T14:21:32Z</time>
      </trkpt>
      <trkpt lat="48.80404" lon="-3.52404">
        <ele>-16</ele>
        <time>2015-11-07T14:21:35Z</time>
      </trkpt>
      <trkpt lat="48.80418" lon="-3.52436">
        <ele>-16</ele>
        <time>2015-11-07T14:21:40Z</time>
      </trkpt>
      <trkpt lat="48.80427" lon="-3.52457">
        <ele>-16</ele>
        <time>2015-11-07T14:21:43Z</time>
      </trkpt>
      <trkpt lat="48.80433" lon="-3.5247">
        <ele>-16</ele>
        <time>2015-11-07T14:21:45Z</time>
      </trkpt>
      <trkpt lat="48.80443" lon="-3.52488">
        <ele>-16</ele>
        <time>2015-11-07T14:21:48Z</time>
      </trkpt>
      <trkpt lat="48.80458" lon="-3.52508">
        <ele>-16</ele>
        <time>2015-11-07T14:21:52Z</time>
      </trkpt>
      <trkpt lat="48.80513" lon="-3.52589">
        <ele>-16</ele>
        <time>2015-11-07T14:22:07Z</time>
      </trkpt>
      <trkpt lat="48.8053" lon="-3.52607">
        <ele>-17</ele>
        <time>2015-11-07T14:22:10Z</time>
      </trkpt>
      <trkpt lat="48.80549" lon="-3.52621">
        <ele>-18</ele>
        <time>2015-11-07T14:22:13Z</time>
      </trkpt>
      <trkpt lat="48.80567" lon="-3.52611">
        <ele>-18</ele>
        <time>2015-11-07T14:22:17Z</time>
      </trkpt>
      <trkpt lat="48.80574" lon="-3.5259">
        <ele>-19</ele>
        <time>2015-11-07T14:22:22Z</time>
      </trkpt>
      <trkpt lat="48.80578" lon="-3.52576">
        <ele>-20</ele>
        <time>2015-11-07T14:22:26Z</time>
      </trkpt>
      <trkpt lat="48.80589" lon="-3.52576">
        <ele>-20</ele>
        <time>2015-11-07T14:22:30Z</time>
      </trkpt>
      <trkpt lat="48.80606" lon="-3.52588">
        <ele>-19</ele>
        <time>2015-11-07T14:22:35Z</time>
      </trkpt>
      <trkpt lat="48.80616" lon="-3.52594">
        <ele>-19</ele>
        <time>2015-11-07T14:22:38Z</time>
      </trkpt>
      <trkpt lat="48.80629" lon="-3.526">
        <ele>-19</ele>
        <time>2015-11-07T14:22:42Z</time>
      </trkpt>
      <trkpt lat="48.80639" lon="-3.52606">
        <ele>-19</ele>
        <time>2015-11-07T14:22:45Z</time>
      </trkpt>
      <trkpt lat="48.80654" lon="-3.52615">
        <ele>-18</ele>
        <time>2015-11-07T14:22:49Z</time>
      </trkpt>
      <trkpt lat="48.80666" lon="-3.52621">
        <ele>-18</ele>
        <time>2015-11-07T14:22:52Z</time>
      </trkpt>
      <trkpt lat="48.80682" lon="-3.5263">
        <ele>-17</ele>
        <time>2015-11-07T14:22:56Z</time>
      </trkpt>
      <trkpt lat="48.80698" lon="-3.5264">
        <ele>-17</ele>
        <time>2015-11-07T14:22:59Z</time>
      </trkpt>
      <trkpt lat="48.80709" lon="-3.52648">
        <ele>-17</ele>
        <time>2015-11-07T14:23:01Z</time>
      </trkpt>
      <trkpt lat="48.80727" lon="-3.52662">
        <ele>-16</ele>
        <time>2015-11-07T14:23:04Z</time>
      </trkpt>
      <trkpt lat="48.80738" lon="-3.52673">
        <ele>-16</ele>
        <time>2015-11-07T14:23:06Z</time>
      </trkpt>
      <trkpt lat="48.80747" lon="-3.52684">
        <ele>-16</ele>
        <time>2015-11-07T14:23:08Z</time>
      </trkpt>
      <trkpt lat="48.80756" lon="-3.52695">
        <ele>-16</ele>
        <time>2015-11-07T14:23:10Z</time>
      </trkpt>
      <trkpt lat="48.80765" lon="-3.52705">
        <ele>-16</ele>
        <time>2015-11-07T14:23:12Z</time>
      </trkpt>
      <trkpt lat="48.80773" lon="-3.52716">
        <ele>-16</ele>
        <time>2015-11-07T14:23:14Z</time>
      </trkpt>
      <trkpt lat="48.80792" lon="-3.52722">
        <ele>-16</ele>
        <time>2015-11-07T14:23:18Z</time>
      </trkpt>
      <trkpt lat="48.80802" lon="-3.52716">
        <ele>-16</ele>
        <time>2015-11-07T14:23:20Z</time>
      </trkpt>
      <trkpt lat="48.80812" lon="-3.52708">
        <ele>-16</ele>
        <time>2015-11-07T14:23:22Z</time>
      </trkpt>
      <trkpt lat="48.80828" lon="-3.52686">
        <ele>-17</ele>
        <time>2015-11-07T14:23:25Z</time>
      </trkpt>
      <trkpt lat="48.80836" lon="-3.52662">
        <ele>-17</ele>
        <time>2015-11-07T14:23:27Z</time>
      </trkpt>
      <trkpt lat="48.80839" lon="-3.52649">
        <ele>-17</ele>
        <time>2015-11-07T14:23:28Z</time>
      </trkpt>
      <trkpt lat="48.80842" lon="-3.52636">
        <ele>-17</ele>
        <time>2015-11-07T14:23:29Z</time>
      </trkpt>
      <trkpt lat="48.80846" lon="-3.52623">
        <ele>-17</ele>
        <time>2015-11-07T14:23:30Z</time>
      </trkpt>
      <trkpt lat="48.80851" lon="-3.52612">
        <ele>-18</ele>
        <time>2015-11-07T14:23:31Z</time>
      </trkpt>
      <trkpt lat="48.8086" lon="-3.52603">
        <ele>-18</ele>
        <time>2015-11-07T14:23:32Z</time>
      </trkpt>
      <trkpt lat="48.8088" lon="-3.52586">
        <ele>-18</ele>
        <time>2015-11-07T14:23:34Z</time>
      </trkpt>
      <trkpt lat="48.80891" lon="-3.52578">
        <ele>-18</ele>
        <time>2015-11-07T14:23:35Z</time>
      </trkpt>
      <trkpt lat="48.80902" lon="-3.52571">
        <ele>-18</ele>
        <time>2015-11-07T14:23:36Z</time>
      </trkpt>
      <trkpt lat="48.80913" lon="-3.52564">
        <ele>-19</ele>
        <time>2015-11-07T14:23:37Z</time>
      </trkpt>
      <trkpt lat="48.80923" lon="-3.52557">
        <ele>-19</ele>
        <time>2015-11-07T14:23:38Z</time>
      </trkpt>
      <trkpt lat="48.80933" lon="-3.5255">
        <ele>-19</ele>
        <time>2015-11-07T14:23:39Z</time>
      </trkpt>
      <trkpt lat="48.80943" lon="-3.52543">
        <ele>-19</ele>
        <time>2015-11-07T14:23:40Z</time>
      </trkpt>
      <trkpt lat="48.80953" lon="-3.52536">
        <ele>-20</ele>
        <time>2015-11-07T14:23:41Z</time>
      </trkpt>
      <trkpt lat="48.80963" lon="-3.52534">
        <ele>-20</ele>
        <time>2015-11-07T14:23:42Z</time>
      </trkpt>
      <trkpt lat="48.80973" lon="-3.52533">
        <ele>-20</ele>
        <time>2015-11-07T14:23:43Z</time>
      </trkpt>
      <trkpt lat="48.80982" lon="-3.52534">
        <ele>-20</ele>
        <time>2015-11-07T14:23:44Z</time>
      </trkpt>
      <trkpt lat="48.80992" lon="-3.52536">
        <ele>-21</ele>
        <time>2015-11-07T14:23:45Z</time>
      </trkpt>
      <trkpt lat="48.81001" lon="-3.52537">
        <ele>-21</ele>
        <time>2015-11-07T14:23:46Z</time>
      </trkpt>
      <trkpt lat="48.8101" lon="-3.52538">
        <ele>-21</ele>
        <time>2015-11-07T14:23:47Z</time>
      </trkpt>
      <trkpt lat="48.81027" lon="-3.52537">
        <ele>-21</ele>
        <time>2015-11-07T14:23:49Z</time>
      </trkpt>
      <trkpt lat="48.81043" lon="-3.52524">
        <ele>-22</ele>
        <time>2015-11-07T14:23:52Z</time>
      </trkpt>
      <trkpt lat="48.81047" lon="-3.52495">
        <ele>-22</ele>
        <time>2015-11-07T14:23:56Z</time>
      </trkpt>
      <trkpt lat="48.81047" lon="-3.52471">
        <ele>-23</ele>
        <time>2015-11-07T14:24:00Z</time>
      </trkpt>
      <trkpt lat="48.81048" lon="-3.52445">
        <ele>-24</ele>
        <time>2015-11-07T14:24:06Z</time>
      </trkpt>
      <trkpt lat="48.81049" lon="-3.52426">
        <ele>-25</ele>
        <time>2015-11-07T14:24:12Z</time>
      </trkpt>
      <trkpt lat="48.8105" lon="-3.52412">
        <ele>-26</ele>
        <time>2015-11-07T14:24:17Z</time>
      </trkpt>
      <trkpt lat="48.81051" lon="-3.52396">
        <ele>-27</ele>
        <time>2015-11-07T14:24:22Z</time>
      </trkpt>
      <trkpt lat="48.81056" lon="-3.52368">
        <ele>-28</ele>
        <time>2015-11-07T14:24:29Z</time>
      </trkpt>
      <trkpt lat="48.81063" lon="-3.52344">
        <ele>-29</ele>
        <time>2015-11-07T14:24:36Z</time>
      </trkpt>
      <trkpt lat="48.81071" lon="-3.52313">
        <ele>-30</ele>
        <time>2015-11-07T14:24:45Z</time>
      </trkpt>
      <trkpt lat="48.81072" lon="-3.52288">
        <ele>-30</ele>
        <time>2015-11-07T14:24:51Z</time>
      </trkpt>
      <trkpt lat="48.81083" lon="-3.52193">
        <ele>-31</ele>
        <time>2015-11-07T14:25:13Z</time>
      </trkpt>
      <trkpt lat="48.81089" lon="-3.52163">
        <ele>-31</ele>
        <time>2015-11-07T14:25:20Z</time>
      </trkpt>
      <trkpt lat="48.81091" lon="-3.52136">
        <ele>-31</ele>
        <time>2015-11-07T14:25:25Z</time>
      </trkpt>
      <trkpt lat="48.81096" lon="-3.52082">
        <ele>-30</ele>
        <time>2015-11-07T14:25:34Z</time>
      </trkpt>
      <trkpt lat="48.81098" lon="-3.52051">
        <ele>-30</ele>
        <time>2015-11-07T14:25:39Z</time>
      </trkpt>
      <trkpt lat="48.81096" lon="-3.52027">
        <ele>-29</ele>
        <time>2015-11-07T14:25:43Z</time>
      </trkpt>
      <trkpt lat="48.81095" lon="-3.52004">
        <ele>-28</ele>
        <time>2015-11-07T14:25:47Z</time>
      </trkpt>
      <trkpt lat="48.81117" lon="-3.51985">
        <ele>-27</ele>
        <time>2015-11-07T14:25:54Z</time>
      </trkpt>
      <trkpt lat="48.81164" lon="-3.51966">
        <ele>-27</ele>
        <time>2015-11-07T14:26:00Z</time>
      </trkpt>
      <trkpt lat="48.81175" lon="-3.5196">
        <ele>-27</ele>
        <time>2015-11-07T14:26:01Z</time>
      </trkpt>
      <trkpt lat="48.81185" lon="-3.51954">
        <ele>-27</ele>
        <time>2015-11-07T14:26:02Z</time>
      </trkpt>
      <trkpt lat="48.81279" lon="-3.51909">
        <ele>-26</ele>
        <time>2015-11-07T14:26:12Z</time>
      </trkpt>
      <trkpt lat="48.81296" lon="-3.51901">
        <ele>-26</ele>
        <time>2015-11-07T14:26:14Z</time>
      </trkpt>
      <trkpt lat="48.81313" lon="-3.51892">
        <ele>-26</ele>
        <time>2015-11-07T14:26:16Z</time>
      </trkpt>
      <trkpt lat="48.81329" lon="-3.51883">
        <ele>-26</ele>
        <time>2015-11-07T14:26:18Z</time>
      </trkpt>
      <trkpt lat="48.81344" lon="-3.51874">
        <ele>-26</ele>
        <time>2015-11-07T14:26:20Z</time>
      </trkpt>
      <trkpt lat="48.81359" lon="-3.51865">
        <ele>-26</ele>
        <time>2015-11-07T14:26:22Z</time>
      </trkpt>
      <trkpt lat="48.81374" lon="-3.51854">
        <ele>-27</ele>
        <time>2015-11-07T14:26:24Z</time>
      </trkpt>
      <trkpt lat="48.81389" lon="-3.51844">
        <ele>-27</ele>
        <time>2015-11-07T14:26:26Z</time>
      </trkpt>
      <trkpt lat="48.81403" lon="-3.51832">
        <ele>-27</ele>
        <time>2015-11-07T14:26:28Z</time>
      </trkpt>
      <trkpt lat="48.8141" lon="-3.51826">
        <ele>-28</ele>
        <time>2015-11-07T14:26:29Z</time>
      </trkpt>
      <trkpt lat="48.81417" lon="-3.5182">
        <ele>-28</ele>
        <time>2015-11-07T14:26:30Z</time>
      </trkpt>
      <trkpt lat="48.81431" lon="-3.51805">
        <ele>-28</ele>
        <time>2015-11-07T14:26:32Z</time>
      </trkpt>
      <trkpt lat="48.81438" lon="-3.51798">
        <ele>-28</ele>
        <time>2015-11-07T14:26:33Z</time>
      </trkpt>
      <trkpt lat="48.81444" lon="-3.51791">
        <ele>-28</ele>
        <time>2015-11-07T14:26:34Z</time>
      </trkpt>
      <trkpt lat="48.81457" lon="-3.51776">
        <ele>-29</ele>
        <time>2015-11-07T14:26:36Z</time>
      </trkpt>
      <trkpt lat="48.8147" lon="-3.51761">
        <ele>-29</ele>
        <time>2015-11-07T14:26:38Z</time>
      </trkpt>
      <trkpt lat="48.81481" lon="-3.51745">
        <ele>-29</ele>
        <time>2015-11-07T14:26:40Z</time>
      </trkpt>
      <trkpt lat="48.81504" lon="-3.51714">
        <ele>-29</ele>
        <time>2015-11-07T14:26:44Z</time>
      </trkpt>
      <trkpt lat="48.81532" lon="-3.51673">
        <ele>-30</ele>
        <time>2015-11-07T14:26:49Z</time>
      </trkpt>
      <trkpt lat="48.81554" lon="-3.51641">
        <ele>-30</ele>
        <time>2015-11-07T14:26:53Z</time>
      </trkpt>
      <trkpt lat="48.81577" lon="-3.51611">
        <ele>-31</ele>
        <time>2015-11-07T14:26:57Z</time>
      </trkpt>
      <trkpt lat="48.81595" lon="-3.51591">
        <ele>-31</ele>
        <time>2015-11-07T14:27:00Z</time>
      </trkpt>
      <trkpt lat="48.81613" lon="-3.51575">
        <ele>-32</ele>
        <time>2015-11-07T14:27:03Z</time>
      </trkpt>
      <trkpt lat="48.8163" lon="-3.51563">
        <ele>-32</ele>
        <time>2015-11-07T14:27:06Z</time>
      </trkpt>
      <trkpt lat="48.81646" lon="-3.51555">
        <ele>-32</ele>
        <time>2015-11-07T14:27:09Z</time>
      </trkpt>
      <trkpt lat="48.81662" lon="-3.51545">
        <ele>-33</ele>
        <time>2015-11-07T14:27:12Z</time>
      </trkpt>
      <trkpt lat="48.81677" lon="-3.5153">
        <ele>-33</ele>
        <time>2015-11-07T14:27:15Z</time>
      </trkpt>
      <trkpt lat="48.81693" lon="-3.51516">
        <ele>-33</ele>
        <time>2015-11-07T14:27:18Z</time>
      </trkpt>
      <trkpt lat="48.81709" lon="-3.51502">
        <ele>-34</ele>
        <time>2015-11-07T14:27:21Z</time>
      </trkpt>
      <trkpt lat="48.81723" lon="-3.51485">
        <ele>-34</ele>
        <time>2015-11-07T14:27:24Z</time>
      </trkpt>
      <trkpt lat="48.8173" lon="-3.51464">
        <ele>-34</ele>
        <time>2015-11-07T14:27:27Z</time>
      </trkpt>
      <trkpt lat="48.81733" lon="-3.51439">
        <ele>-34</ele>
        <time>2015-11-07T14:27:30Z</time>
      </trkpt>
      <trkpt lat="48.81736" lon="-3.51409">
        <ele>-34</ele>
        <time>2015-11-07T14:27:33Z</time>
      </trkpt>
      <trkpt lat="48.81737" lon="-3.51388">
        <ele>-34</ele>
        <time>2015-11-07T14:27:35Z</time>
      </trkpt>
      <trkpt lat="48.81742" lon="-3.51357">
        <ele>-34</ele>
        <time>2015-11-07T14:27:38Z</time>
      </trkpt>
      <trkpt lat="48.81747" lon="-3.51328">
        <ele>-34</ele>
        <time>2015-11-07T14:27:41Z</time>
      </trkpt>
      <trkpt lat="48.8175" lon="-3.51299">
        <ele>-33</ele>
        <time>2015-11-07T14:27:44Z</time>
      </trkpt>
      <trkpt lat="48.8175" lon="-3.5127">
        <ele>-33</ele>
        <time>2015-11-07T14:27:47Z</time>
      </trkpt>
      <trkpt lat="48.81748" lon="-3.51241">
        <ele>-33</ele>
        <time>2015-11-07T14:27:50Z</time>
      </trkpt>
      <trkpt lat="48.81746" lon="-3.51213">
        <ele>-33</ele>
        <time>2015-11-07T14:27:53Z</time>
      </trkpt>
      <trkpt lat="48.81745" lon="-3.51185">
        <ele>-33</ele>
        <time>2015-11-07T14:27:57Z</time>
      </trkpt>
      <trkpt lat="48.81747" lon="-3.51157">
        <ele>-33</ele>
        <time>2015-11-07T14:27:59Z</time>
      </trkpt>
      <trkpt lat="48.8175" lon="-3.51138">
        <ele>-33</ele>
        <time>2015-11-07T14:28:01Z</time>
      </trkpt>
      <trkpt lat="48.81758" lon="-3.51112">
        <ele>-33</ele>
        <time>2015-11-07T14:28:04Z</time>
      </trkpt>
      <trkpt lat="48.81769" lon="-3.51088">
        <ele>-33</ele>
        <time>2015-11-07T14:28:07Z</time>
      </trkpt>
      <trkpt lat="48.81776" lon="-3.51072">
        <ele>-33</ele>
        <time>2015-11-07T14:28:09Z</time>
      </trkpt>
      <trkpt lat="48.81785" lon="-3.51046">
        <ele>-34</ele>
        <time>2015-11-07T14:28:12Z</time>
      </trkpt>
      <trkpt lat="48.81789" lon="-3.51017">
        <ele>-34</ele>
        <time>2015-11-07T14:28:15Z</time>
      </trkpt>
      <trkpt lat="48.81792" lon="-3.50988">
        <ele>-34</ele>
        <time>2015-11-07T14:28:18Z</time>
      </trkpt>
      <trkpt lat="48.81795" lon="-3.5095">
        <ele>-34</ele>
        <time>2015-11-07T14:28:22Z</time>
      </trkpt>
      <trkpt lat="48.81797" lon="-3.50922">
        <ele>-35</ele>
        <time>2015-11-07T14:28:25Z</time>
      </trkpt>
      <trkpt lat="48.818" lon="-3.50895">
        <ele>-35</ele>
        <time>2015-11-07T14:28:28Z</time>
      </trkpt>
      <trkpt lat="48.81803" lon="-3.50868">
        <ele>-35</ele>
        <time>2015-11-07T14:28:31Z</time>
      </trkpt>
      <trkpt lat="48.81802" lon="-3.50842">
        <ele>-35</ele>
        <time>2015-11-07T14:28:34Z</time>
      </trkpt>
      <trkpt lat="48.81805" lon="-3.50818">
        <ele>-36</ele>
        <time>2015-11-07T14:28:37Z</time>
      </trkpt>
      <trkpt lat="48.81809" lon="-3.50775">
        <ele>-36</ele>
        <time>2015-11-07T14:28:43Z</time>
      </trkpt>
      <trkpt lat="48.81813" lon="-3.50751">
        <ele>-36</ele>
        <time>2015-11-07T14:28:49Z</time>
      </trkpt>
      <trkpt lat="48.81816" lon="-3.50724">
        <ele>-37</ele>
        <time>2015-11-07T14:28:54Z</time>
      </trkpt>
      <trkpt lat="48.81821" lon="-3.50686">
        <ele>-37</ele>
        <time>2015-11-07T14:28:59Z</time>
      </trkpt>
      <trkpt lat="48.81827" lon="-3.50643">
        <ele>-37</ele>
        <time>2015-11-07T14:29:05Z</time>
      </trkpt>
      <trkpt lat="48.81831" lon="-3.50607">
        <ele>-38</ele>
        <time>2015-11-07T14:29:10Z</time>
      </trkpt>
      <trkpt lat="48.81832" lon="-3.50582">
        <ele>-38</ele>
        <time>2015-11-07T14:29:14Z</time>
      </trkpt>
      <trkpt lat="48.81843" lon="-3.5057">
        <ele>-39</ele>
        <time>2015-11-07T14:29:24Z</time>
      </trkpt>
      <trkpt lat="48.81855" lon="-3.50579">
        <ele>-39</ele>
        <time>2015-11-07T14:29:27Z</time>
      </trkpt>
      <trkpt lat="48.81874" lon="-3.50591">
        <ele>-39</ele>
        <time>2015-11-07T14:29:31Z</time>
      </trkpt>
      <trkpt lat="48.81888" lon="-3.50598">
        <ele>-39</ele>
        <time>2015-11-07T14:29:34Z</time>
      </trkpt>
      <trkpt lat="48.81903" lon="-3.50603">
        <ele>-39</ele>
        <time>2015-11-07T14:29:37Z</time>
      </trkpt>
      <trkpt lat="48.81914" lon="-3.50604">
        <ele>-39</ele>
        <time>2015-11-07T14:29:39Z</time>
      </trkpt>
      <trkpt lat="48.81925" lon="-3.50606">
        <ele>-39</ele>
        <time>2015-11-07T14:29:41Z</time>
      </trkpt>
      <trkpt lat="48.81936" lon="-3.50608">
        <ele>-39</ele>
        <time>2015-11-07T14:29:43Z</time>
      </trkpt>
      <trkpt lat="48.81953" lon="-3.50607">
        <ele>-39</ele>
        <time>2015-11-07T14:29:46Z</time>
      </trkpt>
      <trkpt lat="48.81972" lon="-3.5061">
        <ele>-39</ele>
        <time>2015-11-07T14:29:49Z</time>
      </trkpt>
      <trkpt lat="48.8199" lon="-3.50618">
        <ele>-40</ele>
        <time>2015-11-07T14:29:52Z</time>
      </trkpt>
      <trkpt lat="48.82006" lon="-3.5063">
        <ele>-40</ele>
        <time>2015-11-07T14:29:55Z</time>
      </trkpt>
      <trkpt lat="48.82015" lon="-3.50639">
        <ele>-40</ele>
        <time>2015-11-07T14:29:57Z</time>
      </trkpt>
      <trkpt lat="48.82024" lon="-3.50648">
        <ele>-40</ele>
        <time>2015-11-07T14:29:59Z</time>
      </trkpt>
      <trkpt lat="48.82033" lon="-3.50658">
        <ele>-40</ele>
        <time>2015-11-07T14:30:01Z</time>
      </trkpt>
      <trkpt lat="48.82042" lon="-3.50669">
        <ele>-40</ele>
        <time>2015-11-07T14:30:03Z</time>
      </trkpt>
      <trkpt lat="48.82051" lon="-3.5068">
        <ele>-40</ele>
        <time>2015-11-07T14:30:05Z</time>
      </trkpt>
      <trkpt lat="48.8206" lon="-3.50691">
        <ele>-40</ele>
        <time>2015-11-07T14:30:07Z</time>
      </trkpt>
      <trkpt lat="48.8207" lon="-3.507">
        <ele>-40</ele>
        <time>2015-11-07T14:30:09Z</time>
      </trkpt>
      <trkpt lat="48.82085" lon="-3.50711">
        <ele>-39</ele>
        <time>2015-11-07T14:30:12Z</time>
      </trkpt>
      <trkpt lat="48.821" lon="-3.50721">
        <ele>-39</ele>
        <time>2015-11-07T14:30:15Z</time>
      </trkpt>
      <trkpt lat="48.82114" lon="-3.5073">
        <ele>-39</ele>
        <time>2015-11-07T14:30:18Z</time>
      </trkpt>
      <trkpt lat="48.82133" lon="-3.50739">
        <ele>-39</ele>
        <time>2015-11-07T14:30:22Z</time>
      </trkpt>
      <trkpt lat="48.82153" lon="-3.50743">
        <ele>-39</ele>
        <time>2015-11-07T14:30:26Z</time>
      </trkpt>
      <trkpt lat="48.82166" lon="-3.50723">
        <ele>-38</ele>
        <time>2015-11-07T14:30:30Z</time>
      </trkpt>
      <trkpt lat="48.82177" lon="-3.50698">
        <ele>-39</ele>
        <time>2015-11-07T14:30:34Z</time>
      </trkpt>
      <trkpt lat="48.82187" lon="-3.50673">
        <ele>-39</ele>
        <time>2015-11-07T14:30:38Z</time>
      </trkpt>
      <trkpt lat="48.82194" lon="-3.50654">
        <ele>-39</ele>
        <time>2015-11-07T14:30:41Z</time>
      </trkpt>
      <trkpt lat="48.82198" lon="-3.50639">
        <ele>-39</ele>
        <time>2015-11-07T14:30:43Z</time>
      </trkpt>
      <trkpt lat="48.82205" lon="-3.50617">
        <ele>-40</ele>
        <time>2015-11-07T14:30:46Z</time>
      </trkpt>
      <trkpt lat="48.82214" lon="-3.50588">
        <ele>-40</ele>
        <time>2015-11-07T14:30:49Z</time>
      </trkpt>
      <trkpt lat="48.82222" lon="-3.50556">
        <ele>-40</ele>
        <time>2015-11-07T14:30:52Z</time>
      </trkpt>
      <trkpt lat="48.82227" lon="-3.50535">
        <ele>-40</ele>
        <time>2015-11-07T14:30:54Z</time>
      </trkpt>
      <trkpt lat="48.82234" lon="-3.50513">
        <ele>-40</ele>
        <time>2015-11-07T14:30:56Z</time>
      </trkpt>
      <trkpt lat="48.8224" lon="-3.50491">
        <ele>-40</ele>
        <time>2015-11-07T14:30:58Z</time>
      </trkpt>
      <trkpt lat="48.82246" lon="-3.50467">
        <ele>-40</ele>
        <time>2015-11-07T14:31:00Z</time>
      </trkpt>
      <trkpt lat="48.82251" lon="-3.50444">
        <ele>-40</ele>
        <time>2015-11-07T14:31:02Z</time>
      </trkpt>
      <trkpt lat="48.82256" lon="-3.5042">
        <ele>-40</ele>
        <time>2015-11-07T14:31:04Z</time>
      </trkpt>
      <trkpt lat="48.82261" lon="-3.50396">
        <ele>-40</ele>
        <time>2015-11-07T14:31:06Z</time>
      </trkpt>
      <trkpt lat="48.82266" lon="-3.50372">
        <ele>-40</ele>
        <time>2015-11-07T14:31:08Z</time>
      </trkpt>
      <trkpt lat="48.8227" lon="-3.50346">
        <ele>-40</ele>
        <time>2015-11-07T14:31:11Z</time>
      </trkpt>
      <trkpt lat="48.82271" lon="-3.50328">
        <ele>-40</ele>
        <time>2015-11-07T14:31:14Z</time>
      </trkpt>
      <trkpt lat="48.82269" lon="-3.50305">
        <ele>-40</ele>
        <time>2015-11-07T14:31:18Z</time>
      </trkpt>
      <trkpt lat="48.82267" lon="-3.50277">
        <ele>-40</ele>
        <time>2015-11-07T14:31:22Z</time>
      </trkpt>
      <trkpt lat="48.82265" lon="-3.5025">
        <ele>-40</ele>
        <time>2015-11-07T14:31:26Z</time>
      </trkpt>
      <trkpt lat="48.82263" lon="-3.5022">
        <ele>-40</ele>
        <time>2015-11-07T14:31:30Z</time>
      </trkpt>
      <trkpt lat="48.82262" lon="-3.50196">
        <ele>-40</ele>
        <time>2015-11-07T14:31:33Z</time>
      </trkpt>
      <trkpt lat="48.82262" lon="-3.5017">
        <ele>-40</ele>
        <time>2015-11-07T14:31:36Z</time>
      </trkpt>
      <trkpt lat="48.82263" lon="-3.50134">
        <ele>-40</ele>
        <time>2015-11-07T14:31:40Z</time>
      </trkpt>
      <trkpt lat="48.82263" lon="-3.501">
        <ele>-40</ele>
        <time>2015-11-07T14:31:44Z</time>
      </trkpt>
      <trkpt lat="48.82263" lon="-3.50086">
        <ele>-40</ele>
        <time>2015-11-07T14:31:46Z</time>
      </trkpt>
      <trkpt lat="48.82276" lon="-3.50068">
        <ele>-40</ele>
        <time>2015-11-07T14:31:51Z</time>
      </trkpt>
      <trkpt lat="48.82284" lon="-3.50064">
        <ele>-40</ele>
        <time>2015-11-07T14:31:53Z</time>
      </trkpt>
      <trkpt lat="48.82293" lon="-3.50061">
        <ele>-40</ele>
        <time>2015-11-07T14:31:55Z</time>
      </trkpt>
      <trkpt lat="48.82304" lon="-3.50057">
        <ele>-41</ele>
        <time>2015-11-07T14:31:57Z</time>
      </trkpt>
      <trkpt lat="48.82315" lon="-3.50053">
        <ele>-41</ele>
        <time>2015-11-07T14:31:59Z</time>
      </trkpt>
      <trkpt lat="48.82351" lon="-3.50039">
        <ele>-41</ele>
        <time>2015-11-07T14:32:07Z</time>
      </trkpt>
      <trkpt lat="48.82365" lon="-3.50022">
        <ele>-41</ele>
        <time>2015-11-07T14:32:11Z</time>
      </trkpt>
      <trkpt lat="48.8237" lon="-3.49999">
        <ele>-41</ele>
        <time>2015-11-07T14:32:14Z</time>
      </trkpt>
      <trkpt lat="48.82375" lon="-3.49972">
        <ele>-41</ele>
        <time>2015-11-07T14:32:17Z</time>
      </trkpt>
      <trkpt lat="48.82379" lon="-3.49944">
        <ele>-42</ele>
        <time>2015-11-07T14:32:20Z</time>
      </trkpt>
      <trkpt lat="48.82384" lon="-3.49917">
        <ele>-42</ele>
        <time>2015-11-07T14:32:23Z</time>
      </trkpt>
      <trkpt lat="48.82389" lon="-3.4989">
        <ele>-42</ele>
        <time>2015-11-07T14:32:26Z</time>
      </trkpt>
      <trkpt lat="48.82395" lon="-3.49861">
        <ele>-42</ele>
        <time>2015-11-07T14:32:29Z</time>
      </trkpt>
      <trkpt lat="48.82401" lon="-3.49832">
        <ele>-43</ele>
        <time>2015-11-07T14:32:32Z</time>
      </trkpt>
      <trkpt lat="48.82406" lon="-3.49803">
        <ele>-43</ele>
        <time>2015-11-07T14:32:35Z</time>
      </trkpt>
      <trkpt lat="48.82408" lon="-3.49774">
        <ele>-43</ele>
        <time>2015-11-07T14:32:38Z</time>
      </trkpt>
      <trkpt lat="48.82414" lon="-3.49748">
        <ele>-43</ele>
        <time>2015-11-07T14:32:41Z</time>
      </trkpt>
      <trkpt lat="48.82421" lon="-3.4972">
        <ele>-43</ele>
        <time>2015-11-07T14:32:44Z</time>
      </trkpt>
      <trkpt lat="48.82428" lon="-3.4969">
        <ele>-43</ele>
        <time>2015-11-07T14:32:48Z</time>
      </trkpt>
      <trkpt lat="48.82433" lon="-3.4966">
        <ele>-42</ele>
        <time>2015-11-07T14:32:50Z</time>
      </trkpt>
      <trkpt lat="48.8244" lon="-3.49621">
        <ele>-42</ele>
        <time>2015-11-07T14:32:54Z</time>
      </trkpt>
      <trkpt lat="48.82445" lon="-3.49592">
        <ele>-42</ele>
        <time>2015-11-07T14:32:57Z</time>
      </trkpt>
      <trkpt lat="48.8245" lon="-3.49564">
        <ele>-42</ele>
        <time>2015-11-07T14:33:00Z</time>
      </trkpt>
      <trkpt lat="48.82456" lon="-3.49535">
        <ele>-42</ele>
        <time>2015-11-07T14:33:03Z</time>
      </trkpt>
      <trkpt lat="48.82461" lon="-3.49507">
        <ele>-42</ele>
        <time>2015-11-07T14:33:06Z</time>
      </trkpt>
      <trkpt lat="48.82467" lon="-3.4948">
        <ele>-42</ele>
        <time>2015-11-07T14:33:09Z</time>
      </trkpt>
      <trkpt lat="48.82477" lon="-3.49444">
        <ele>-42</ele>
        <time>2015-11-07T14:33:13Z</time>
      </trkpt>
      <trkpt lat="48.82485" lon="-3.49417">
        <ele>-42</ele>
        <time>2015-11-07T14:33:16Z</time>
      </trkpt>
      <trkpt lat="48.82493" lon="-3.49391">
        <ele>-42</ele>
        <time>2015-11-07T14:33:19Z</time>
      </trkpt>
      <trkpt lat="48.82501" lon="-3.49365">
        <ele>-42</ele>
        <time>2015-11-07T14:33:22Z</time>
      </trkpt>
      <trkpt lat="48.82507" lon="-3.49348">
        <ele>-42</ele>
        <time>2015-11-07T14:33:24Z</time>
      </trkpt>
      <trkpt lat="48.82513" lon="-3.49332">
        <ele>-42</ele>
        <time>2015-11-07T14:33:26Z</time>
      </trkpt>
      <trkpt lat="48.82522" lon="-3.49307">
        <ele>-42</ele>
        <time>2015-11-07T14:33:29Z</time>
      </trkpt>
      <trkpt lat="48.8253" lon="-3.49281">
        <ele>-42</ele>
        <time>2015-11-07T14:33:32Z</time>
      </trkpt>
      <trkpt lat="48.82539" lon="-3.49253">
        <ele>-42</ele>
        <time>2015-11-07T14:33:35Z</time>
      </trkpt>
      <trkpt lat="48.82547" lon="-3.49225">
        <ele>-42</ele>
        <time>2015-11-07T14:33:38Z</time>
      </trkpt>
      <trkpt lat="48.82553" lon="-3.49206">
        <ele>-42</ele>
        <time>2015-11-07T14:33:40Z</time>
      </trkpt>
      <trkpt lat="48.82561" lon="-3.49176">
        <ele>-42</ele>
        <time>2015-11-07T14:33:43Z</time>
      </trkpt>
      <trkpt lat="48.82567" lon="-3.49143">
        <ele>-42</ele>
        <time>2015-11-07T14:33:46Z</time>
      </trkpt>
      <trkpt lat="48.82569" lon="-3.4911">
        <ele>-42</ele>
        <time>2015-11-07T14:33:49Z</time>
      </trkpt>
      <trkpt lat="48.82568" lon="-3.49077">
        <ele>-43</ele>
        <time>2015-11-07T14:33:52Z</time>
      </trkpt>
      <trkpt lat="48.82565" lon="-3.49054">
        <ele>-43</ele>
        <time>2015-11-07T14:33:54Z</time>
      </trkpt>
      <trkpt lat="48.8256" lon="-3.49032">
        <ele>-43</ele>
        <time>2015-11-07T14:33:56Z</time>
      </trkpt>
      <trkpt lat="48.82552" lon="-3.48999">
        <ele>-43</ele>
        <time>2015-11-07T14:33:59Z</time>
      </trkpt>
      <trkpt lat="48.82547" lon="-3.48979">
        <ele>-43</ele>
        <time>2015-11-07T14:34:01Z</time>
      </trkpt>
      <trkpt lat="48.82539" lon="-3.48952">
        <ele>-43</ele>
        <time>2015-11-07T14:34:04Z</time>
      </trkpt>
      <trkpt lat="48.82534" lon="-3.48935">
        <ele>-43</ele>
        <time>2015-11-07T14:34:06Z</time>
      </trkpt>
      <trkpt lat="48.82528" lon="-3.48913">
        <ele>-43</ele>
        <time>2015-11-07T14:34:09Z</time>
      </trkpt>
      <trkpt lat="48.82524" lon="-3.48901">
        <ele>-42</ele>
        <time>2015-11-07T14:34:11Z</time>
      </trkpt>
      <trkpt lat="48.82515" lon="-3.48879">
        <ele>-42</ele>
        <time>2015-11-07T14:34:16Z</time>
      </trkpt>
      <trkpt lat="48.82506" lon="-3.48849">
        <ele>-42</ele>
        <time>2015-11-07T14:34:23Z</time>
      </trkpt>
      <trkpt lat="48.82501" lon="-3.48827">
        <ele>-42</ele>
        <time>2015-11-07T14:34:28Z</time>
      </trkpt>
      <trkpt lat="48.82494" lon="-3.48804">
        <ele>-42</ele>
        <time>2015-11-07T14:34:33Z</time>
      </trkpt>
      <trkpt lat="48.82482" lon="-3.4879">
        <ele>-42</ele>
        <time>2015-11-07T14:34:38Z</time>
      </trkpt>
      <trkpt lat="48.82467" lon="-3.48799">
        <ele>-42</ele>
        <time>2015-11-07T14:34:44Z</time>
      </trkpt>
      <trkpt lat="48.82457" lon="-3.48811">
        <ele>-42</ele>
        <time>2015-11-07T14:34:49Z</time>
      </trkpt>
      <trkpt lat="48.82443" lon="-3.48829">
        <ele>-42</ele>
        <time>2015-11-07T14:34:55Z</time>
      </trkpt>
      <trkpt lat="48.8243" lon="-3.48846">
        <ele>-42</ele>
        <time>2015-11-07T14:35:00Z</time>
      </trkpt>
      <trkpt lat="48.82416" lon="-3.48858">
        <ele>-42</ele>
        <time>2015-11-07T14:35:04Z</time>
      </trkpt>
      <trkpt lat="48.82399" lon="-3.48863">
        <ele>-42</ele>
        <time>2015-11-07T14:35:08Z</time>
      </trkpt>
      <trkpt lat="48.82378" lon="-3.48867">
        <ele>-42</ele>
        <time>2015-11-07T14:35:12Z</time>
      </trkpt>
      <trkpt lat="48.82359" lon="-3.4887">
        <ele>-42</ele>
        <time>2015-11-07T14:35:15Z</time>
      </trkpt>
      <trkpt lat="48.82342" lon="-3.48871">
        <ele>-41</ele>
        <time>2015-11-07T14:35:18Z</time>
      </trkpt>
      <trkpt lat="48.82327" lon="-3.4887">
        <ele>-41</ele>
        <time>2015-11-07T14:35:22Z</time>
      </trkpt>
      <trkpt lat="48.82318" lon="-3.48871">
        <ele>-41</ele>
        <time>2015-11-07T14:35:25Z</time>
      </trkpt>
      <trkpt lat="48.82309" lon="-3.48872">
        <ele>-41</ele>
        <time>2015-11-07T14:35:28Z</time>
      </trkpt>
      <trkpt lat="48.82291" lon="-3.48873">
        <ele>-40</ele>
        <time>2015-11-07T14:35:35Z</time>
      </trkpt>
      <trkpt lat="48.82282" lon="-3.48873">
        <ele>-39</ele>
        <time>2015-11-07T14:35:39Z</time>
      </trkpt>
      <trkpt lat="48.82265" lon="-3.48873">
        <ele>-38</ele>
        <time>2015-11-07T14:35:46Z</time>
      </trkpt>
      <trkpt lat="48.82254" lon="-3.4887">
        <ele>-38</ele>
        <time>2015-11-07T14:35:51Z</time>
      </trkpt>
      <trkpt lat="48.82238" lon="-3.48868">
        <ele>-37</ele>
        <time>2015-11-07T14:35:58Z</time>
      </trkpt>
      <trkpt lat="48.82228" lon="-3.48868">
        <ele>-36</ele>
        <time>2015-11-07T14:36:03Z</time>
      </trkpt>
      <trkpt lat="48.82217" lon="-3.48873">
        <ele>-36</ele>
        <time>2015-11-07T14:36:09Z</time>
      </trkpt>
      <trkpt lat="48.82208" lon="-3.48881">
        <ele>-35</ele>
        <time>2015-11-07T14:36:14Z</time>
      </trkpt>
      <trkpt lat="48.82202" lon="-3.48892">
        <ele>-34</ele>
        <time>2015-11-07T14:36:19Z</time>
      </trkpt>
      <trkpt lat="48.82194" lon="-3.48914">
        <ele>-33</ele>
        <time>2015-11-07T14:36:27Z</time>
      </trkpt>
      <trkpt lat="48.82183" lon="-3.48936">
        <ele>-33</ele>
        <time>2015-11-07T14:36:37Z</time>
      </trkpt>
      <trkpt lat="48.82167" lon="-3.48947">
        <ele>-32</ele>
        <time>2015-11-07T14:36:45Z</time>
      </trkpt>
      <trkpt lat="48.8215" lon="-3.48949">
        <ele>-32</ele>
        <time>2015-11-07T14:36:51Z</time>
      </trkpt>
      <trkpt lat="48.82138" lon="-3.48948">
        <ele>-31</ele>
        <time>2015-11-07T14:36:55Z</time>
      </trkpt>
      <trkpt lat="48.82128" lon="-3.48948">
        <ele>-30</ele>
        <time>2015-11-07T14:36:58Z</time>
      </trkpt>
      <trkpt lat="48.82113" lon="-3.48948">
        <ele>-30</ele>
        <time>2015-11-07T14:37:03Z</time>
      </trkpt>
      <trkpt lat="48.82095" lon="-3.4895">
        <ele>-29</ele>
        <time>2015-11-07T14:37:09Z</time>
      </trkpt>
      <trkpt lat="48.82079" lon="-3.48952">
        <ele>-28</ele>
        <time>2015-11-07T14:37:15Z</time>
      </trkpt>
      <trkpt lat="48.82065" lon="-3.4895">
        <ele>-28</ele>
        <time>2015-11-07T14:37:20Z</time>
      </trkpt>
      <trkpt lat="48.82056" lon="-3.48948">
        <ele>-27</ele>
        <time>2015-11-07T14:37:24Z</time>
      </trkpt>
      <trkpt lat="48.82044" lon="-3.48943">
        <ele>-26</ele>
        <time>2015-11-07T14:37:30Z</time>
      </trkpt>
      <trkpt lat="48.82031" lon="-3.48935">
        <ele>-25</ele>
        <time>2015-11-07T14:37:37Z</time>
      </trkpt>
      <trkpt lat="48.82022" lon="-3.4893">
        <ele>-24</ele>
        <time>2015-11-07T14:37:43Z</time>
      </trkpt>
      <trkpt lat="48.82014" lon="-3.48926">
        <ele>-23</ele>
        <time>2015-11-07T14:37:48Z</time>
      </trkpt>
      <trkpt lat="48.81998" lon="-3.48922">
        <ele>-23</ele>
        <time>2015-11-07T14:37:56Z</time>
      </trkpt>
      <trkpt lat="48.81987" lon="-3.4892">
        <ele>-22</ele>
        <time>2015-11-07T14:38:01Z</time>
      </trkpt>
      <trkpt lat="48.81972" lon="-3.48916">
        <ele>-22</ele>
        <time>2015-11-07T14:38:08Z</time>
      </trkpt>
      <trkpt lat="48.81956" lon="-3.48908">
        <ele>-21</ele>
        <time>2015-11-07T14:38:15Z</time>
      </trkpt>
      <trkpt lat="48.81946" lon="-3.48903">
        <ele>-20</ele>
        <time>2015-11-07T14:38:19Z</time>
      </trkpt>
      <trkpt lat="48.81929" lon="-3.48898">
        <ele>-19</ele>
        <time>2015-11-07T14:38:25Z</time>
      </trkpt>
      <trkpt lat="48.81921" lon="-3.48897">
        <ele>-19</ele>
        <time>2015-11-07T14:38:28Z</time>
      </trkpt>
      <trkpt lat="48.81903" lon="-3.48895">
        <ele>-18</ele>
        <time>2015-11-07T14:38:34Z</time>
      </trkpt>
      <trkpt lat="48.81894" lon="-3.48894">
        <ele>-18</ele>
        <time>2015-11-07T14:38:37Z</time>
      </trkpt>
      <trkpt lat="48.81886" lon="-3.48893">
        <ele>-17</ele>
        <time>2015-11-07T14:38:40Z</time>
      </trkpt>
      <trkpt lat="48.81869" lon="-3.48892">
        <ele>-17</ele>
        <time>2015-11-07T14:38:46Z</time>
      </trkpt>
      <trkpt lat="48.81858" lon="-3.48892">
        <ele>-16</ele>
        <time>2015-11-07T14:38:50Z</time>
      </trkpt>
      <trkpt lat="48.81842" lon="-3.48891">
        <ele>-15</ele>
        <time>2015-11-07T14:38:56Z</time>
      </trkpt>
      <trkpt lat="48.8183" lon="-3.48891">
        <ele>-15</ele>
        <time>2015-11-07T14:39:00Z</time>
      </trkpt>
      <trkpt lat="48.8182" lon="-3.48892">
        <ele>-15</ele>
        <time>2015-11-07T14:39:03Z</time>
      </trkpt>
      <trkpt lat="48.81811" lon="-3.48894">
        <ele>-14</ele>
        <time>2015-11-07T14:39:06Z</time>
      </trkpt>
      <trkpt lat="48.81795" lon="-3.48899">
        <ele>-14</ele>
        <time>2015-11-07T14:39:11Z</time>
      </trkpt>
      <trkpt lat="48.81778" lon="-3.48907">
        <ele>-13</ele>
        <time>2015-11-07T14:39:17Z</time>
      </trkpt>
      <trkpt lat="48.8176" lon="-3.48912">
        <ele>-13</ele>
        <time>2015-11-07T14:39:23Z</time>
      </trkpt>
      <trkpt lat="48.81743" lon="-3.48916">
        <ele>-12</ele>
        <time>2015-11-07T14:39:28Z</time>
      </trkpt>
      <trkpt lat="48.81727" lon="-3.48916">
        <ele>-11</ele>
        <time>2015-11-07T14:39:32Z</time>
      </trkpt>
      <trkpt lat="48.81711" lon="-3.48912">
        <ele>-11</ele>
        <time>2015-11-07T14:39:36Z</time>
      </trkpt>
      <trkpt lat="48.81693" lon="-3.48906">
        <ele>-10</ele>
        <time>2015-11-07T14:39:41Z</time>
      </trkpt>
      <trkpt lat="48.81683" lon="-3.48902">
        <ele>-10</ele>
        <time>2015-11-07T14:39:44Z</time>
      </trkpt>
      <trkpt lat="48.81673" lon="-3.48897">
        <ele>-9</ele>
        <time>2015-11-07T14:39:47Z</time>
      </trkpt>
      <trkpt lat="48.81663" lon="-3.48892">
        <ele>-9</ele>
        <time>2015-11-07T14:39:50Z</time>
      </trkpt>
      <trkpt lat="48.81654" lon="-3.4889">
        <ele>-8</ele>
        <time>2015-11-07T14:39:53Z</time>
      </trkpt>
      <trkpt lat="48.81645" lon="-3.48889">
        <ele>-8</ele>
        <time>2015-11-07T14:39:56Z</time>
      </trkpt>
      <trkpt lat="48.81629" lon="-3.48889">
        <ele>-7</ele>
        <time>2015-11-07T14:40:02Z</time>
      </trkpt>
      <trkpt lat="48.81616" lon="-3.48889">
        <ele>-7</ele>
        <time>2015-11-07T14:40:07Z</time>
      </trkpt>
      <trkpt lat="48.81606" lon="-3.48887">
        <ele>-6</ele>
        <time>2015-11-07T14:40:11Z</time>
      </trkpt>
      <trkpt lat="48.81595" lon="-3.48886">
        <ele>-5</ele>
        <time>2015-11-07T14:40:15Z</time>
      </trkpt>
      <trkpt lat="48.8158" lon="-3.48885">
        <ele>-5</ele>
        <time>2015-11-07T14:40:21Z</time>
      </trkpt>
      <trkpt lat="48.8156" lon="-3.48884">
        <ele>-5</ele>
        <time>2015-11-07T14:40:28Z</time>
      </trkpt>
      <trkpt lat="48.81543" lon="-3.48883">
        <ele>-4</ele>
        <time>2015-11-07T14:40:32Z</time>
      </trkpt>
      <trkpt lat="48.81526" lon="-3.48883">
        <ele>-4</ele>
        <time>2015-11-07T14:40:36Z</time>
      </trkpt>
      <trkpt lat="48.81514" lon="-3.48883">
        <ele>-4</ele>
        <time>2015-11-07T14:40:39Z</time>
      </trkpt>
      <trkpt lat="48.81499" lon="-3.48882">
        <ele>-4</ele>
        <time>2015-11-07T14:40:43Z</time>
      </trkpt>
      <trkpt lat="48.81481" lon="-3.48879">
        <ele>-3</ele>
        <time>2015-11-07T14:40:48Z</time>
      </trkpt>
      <trkpt lat="48.81471" lon="-3.48876">
        <ele>-3</ele>
        <time>2015-11-07T14:40:51Z</time>
      </trkpt>
      <trkpt lat="48.81454" lon="-3.48872">
        <ele>-3</ele>
        <time>2015-11-07T14:40:57Z</time>
      </trkpt>
      <trkpt lat="48.81438" lon="-3.48875">
        <ele>-2</ele>
        <time>2015-11-07T14:41:03Z</time>
      </trkpt>
      <trkpt lat="48.8142" lon="-3.48877">
        <ele>-1</ele>
        <time>2015-11-07T14:41:10Z</time>
      </trkpt>
      <trkpt lat="48.81405" lon="-3.48877">
        <ele>-1</ele>
        <time>2015-11-07T14:41:16Z</time>
      </trkpt>
      <trkpt lat="48.81395" lon="-3.48876">
        <ele>49.3</ele>
        <time>2015-11-07T14:41:20Z</time>
      </trkpt>
      <trkpt lat="48.81385" lon="-3.48878">
        <ele>49.8</ele>
        <time>2015-11-07T14:41:24Z</time>
      </trkpt>
      <trkpt lat="48.81376" lon="-3.4888">
        <ele>1</ele>
        <time>2015-11-07T14:41:28Z</time>
      </trkpt>
      <trkpt lat="48.81362" lon="-3.48887">
        <ele>1</ele>
        <time>2015-11-07T14:41:34Z</time>
      </trkpt>
      <trkpt lat="48.81353" lon="-3.48891">
        <ele>2</ele>
        <time>2015-11-07T14:41:38Z</time>
      </trkpt>
      <trkpt lat="48.81344" lon="-3.48897">
        <ele>2</ele>
        <time>2015-11-07T14:41:42Z</time>
      </trkpt>
      <trkpt lat="48.8133" lon="-3.4891">
        <ele>3</ele>
        <time>2015-11-07T14:41:49Z</time>
      </trkpt>
      <trkpt lat="48.81322" lon="-3.4892">
        <ele>3</ele>
        <time>2015-11-07T14:41:53Z</time>
      </trkpt>
      <trkpt lat="48.81312" lon="-3.48937">
        <ele>3</ele>
        <time>2015-11-07T14:41:59Z</time>
      </trkpt>
      <trkpt lat="48.81304" lon="-3.48952">
        <ele>3</ele>
        <time>2015-11-07T14:42:03Z</time>
      </trkpt>
      <trkpt lat="48.81299" lon="-3.48963">
        <ele>4</ele>
        <time>2015-11-07T14:42:06Z</time>
      </trkpt>
      <trkpt lat="48.81294" lon="-3.4898">
        <ele>4</ele>
        <time>2015-11-07T14:42:10Z</time>
      </trkpt>
      <trkpt lat="48.81291" lon="-3.48991">
        <ele>4</ele>
        <time>2015-11-07T14:42:13Z</time>
      </trkpt>
      <trkpt lat="48.81284" lon="-3.49009">
        <ele>5</ele>
        <time>2015-11-07T14:42:18Z</time>
      </trkpt>
      <trkpt lat="48.81275" lon="-3.4902">
        <ele>5</ele>
        <time>2015-11-07T14:42:22Z</time>
      </trkpt>
      <trkpt lat="48.81268" lon="-3.49027">
        <ele>6</ele>
        <time>2015-11-07T14:42:25Z</time>
      </trkpt>
      <trkpt lat="48.81253" lon="-3.4904">
        <ele>6</ele>
        <time>2015-11-07T14:42:31Z</time>
      </trkpt>
      <trkpt lat="48.81246" lon="-3.49046">
        <ele>7</ele>
        <time>2015-11-07T14:42:34Z</time>
      </trkpt>
      <trkpt lat="48.81234" lon="-3.49054">
        <ele>7</ele>
        <time>2015-11-07T14:42:39Z</time>
      </trkpt>
      <trkpt lat="48.81226" lon="-3.49058">
        <ele>8</ele>
        <time>2015-11-07T14:42:42Z</time>
      </trkpt>
      <trkpt lat="48.81218" lon="-3.49061">
        <ele>8</ele>
        <time>2015-11-07T14:42:45Z</time>
      </trkpt>
      <trkpt lat="48.81202" lon="-3.49065">
        <ele>9</ele>
        <time>2015-11-07T14:42:51Z</time>
      </trkpt>
      <trkpt lat="48.81191" lon="-3.49067">
        <ele>9</ele>
        <time>2015-11-07T14:42:55Z</time>
      </trkpt>
      <trkpt lat="48.81182" lon="-3.49067">
        <ele>10</ele>
        <time>2015-11-07T14:42:58Z</time>
      </trkpt>
      <trkpt lat="48.81164" lon="-3.49067">
        <ele>10</ele>
        <time>2015-11-07T14:43:03Z</time>
      </trkpt>
      <trkpt lat="48.81146" lon="-3.49068">
        <ele>11</ele>
        <time>2015-11-07T14:43:07Z</time>
      </trkpt>
      <trkpt lat="48.81136" lon="-3.4907">
        <ele>12</ele>
        <time>2015-11-07T14:43:09Z</time>
      </trkpt>
      <trkpt lat="48.81122" lon="-3.49073">
        <ele>12</ele>
        <time>2015-11-07T14:43:12Z</time>
      </trkpt>
      <trkpt lat="48.81106" lon="-3.49078">
        <ele>12</ele>
        <time>2015-11-07T14:43:15Z</time>
      </trkpt>
      <trkpt lat="48.8109" lon="-3.49085">
        <ele>12</ele>
        <time>2015-11-07T14:43:18Z</time>
      </trkpt>
      <trkpt lat="48.81074" lon="-3.49092">
        <ele>13</ele>
        <time>2015-11-07T14:43:21Z</time>
      </trkpt>
      <trkpt lat="48.81058" lon="-3.49098">
        <ele>13</ele>
        <time>2015-11-07T14:43:24Z</time>
      </trkpt>
      <trkpt lat="48.81014" lon="-3.49103">
        <ele>13</ele>
        <time>2015-11-07T14:43:31Z</time>
      </trkpt>
      <trkpt lat="48.80993" lon="-3.49104">
        <ele>14</ele>
        <time>2015-11-07T14:43:34Z</time>
      </trkpt>
      <trkpt lat="48.80971" lon="-3.49104">
        <ele>14</ele>
        <time>2015-11-07T14:43:37Z</time>
      </trkpt>
      <trkpt lat="48.80944" lon="-3.49103">
        <ele>14</ele>
        <time>2015-11-07T14:43:41Z</time>
      </trkpt>
      <trkpt lat="48.80924" lon="-3.49104">
        <ele>14</ele>
        <time>2015-11-07T14:43:44Z</time>
      </trkpt>
      <trkpt lat="48.80912" lon="-3.49105">
        <ele>14</ele>
        <time>2015-11-07T14:43:46Z</time>
      </trkpt>
      <trkpt lat="48.80895" lon="-3.49106">
        <ele>15</ele>
        <time>2015-11-07T14:43:49Z</time>
      </trkpt>
      <trkpt lat="48.80884" lon="-3.49106">
        <ele>15</ele>
        <time>2015-11-07T14:43:51Z</time>
      </trkpt>
      <trkpt lat="48.80864" lon="-3.49107">
        <ele>15</ele>
        <time>2015-11-07T14:43:55Z</time>
      </trkpt>
      <trkpt lat="48.80848" lon="-3.49108">
        <ele>15</ele>
        <time>2015-11-07T14:43:59Z</time>
      </trkpt>
      <trkpt lat="48.8083" lon="-3.49109">
        <ele>15</ele>
        <time>2015-11-07T14:44:04Z</time>
      </trkpt>
      <trkpt lat="48.80813" lon="-3.4911">
        <ele>16</ele>
        <time>2015-11-07T14:44:09Z</time>
      </trkpt>
      <trkpt lat="48.80798" lon="-3.49116">
        <ele>16</ele>
        <time>2015-11-07T14:44:14Z</time>
      </trkpt>
      <trkpt lat="48.80782" lon="-3.49125">
        <ele>16</ele>
        <time>2015-11-07T14:44:20Z</time>
      </trkpt>
      <trkpt lat="48.80765" lon="-3.49135">
        <ele>16</ele>
        <time>2015-11-07T14:44:27Z</time>
      </trkpt>
      <trkpt lat="48.8075" lon="-3.49141">
        <ele>16</ele>
        <time>2015-11-07T14:44:33Z</time>
      </trkpt>
      <trkpt lat="48.80734" lon="-3.49144">
        <ele>16</ele>
        <time>2015-11-07T14:44:38Z</time>
      </trkpt>
      <trkpt lat="48.80718" lon="-3.49142">
        <ele>16</ele>
        <time>2015-11-07T14:44:43Z</time>
      </trkpt>
      <trkpt lat="48.807" lon="-3.49138">
        <ele>16</ele>
        <time>2015-11-07T14:44:48Z</time>
      </trkpt>
      <trkpt lat="48.80682" lon="-3.49132">
        <ele>16</ele>
        <time>2015-11-07T14:44:53Z</time>
      </trkpt>
      <trkpt lat="48.80665" lon="-3.49123">
        <ele>16</ele>
        <time>2015-11-07T14:44:58Z</time>
      </trkpt>
      <trkpt lat="48.80655" lon="-3.49117">
        <ele>16</ele>
        <time>2015-11-07T14:45:01Z</time>
      </trkpt>
      <trkpt lat="48.80645" lon="-3.49109">
        <ele>17</ele>
        <time>2015-11-07T14:45:04Z</time>
      </trkpt>
      <trkpt lat="48.80629" lon="-3.49096">
        <ele>17</ele>
        <time>2015-11-07T14:45:09Z</time>
      </trkpt>
      <trkpt lat="48.80611" lon="-3.49081">
        <ele>17</ele>
        <time>2015-11-07T14:45:13Z</time>
      </trkpt>
      <trkpt lat="48.80596" lon="-3.49067">
        <ele>18</ele>
        <time>2015-11-07T14:45:16Z</time>
      </trkpt>
      <trkpt lat="48.80583" lon="-3.49061">
        <ele>18</ele>
        <time>2015-11-07T14:45:18Z</time>
      </trkpt>
      <trkpt lat="48.8056" lon="-3.49058">
        <ele>18</ele>
        <time>2015-11-07T14:45:21Z</time>
      </trkpt>
      <trkpt lat="48.80545" lon="-3.49058">
        <ele>18</ele>
        <time>2015-11-07T14:45:23Z</time>
      </trkpt>
      <trkpt lat="48.8053" lon="-3.4906">
        <ele>18</ele>
        <time>2015-11-07T14:45:25Z</time>
      </trkpt>
      <trkpt lat="48.8051" lon="-3.49066">
        <ele>18</ele>
        <time>2015-11-07T14:45:28Z</time>
      </trkpt>
      <trkpt lat="48.80492" lon="-3.49071">
        <ele>18</ele>
        <time>2015-11-07T14:45:31Z</time>
      </trkpt>
      <trkpt lat="48.80482" lon="-3.49074">
        <ele>18</ele>
        <time>2015-11-07T14:45:33Z</time>
      </trkpt>
      <trkpt lat="48.80463" lon="-3.4908">
        <ele>18</ele>
        <time>2015-11-07T14:45:37Z</time>
      </trkpt>
      <trkpt lat="48.80446" lon="-3.49086">
        <ele>18</ele>
        <time>2015-11-07T14:45:42Z</time>
      </trkpt>
      <trkpt lat="48.8043" lon="-3.49091">
        <ele>18</ele>
        <time>2015-11-07T14:45:46Z</time>
      </trkpt>
      <trkpt lat="48.8042" lon="-3.49094">
        <ele>18</ele>
        <time>2015-11-07T14:45:49Z</time>
      </trkpt>
      <trkpt lat="48.80405" lon="-3.49101">
        <ele>18</ele>
        <time>2015-11-07T14:45:54Z</time>
      </trkpt>
      <trkpt lat="48.80393" lon="-3.49108">
        <ele>18</ele>
        <time>2015-11-07T14:45:58Z</time>
      </trkpt>
      <trkpt lat="48.80379" lon="-3.49118">
        <ele>18</ele>
        <time>2015-11-07T14:46:03Z</time>
      </trkpt>
      <trkpt lat="48.80366" lon="-3.49128">
        <ele>17</ele>
        <time>2015-11-07T14:46:09Z</time>
      </trkpt>
      <trkpt lat="48.80351" lon="-3.4914">
        <ele>17</ele>
        <time>2015-11-07T14:46:16Z</time>
      </trkpt>
      <trkpt lat="48.80341" lon="-3.4915">
        <ele>17</ele>
        <time>2015-11-07T14:46:21Z</time>
      </trkpt>
      <trkpt lat="48.80332" lon="-3.49157">
        <ele>17</ele>
        <time>2015-11-07T14:46:25Z</time>
      </trkpt>
      <trkpt lat="48.80323" lon="-3.49163">
        <ele>16</ele>
        <time>2015-11-07T14:46:29Z</time>
      </trkpt>
      <trkpt lat="48.80306" lon="-3.49173">
        <ele>16</ele>
        <time>2015-11-07T14:46:36Z</time>
      </trkpt>
      <trkpt lat="48.80291" lon="-3.4918">
        <ele>16</ele>
        <time>2015-11-07T14:46:41Z</time>
      </trkpt>
      <trkpt lat="48.80269" lon="-3.49184">
        <ele>16</ele>
        <time>2015-11-07T14:46:47Z</time>
      </trkpt>
      <trkpt lat="48.80257" lon="-3.49183">
        <ele>16</ele>
        <time>2015-11-07T14:46:50Z</time>
      </trkpt>
      <trkpt lat="48.80242" lon="-3.49176">
        <ele>16</ele>
        <time>2015-11-07T14:46:54Z</time>
      </trkpt>
      <trkpt lat="48.80227" lon="-3.49167">
        <ele>16</ele>
        <time>2015-11-07T14:46:58Z</time>
      </trkpt>
      <trkpt lat="48.80219" lon="-3.49162">
        <ele>16</ele>
        <time>2015-11-07T14:47:00Z</time>
      </trkpt>
      <trkpt lat="48.80203" lon="-3.49152">
        <ele>16</ele>
        <time>2015-11-07T14:47:04Z</time>
      </trkpt>
      <trkpt lat="48.80187" lon="-3.49142">
        <ele>17</ele>
        <time>2015-11-07T14:47:08Z</time>
      </trkpt>
      <trkpt lat="48.80172" lon="-3.49131">
        <ele>17</ele>
        <time>2015-11-07T14:47:12Z</time>
      </trkpt>
      <trkpt lat="48.80152" lon="-3.49117">
        <ele>17</ele>
        <time>2015-11-07T14:47:17Z</time>
      </trkpt>
      <trkpt lat="48.80137" lon="-3.49112">
        <ele>17</ele>
        <time>2015-11-07T14:47:20Z</time>
      </trkpt>
      <trkpt lat="48.80119" lon="-3.49106">
        <ele>17</ele>
        <time>2015-11-07T14:47:23Z</time>
      </trkpt>
      <trkpt lat="48.801" lon="-3.49101">
        <ele>17</ele>
        <time>2015-11-07T14:47:26Z</time>
      </trkpt>
      <trkpt lat="48.80081" lon="-3.49096">
        <ele>17</ele>
        <time>2015-11-07T14:47:29Z</time>
      </trkpt>
      <trkpt lat="48.80068" lon="-3.49092">
        <ele>17</ele>
        <time>2015-11-07T14:47:31Z</time>
      </trkpt>
      <trkpt lat="48.80049" lon="-3.49085">
        <ele>17</ele>
        <time>2015-11-07T14:47:34Z</time>
      </trkpt>
      <trkpt lat="48.80028" lon="-3.49075">
        <ele>17</ele>
        <time>2015-11-07T14:47:37Z</time>
      </trkpt>
      <trkpt lat="48.80007" lon="-3.49062">
        <ele>17</ele>
        <time>2015-11-07T14:47:40Z</time>
      </trkpt>
      <trkpt lat="48.79986" lon="-3.49049">
        <ele>17</ele>
        <time>2015-11-07T14:47:43Z</time>
      </trkpt>
      <trkpt lat="48.79966" lon="-3.49035">
        <ele>17</ele>
        <time>2015-11-07T14:47:46Z</time>
      </trkpt>
      <trkpt lat="48.79946" lon="-3.4902">
        <ele>17</ele>
        <time>2015-11-07T14:47:49Z</time>
      </trkpt>
      <trkpt lat="48.79927" lon="-3.49007">
        <ele>17</ele>
        <time>2015-11-07T14:47:52Z</time>
      </trkpt>
      <trkpt lat="48.79911" lon="-3.48991">
        <ele>17</ele>
        <time>2015-11-07T14:47:55Z</time>
      </trkpt>
      <trkpt lat="48.79888" lon="-3.4897">
        <ele>17</ele>
        <time>2015-11-07T14:47:59Z</time>
      </trkpt>
      <trkpt lat="48.79872" lon="-3.48955">
        <ele>17</ele>
        <time>2015-11-07T14:48:02Z</time>
      </trkpt>
      <trkpt lat="48.79856" lon="-3.48939">
        <ele>17</ele>
        <time>2015-11-07T14:48:05Z</time>
      </trkpt>
      <trkpt lat="48.7984" lon="-3.48926">
        <ele>17</ele>
        <time>2015-11-07T14:48:08Z</time>
      </trkpt>
      <trkpt lat="48.79825" lon="-3.48913">
        <ele>17</ele>
        <time>2015-11-07T14:48:11Z</time>
      </trkpt>
      <trkpt lat="48.7981" lon="-3.48903">
        <ele>17</ele>
        <time>2015-11-07T14:48:14Z</time>
      </trkpt>
      <trkpt lat="48.79796" lon="-3.48892">
        <ele>16</ele>
        <time>2015-11-07T14:48:17Z</time>
      </trkpt>
      <trkpt lat="48.79782" lon="-3.48882">
        <ele>16</ele>
        <time>2015-11-07T14:48:20Z</time>
      </trkpt>
      <trkpt lat="48.79765" lon="-3.48872">
        <ele>16</ele>
        <time>2015-11-07T14:48:24Z</time>
      </trkpt>
      <trkpt lat="48.79749" lon="-3.48861">
        <ele>16</ele>
        <time>2015-11-07T14:48:29Z</time>
      </trkpt>
      <trkpt lat="48.79746" lon="-3.48843">
        <ele>15</ele>
        <time>2015-11-07T14:48:33Z</time>
      </trkpt>
      <trkpt lat="48.7975" lon="-3.48801">
        <ele>15</ele>
        <time>2015-11-07T14:48:40Z</time>
      </trkpt>
      <trkpt lat="48.79752" lon="-3.48765">
        <ele>15</ele>
        <time>2015-11-07T14:48:45Z</time>
      </trkpt>
      <trkpt lat="48.79755" lon="-3.48736">
        <ele>15</ele>
        <time>2015-11-07T14:48:49Z</time>
      </trkpt>
      <trkpt lat="48.79755" lon="-3.48709">
        <ele>15</ele>
        <time>2015-11-07T14:48:53Z</time>
      </trkpt>
      <trkpt lat="48.7975" lon="-3.4866">
        <ele>15</ele>
        <time>2015-11-07T14:49:00Z</time>
      </trkpt>
      <trkpt lat="48.79749" lon="-3.48634">
        <ele>15</ele>
        <time>2015-11-07T14:49:04Z</time>
      </trkpt>
      <trkpt lat="48.7975" lon="-3.48611">
        <ele>15</ele>
        <time>2015-11-07T14:49:08Z</time>
      </trkpt>
      <trkpt lat="48.79753" lon="-3.48583">
        <ele>14</ele>
        <time>2015-11-07T14:49:12Z</time>
      </trkpt>
      <trkpt lat="48.79756" lon="-3.48556">
        <ele>14</ele>
        <time>2015-11-07T14:49:15Z</time>
      </trkpt>
      <trkpt lat="48.79758" lon="-3.48527">
        <ele>14</ele>
        <time>2015-11-07T14:49:18Z</time>
      </trkpt>
      <trkpt lat="48.79751" lon="-3.48463">
        <ele>62.3</ele>
        <time>2015-11-07T14:49:25Z</time>
      </trkpt>
      <trkpt lat="48.79745" lon="-3.48349">
        <ele>11</ele>
        <time>2015-11-07T14:49:55Z</time>
      </trkpt>
      <trkpt lat="48.7975" lon="-3.48312">
        <ele>9</ele>
        <time>2015-11-07T14:50:09Z</time>
      </trkpt>
      <trkpt lat="48.79753" lon="-3.48282">
        <ele>8</ele>
        <time>2015-11-07T14:50:23Z</time>
      </trkpt>
      <trkpt lat="48.79745" lon="-3.48254">
        <ele>7</ele>
        <time>2015-11-07T14:50:34Z</time>
      </trkpt>
      <trkpt lat="48.79744" lon="-3.48228">
        <ele>7</ele>
        <time>2015-11-07T14:50:44Z</time>
      </trkpt>
      <trkpt lat="48.79742" lon="-3.48204">
        <ele>6</ele>
        <time>2015-11-07T14:50:54Z</time>
      </trkpt>
      <trkpt lat="48.79746" lon="-3.48173">
        <ele>6</ele>
        <time>2015-11-07T14:51:09Z</time>
      </trkpt>
      <trkpt lat="48.79755" lon="-3.48148">
        <ele>7</ele>
        <time>2015-11-07T14:51:13Z</time>
      </trkpt>
      <trkpt lat="48.79767" lon="-3.48122">
        <ele>7</ele>
        <time>2015-11-07T14:51:17Z</time>
      </trkpt>
      <trkpt lat="48.79781" lon="-3.48098">
        <ele>7</ele>
        <time>2015-11-07T14:51:22Z</time>
      </trkpt>
      <trkpt lat="48.79791" lon="-3.4808">
        <ele>6</ele>
        <time>2015-11-07T14:51:26Z</time>
      </trkpt>
      <trkpt lat="48.79807" lon="-3.48043">
        <ele>6</ele>
        <time>2015-11-07T14:51:36Z</time>
      </trkpt>
      <trkpt lat="48.7984" lon="-3.47977">
        <ele>6</ele>
        <time>2015-11-07T14:51:57Z</time>
      </trkpt>
      <trkpt lat="48.79851" lon="-3.47943">
        <ele>6</ele>
        <time>2015-11-07T14:52:04Z</time>
      </trkpt>
      <trkpt lat="48.79862" lon="-3.47917">
        <ele>6</ele>
        <time>2015-11-07T14:52:09Z</time>
      </trkpt>
      <trkpt lat="48.79877" lon="-3.4789">
        <ele>6</ele>
        <time>2015-11-07T14:52:12Z</time>
      </trkpt>
      <trkpt lat="48.79887" lon="-3.4787">
        <ele>6</ele>
        <time>2015-11-07T14:52:14Z</time>
      </trkpt>
      <trkpt lat="48.79899" lon="-3.47846">
        <ele>6</ele>
        <time>2015-11-07T14:52:17Z</time>
      </trkpt>
      <trkpt lat="48.79916" lon="-3.47811">
        <ele>6</ele>
        <time>2015-11-07T14:52:22Z</time>
      </trkpt>
      <trkpt lat="48.79978" lon="-3.47685">
        <ele>6</ele>
        <time>2015-11-07T14:52:45Z</time>
      </trkpt>
      <trkpt lat="48.7999" lon="-3.47667">
        <ele>6</ele>
        <time>2015-11-07T14:52:48Z</time>
      </trkpt>
      <trkpt lat="48.80001" lon="-3.47649">
        <ele>6</ele>
        <time>2015-11-07T14:52:51Z</time>
      </trkpt>
      <trkpt lat="48.80012" lon="-3.4763">
        <ele>6</ele>
        <time>2015-11-07T14:52:54Z</time>
      </trkpt>
      <trkpt lat="48.80024" lon="-3.47605">
        <ele>6</ele>
        <time>2015-11-07T14:52:57Z</time>
      </trkpt>
      <trkpt lat="48.80052" lon="-3.47519">
        <ele>7</ele>
        <time>2015-11-07T14:53:06Z</time>
      </trkpt>
      <trkpt lat="48.80086" lon="-3.4739">
        <ele>8</ele>
        <time>2015-11-07T14:53:20Z</time>
      </trkpt>
      <trkpt lat="48.80094" lon="-3.47359">
        <ele>8</ele>
        <time>2015-11-07T14:53:23Z</time>
      </trkpt>
      <trkpt lat="48.80094" lon="-3.47333">
        <ele>9</ele>
        <time>2015-11-07T14:53:26Z</time>
      </trkpt>
      <trkpt lat="48.80076" lon="-3.47321">
        <ele>10</ele>
        <time>2015-11-07T14:53:30Z</time>
      </trkpt>
      <trkpt lat="48.80058" lon="-3.47318">
        <ele>11</ele>
        <time>2015-11-07T14:53:33Z</time>
      </trkpt>
      <trkpt lat="48.80032" lon="-3.47314">
        <ele>12</ele>
        <time>2015-11-07T14:53:37Z</time>
      </trkpt>
      <trkpt lat="48.8001" lon="-3.47307">
        <ele>13</ele>
        <time>2015-11-07T14:53:40Z</time>
      </trkpt>
      <trkpt lat="48.79994" lon="-3.47303">
        <ele>14</ele>
        <time>2015-11-07T14:53:42Z</time>
      </trkpt>
      <trkpt lat="48.79978" lon="-3.47299">
        <ele>15</ele>
        <time>2015-11-07T14:53:44Z</time>
      </trkpt>
      <trkpt lat="48.79969" lon="-3.47297">
        <ele>15</ele>
        <time>2015-11-07T14:53:45Z</time>
      </trkpt>
      <trkpt lat="48.79961" lon="-3.47295">
        <ele>16</ele>
        <time>2015-11-07T14:53:46Z</time>
      </trkpt>
      <trkpt lat="48.79945" lon="-3.47291">
        <ele>16</ele>
        <time>2015-11-07T14:53:48Z</time>
      </trkpt>
      <trkpt lat="48.79923" lon="-3.47294">
        <ele>17</ele>
        <time>2015-11-07T14:53:51Z</time>
      </trkpt>
      <trkpt lat="48.79902" lon="-3.47302">
        <ele>18</ele>
        <time>2015-11-07T14:53:54Z</time>
      </trkpt>
      <trkpt lat="48.79883" lon="-3.47308">
        <ele>18</ele>
        <time>2015-11-07T14:53:57Z</time>
      </trkpt>
      <trkpt lat="48.79864" lon="-3.47312">
        <ele>19</ele>
        <time>2015-11-07T14:54:00Z</time>
      </trkpt>
      <trkpt lat="48.79846" lon="-3.47316">
        <ele>20</ele>
        <time>2015-11-07T14:54:03Z</time>
      </trkpt>
      <trkpt lat="48.79829" lon="-3.47317">
        <ele>20</ele>
        <time>2015-11-07T14:54:06Z</time>
      </trkpt>
      <trkpt lat="48.79811" lon="-3.47313">
        <ele>20</ele>
        <time>2015-11-07T14:54:09Z</time>
      </trkpt>
      <trkpt lat="48.79794" lon="-3.47298">
        <ele>21</ele>
        <time>2015-11-07T14:54:12Z</time>
      </trkpt>
      <trkpt lat="48.7978" lon="-3.47288">
        <ele>21</ele>
        <time>2015-11-07T14:54:14Z</time>
      </trkpt>
      <trkpt lat="48.79764" lon="-3.47278">
        <ele>21</ele>
        <time>2015-11-07T14:54:16Z</time>
      </trkpt>
      <trkpt lat="48.79748" lon="-3.47269">
        <ele>21</ele>
        <time>2015-11-07T14:54:18Z</time>
      </trkpt>
      <trkpt lat="48.79734" lon="-3.4726">
        <ele>21</ele>
        <time>2015-11-07T14:54:20Z</time>
      </trkpt>
      <trkpt lat="48.79719" lon="-3.47252">
        <ele>21</ele>
        <time>2015-11-07T14:54:22Z</time>
      </trkpt>
      <trkpt lat="48.79698" lon="-3.47245">
        <ele>21</ele>
        <time>2015-11-07T14:54:25Z</time>
      </trkpt>
      <trkpt lat="48.79679" lon="-3.47241">
        <ele>21</ele>
        <time>2015-11-07T14:54:28Z</time>
      </trkpt>
      <trkpt lat="48.79608" lon="-3.47213">
        <ele>21</ele>
        <time>2015-11-07T14:54:40Z</time>
      </trkpt>
      <trkpt lat="48.79591" lon="-3.47202">
        <ele>21</ele>
        <time>2015-11-07T14:54:43Z</time>
      </trkpt>
      <trkpt lat="48.79573" lon="-3.47186">
        <ele>21</ele>
        <time>2015-11-07T14:54:46Z</time>
      </trkpt>
      <trkpt lat="48.79556" lon="-3.4717">
        <ele>21</ele>
        <time>2015-11-07T14:54:49Z</time>
      </trkpt>
      <trkpt lat="48.79538" lon="-3.47156">
        <ele>21</ele>
        <time>2015-11-07T14:54:52Z</time>
      </trkpt>
      <trkpt lat="48.79518" lon="-3.47145">
        <ele>21</ele>
        <time>2015-11-07T14:54:55Z</time>
      </trkpt>
      <trkpt lat="48.79498" lon="-3.47139">
        <ele>21</ele>
        <time>2015-11-07T14:54:58Z</time>
      </trkpt>
      <trkpt lat="48.79479" lon="-3.47132">
        <ele>21</ele>
        <time>2015-11-07T14:55:01Z</time>
      </trkpt>
      <trkpt lat="48.79463" lon="-3.47124">
        <ele>21</ele>
        <time>2015-11-07T14:55:04Z</time>
      </trkpt>
      <trkpt lat="48.79446" lon="-3.47119">
        <ele>21</ele>
        <time>2015-11-07T14:55:07Z</time>
      </trkpt>
      <trkpt lat="48.79431" lon="-3.47114">
        <ele>21</ele>
        <time>2015-11-07T14:55:10Z</time>
      </trkpt>
      <trkpt lat="48.79416" lon="-3.47106">
        <ele>21</ele>
        <time>2015-11-07T14:55:14Z</time>
      </trkpt>
      <trkpt lat="48.794" lon="-3.47096">
        <ele>21</ele>
        <time>2015-11-07T14:55:18Z</time>
      </trkpt>
      <trkpt lat="48.79375" lon="-3.4709">
        <ele>21</ele>
        <time>2015-11-07T14:55:23Z</time>
      </trkpt>
      <trkpt lat="48.79357" lon="-3.4709">
        <ele>21</ele>
        <time>2015-11-07T14:55:27Z</time>
      </trkpt>
      <trkpt lat="48.79339" lon="-3.47087">
        <ele>21</ele>
        <time>2015-11-07T14:55:32Z</time>
      </trkpt>
      <trkpt lat="48.79323" lon="-3.47075">
        <ele>21</ele>
        <time>2015-11-07T14:55:39Z</time>
      </trkpt>
      <trkpt lat="48.79307" lon="-3.47062">
        <ele>21</ele>
        <time>2015-11-07T14:55:43Z</time>
      </trkpt>
      <trkpt lat="48.7929" lon="-3.47051">
        <ele>21</ele>
        <time>2015-11-07T14:55:47Z</time>
      </trkpt>
      <trkpt lat="48.79273" lon="-3.47039">
        <ele>21</ele>
        <time>2015-11-07T14:55:51Z</time>
      </trkpt>
      <trkpt lat="48.79235" lon="-3.47">
        <ele>21</ele>
        <time>2015-11-07T14:55:57Z</time>
      </trkpt>
      <trkpt lat="48.79222" lon="-3.46987">
        <ele>21</ele>
        <time>2015-11-07T14:55:59Z</time>
      </trkpt>
      <trkpt lat="48.79209" lon="-3.46975">
        <ele>21</ele>
        <time>2015-11-07T14:56:01Z</time>
      </trkpt>
      <trkpt lat="48.79188" lon="-3.46961">
        <ele>21</ele>
        <time>2015-11-07T14:56:04Z</time>
      </trkpt>
      <trkpt lat="48.79166" lon="-3.46954">
        <ele>21</ele>
        <time>2015-11-07T14:56:07Z</time>
      </trkpt>
      <trkpt lat="48.79143" lon="-3.4695">
        <ele>21</ele>
        <time>2015-11-07T14:56:10Z</time>
      </trkpt>
      <trkpt lat="48.79126" lon="-3.46947">
        <ele>21</ele>
        <time>2015-11-07T14:56:12Z</time>
      </trkpt>
      <trkpt lat="48.79116" lon="-3.46946">
        <ele>21</ele>
        <time>2015-11-07T14:56:13Z</time>
      </trkpt>
      <trkpt lat="48.79106" lon="-3.46946">
        <ele>21</ele>
        <time>2015-11-07T14:56:14Z</time>
      </trkpt>
      <trkpt lat="48.79095" lon="-3.46947">
        <ele>21</ele>
        <time>2015-11-07T14:56:15Z</time>
      </trkpt>
      <trkpt lat="48.79084" lon="-3.46948">
        <ele>21</ele>
        <time>2015-11-07T14:56:16Z</time>
      </trkpt>
      <trkpt lat="48.79074" lon="-3.46948">
        <ele>21</ele>
        <time>2015-11-07T14:56:17Z</time>
      </trkpt>
      <trkpt lat="48.79063" lon="-3.46946">
        <ele>21</ele>
        <time>2015-11-07T14:56:18Z</time>
      </trkpt>
      <trkpt lat="48.79054" lon="-3.4694">
        <ele>21</ele>
        <time>2015-11-07T14:56:19Z</time>
      </trkpt>
      <trkpt lat="48.79046" lon="-3.46932">
        <ele>21</ele>
        <time>2015-11-07T14:56:20Z</time>
      </trkpt>
      <trkpt lat="48.79038" lon="-3.46922">
        <ele>21</ele>
        <time>2015-11-07T14:56:21Z</time>
      </trkpt>
      <trkpt lat="48.79032" lon="-3.4691">
        <ele>21</ele>
        <time>2015-11-07T14:56:22Z</time>
      </trkpt>
      <trkpt lat="48.79026" lon="-3.46898">
        <ele>21</ele>
        <time>2015-11-07T14:56:23Z</time>
      </trkpt>
      <trkpt lat="48.79019" lon="-3.46886">
        <ele>21</ele>
        <time>2015-11-07T14:56:24Z</time>
      </trkpt>
      <trkpt lat="48.79013" lon="-3.46873">
        <ele>21</ele>
        <time>2015-11-07T14:56:25Z</time>
      </trkpt>
      <trkpt lat="48.79007" lon="-3.46861">
        <ele>21</ele>
        <time>2015-11-07T14:56:26Z</time>
      </trkpt>
      <trkpt lat="48.79002" lon="-3.46848">
        <ele>21</ele>
        <time>2015-11-07T14:56:27Z</time>
      </trkpt>
      <trkpt lat="48.78998" lon="-3.46835">
        <ele>21</ele>
        <time>2015-11-07T14:56:28Z</time>
      </trkpt>
      <trkpt lat="48.78995" lon="-3.46821">
        <ele>21</ele>
        <time>2015-11-07T14:56:29Z</time>
      </trkpt>
      <trkpt lat="48.78992" lon="-3.46808">
        <ele>21</ele>
        <time>2015-11-07T14:56:30Z</time>
      </trkpt>
      <trkpt lat="48.7899" lon="-3.46795">
        <ele>21</ele>
        <time>2015-11-07T14:56:31Z</time>
      </trkpt>
      <trkpt lat="48.78984" lon="-3.46773">
        <ele>20</ele>
        <time>2015-11-07T14:56:33Z</time>
      </trkpt>
      <trkpt lat="48.78962" lon="-3.46745">
        <ele>20</ele>
        <time>2015-11-07T14:56:37Z</time>
      </trkpt>
      <trkpt lat="48.78943" lon="-3.46725">
        <ele>20</ele>
        <time>2015-11-07T14:56:40Z</time>
      </trkpt>
      <trkpt lat="48.7893" lon="-3.46709">
        <ele>19</ele>
        <time>2015-11-07T14:56:42Z</time>
      </trkpt>
      <trkpt lat="48.78923" lon="-3.467">
        <ele>19</ele>
        <time>2015-11-07T14:56:43Z</time>
      </trkpt>
      <trkpt lat="48.78909" lon="-3.46686">
        <ele>18</ele>
        <time>2015-11-07T14:56:45Z</time>
      </trkpt>
      <trkpt lat="48.78886" lon="-3.46677">
        <ele>18</ele>
        <time>2015-11-07T14:56:48Z</time>
      </trkpt>
      <trkpt lat="48.78802" lon="-3.46655">
        <ele>17</ele>
        <time>2015-11-07T14:56:59Z</time>
      </trkpt>
      <trkpt lat="48.78633" lon="-3.46579">
        <ele>14</ele>
        <time>2015-11-07T14:57:16Z</time>
      </trkpt>
      <trkpt lat="48.78615" lon="-3.46575">
        <ele>13</ele>
        <time>2015-11-07T14:57:18Z</time>
      </trkpt>
      <trkpt lat="48.786" lon="-3.46571">
        <ele>11</ele>
        <time>2015-11-07T14:57:20Z</time>
      </trkpt>
      <trkpt lat="48.7858" lon="-3.46563">
        <ele>9</ele>
        <time>2015-11-07T14:57:23Z</time>
      </trkpt>
      <trkpt lat="48.78564" lon="-3.46554">
        <ele>7</ele>
        <time>2015-11-07T14:57:26Z</time>
      </trkpt>
      <trkpt lat="48.78547" lon="-3.46544">
        <ele>5</ele>
        <time>2015-11-07T14:57:31Z</time>
      </trkpt>
      <trkpt lat="48.78524" lon="-3.46538">
        <ele>47</ele>
        <time>2015-11-07T14:57:44Z</time>
      </trkpt>
      <trkpt lat="48.785" lon="-3.46531">
        <ele>-3</ele>
        <time>2015-11-07T14:57:56Z</time>
      </trkpt>
      <trkpt lat="48.78482" lon="-3.46525">
        <ele>-5</ele>
        <time>2015-11-07T14:58:06Z</time>
      </trkpt>
      <trkpt lat="48.78458" lon="-3.46515">
        <ele>-7</ele>
        <time>2015-11-07T14:58:21Z</time>
      </trkpt>
      <trkpt lat="48.7844" lon="-3.46505">
        <ele>-7</ele>
        <time>2015-11-07T14:58:34Z</time>
      </trkpt>
      <trkpt lat="48.78422" lon="-3.46497">
        <ele>-7</ele>
        <time>2015-11-07T14:58:49Z</time>
      </trkpt>
      <trkpt lat="48.78406" lon="-3.46483">
        <ele>-6</ele>
        <time>2015-11-07T14:59:03Z</time>
      </trkpt>
      <trkpt lat="48.78383" lon="-3.4647">
        <ele>-6</ele>
        <time>2015-11-07T14:59:15Z</time>
      </trkpt>
      <trkpt lat="48.78368" lon="-3.46467">
        <ele>-5</ele>
        <time>2015-11-07T14:59:21Z</time>
      </trkpt>
      <trkpt lat="48.78352" lon="-3.46467">
        <ele>-4</ele>
        <time>2015-11-07T14:59:27Z</time>
      </trkpt>
      <trkpt lat="48.78337" lon="-3.46468">
        <ele>-3</ele>
        <time>2015-11-07T14:59:34Z</time>
      </trkpt>
      <trkpt lat="48.78321" lon="-3.46468">
        <ele>-3</ele>
        <time>2015-11-07T14:59:41Z</time>
      </trkpt>
      <trkpt lat="48.78311" lon="-3.46464">
        <ele>-2</ele>
        <time>2015-11-07T14:59:46Z</time>
      </trkpt>
      <trkpt lat="48.78296" lon="-3.46456">
        <ele>-1</ele>
        <time>2015-11-07T14:59:54Z</time>
      </trkpt>
      <trkpt lat="48.78288" lon="-3.4645">
        <ele>63.5</ele>
        <time>2015-11-07T14:59:58Z</time>
      </trkpt>
      <trkpt lat="48.78278" lon="-3.46441">
        <ele>2</ele>
        <time>2015-11-07T15:00:04Z</time>
      </trkpt>
      <trkpt lat="48.78264" lon="-3.46435">
        <ele>2</ele>
        <time>2015-11-07T15:00:12Z</time>
      </trkpt>
      <trkpt lat="48.78253" lon="-3.46428">
        <ele>4</ele>
        <time>2015-11-07T15:00:21Z</time>
      </trkpt>
      <trkpt lat="48.78239" lon="-3.46418">
        <ele>5</ele>
        <time>2015-11-07T15:00:28Z</time>
      </trkpt>
      <trkpt lat="48.7823" lon="-3.46411">
        <ele>6</ele>
        <time>2015-11-07T15:00:33Z</time>
      </trkpt>
      <trkpt lat="48.78219" lon="-3.46403">
        <ele>7</ele>
        <time>2015-11-07T15:00:40Z</time>
      </trkpt>
      <trkpt lat="48.78212" lon="-3.46396">
        <ele>8</ele>
        <time>2015-11-07T15:00:45Z</time>
      </trkpt>
      <trkpt lat="48.78199" lon="-3.46379">
        <ele>9</ele>
        <time>2015-11-07T15:00:53Z</time>
      </trkpt>
      <trkpt lat="48.78153" lon="-3.46317">
        <ele>72.8</ele>
        <time>2015-11-07T15:05:43Z</time>
      </trkpt>
      <trkpt lat="48.78115" lon="-3.46286">
        <ele>74</ele>
        <time>2015-11-07T15:05:54Z</time>
      </trkpt>
      <trkpt lat="48.77986" lon="-3.46203">
        <ele>18</ele>
        <time>2015-11-07T15:06:29Z</time>
      </trkpt>
      <trkpt lat="48.7797" lon="-3.46195">
        <ele>18</ele>
        <time>2015-11-07T15:06:34Z</time>
      </trkpt>
      <trkpt lat="48.77954" lon="-3.46188">
        <ele>18</ele>
        <time>2015-11-07T15:06:39Z</time>
      </trkpt>
      <trkpt lat="48.77937" lon="-3.46182">
        <ele>17</ele>
        <time>2015-11-07T15:06:45Z</time>
      </trkpt>
      <trkpt lat="48.77919" lon="-3.46183">
        <ele>17</ele>
        <time>2015-11-07T15:06:51Z</time>
      </trkpt>
      <trkpt lat="48.77903" lon="-3.46185">
        <ele>17</ele>
        <time>2015-11-07T15:06:56Z</time>
      </trkpt>
      <trkpt lat="48.77887" lon="-3.46189">
        <ele>18</ele>
        <time>2015-11-07T15:07:01Z</time>
      </trkpt>
      <trkpt lat="48.7787" lon="-3.46193">
        <ele>18</ele>
        <time>2015-11-07T15:07:06Z</time>
      </trkpt>
      <trkpt lat="48.77854" lon="-3.46198">
        <ele>18</ele>
        <time>2015-11-07T15:07:10Z</time>
      </trkpt>
      <trkpt lat="48.77838" lon="-3.46203">
        <ele>18</ele>
        <time>2015-11-07T15:07:14Z</time>
      </trkpt>
      <trkpt lat="48.77822" lon="-3.46209">
        <ele>18</ele>
        <time>2015-11-07T15:07:18Z</time>
      </trkpt>
      <trkpt lat="48.77807" lon="-3.46217">
        <ele>19</ele>
        <time>2015-11-07T15:07:22Z</time>
      </trkpt>
      <trkpt lat="48.77792" lon="-3.46222">
        <ele>19</ele>
        <time>2015-11-07T15:07:26Z</time>
      </trkpt>
      <trkpt lat="48.77775" lon="-3.46226">
        <ele>19</ele>
        <time>2015-11-07T15:07:30Z</time>
      </trkpt>
      <trkpt lat="48.77757" lon="-3.46226">
        <ele>20</ele>
        <time>2015-11-07T15:07:34Z</time>
      </trkpt>
      <trkpt lat="48.7774" lon="-3.46224">
        <ele>20</ele>
        <time>2015-11-07T15:07:38Z</time>
      </trkpt>
      <trkpt lat="48.77721" lon="-3.4622">
        <ele>20</ele>
        <time>2015-11-07T15:07:42Z</time>
      </trkpt>
      <trkpt lat="48.77702" lon="-3.46215">
        <ele>20</ele>
        <time>2015-11-07T15:07:46Z</time>
      </trkpt>
      <trkpt lat="48.77683" lon="-3.46206">
        <ele>21</ele>
        <time>2015-11-07T15:07:50Z</time>
      </trkpt>
      <trkpt lat="48.77665" lon="-3.46195">
        <ele>21</ele>
        <time>2015-11-07T15:07:54Z</time>
      </trkpt>
      <trkpt lat="48.77648" lon="-3.4618">
        <ele>21</ele>
        <time>2015-11-07T15:07:58Z</time>
      </trkpt>
      <trkpt lat="48.77635" lon="-3.46165">
        <ele>21</ele>
        <time>2015-11-07T15:08:01Z</time>
      </trkpt>
      <trkpt lat="48.77621" lon="-3.4615">
        <ele>22</ele>
        <time>2015-11-07T15:08:04Z</time>
      </trkpt>
      <trkpt lat="48.77606" lon="-3.46136">
        <ele>22</ele>
        <time>2015-11-07T15:08:07Z</time>
      </trkpt>
      <trkpt lat="48.7759" lon="-3.46124">
        <ele>22</ele>
        <time>2015-11-07T15:08:10Z</time>
      </trkpt>
      <trkpt lat="48.77574" lon="-3.46114">
        <ele>22</ele>
        <time>2015-11-07T15:08:13Z</time>
      </trkpt>
      <trkpt lat="48.77557" lon="-3.46104">
        <ele>22</ele>
        <time>2015-11-07T15:08:16Z</time>
      </trkpt>
      <trkpt lat="48.77535" lon="-3.46089">
        <ele>22</ele>
        <time>2015-11-07T15:08:20Z</time>
      </trkpt>
      <trkpt lat="48.77518" lon="-3.46079">
        <ele>23</ele>
        <time>2015-11-07T15:08:23Z</time>
      </trkpt>
      <trkpt lat="48.77501" lon="-3.46067">
        <ele>23</ele>
        <time>2015-11-07T15:08:26Z</time>
      </trkpt>
      <trkpt lat="48.77478" lon="-3.46052">
        <ele>23</ele>
        <time>2015-11-07T15:08:30Z</time>
      </trkpt>
      <trkpt lat="48.77462" lon="-3.46043">
        <ele>23</ele>
        <time>2015-11-07T15:08:33Z</time>
      </trkpt>
      <trkpt lat="48.77447" lon="-3.46035">
        <ele>24</ele>
        <time>2015-11-07T15:08:36Z</time>
      </trkpt>
      <trkpt lat="48.7743" lon="-3.46043">
        <ele>24</ele>
        <time>2015-11-07T15:08:39Z</time>
      </trkpt>
      <trkpt lat="48.77413" lon="-3.46051">
        <ele>24</ele>
        <time>2015-11-07T15:08:42Z</time>
      </trkpt>
      <trkpt lat="48.77399" lon="-3.46065">
        <ele>25</ele>
        <time>2015-11-07T15:08:45Z</time>
      </trkpt>
      <trkpt lat="48.77384" lon="-3.46074">
        <ele>25</ele>
        <time>2015-11-07T15:08:48Z</time>
      </trkpt>
      <trkpt lat="48.77369" lon="-3.46075">
        <ele>25</ele>
        <time>2015-11-07T15:08:51Z</time>
      </trkpt>
      <trkpt lat="48.77345" lon="-3.46073">
        <ele>26</ele>
        <time>2015-11-07T15:08:55Z</time>
      </trkpt>
      <trkpt lat="48.77321" lon="-3.4607">
        <ele>26</ele>
        <time>2015-11-07T15:08:58Z</time>
      </trkpt>
      <trkpt lat="48.77301" lon="-3.46067">
        <ele>26</ele>
        <time>2015-11-07T15:09:00Z</time>
      </trkpt>
      <trkpt lat="48.77281" lon="-3.46061">
        <ele>26</ele>
        <time>2015-11-07T15:09:02Z</time>
      </trkpt>
      <trkpt lat="48.7727" lon="-3.46058">
        <ele>26</ele>
        <time>2015-11-07T15:09:03Z</time>
      </trkpt>
      <trkpt lat="48.77259" lon="-3.46054">
        <ele>27</ele>
        <time>2015-11-07T15:09:04Z</time>
      </trkpt>
      <trkpt lat="48.77215" lon="-3.46038">
        <ele>27</ele>
        <time>2015-11-07T15:09:08Z</time>
      </trkpt>
      <trkpt lat="48.77205" lon="-3.46041">
        <ele>27</ele>
        <time>2015-11-07T15:09:09Z</time>
      </trkpt>
      <trkpt lat="48.77195" lon="-3.46044">
        <ele>27</ele>
        <time>2015-11-07T15:09:10Z</time>
      </trkpt>
      <trkpt lat="48.77185" lon="-3.4605">
        <ele>27</ele>
        <time>2015-11-07T15:09:11Z</time>
      </trkpt>
      <trkpt lat="48.77175" lon="-3.46055">
        <ele>27</ele>
        <time>2015-11-07T15:09:12Z</time>
      </trkpt>
      <trkpt lat="48.77154" lon="-3.46061">
        <ele>27</ele>
        <time>2015-11-07T15:09:14Z</time>
      </trkpt>
      <trkpt lat="48.77119" lon="-3.46035">
        <ele>27</ele>
        <time>2015-11-07T15:09:18Z</time>
      </trkpt>
      <trkpt lat="48.77101" lon="-3.46019">
        <ele>27</ele>
        <time>2015-11-07T15:09:21Z</time>
      </trkpt>
      <trkpt lat="48.77084" lon="-3.46009">
        <ele>26</ele>
        <time>2015-11-07T15:09:24Z</time>
      </trkpt>
      <trkpt lat="48.77069" lon="-3.45999">
        <ele>26</ele>
        <time>2015-11-07T15:09:29Z</time>
      </trkpt>
      <trkpt lat="48.77049" lon="-3.45982">
        <ele>25</ele>
        <time>2015-11-07T15:09:35Z</time>
      </trkpt>
      <trkpt lat="48.77033" lon="-3.45978">
        <ele>25</ele>
        <time>2015-11-07T15:09:39Z</time>
      </trkpt>
      <trkpt lat="48.77017" lon="-3.45985">
        <ele>24</ele>
        <time>2015-11-07T15:09:44Z</time>
      </trkpt>
      <trkpt lat="48.77" lon="-3.45995">
        <ele>24</ele>
        <time>2015-11-07T15:09:50Z</time>
      </trkpt>
      <trkpt lat="48.76984" lon="-3.46007">
        <ele>23</ele>
        <time>2015-11-07T15:09:55Z</time>
      </trkpt>
      <trkpt lat="48.7697" lon="-3.46019">
        <ele>23</ele>
        <time>2015-11-07T15:09:59Z</time>
      </trkpt>
      <trkpt lat="48.76952" lon="-3.46036">
        <ele>22</ele>
        <time>2015-11-07T15:10:04Z</time>
      </trkpt>
      <trkpt lat="48.76938" lon="-3.46049">
        <ele>22</ele>
        <time>2015-11-07T15:10:08Z</time>
      </trkpt>
      <trkpt lat="48.76922" lon="-3.4606">
        <ele>21</ele>
        <time>2015-11-07T15:10:12Z</time>
      </trkpt>
      <trkpt lat="48.76903" lon="-3.46066">
        <ele>21</ele>
        <time>2015-11-07T15:10:16Z</time>
      </trkpt>
      <trkpt lat="48.76884" lon="-3.46071">
        <ele>20</ele>
        <time>2015-11-07T15:10:20Z</time>
      </trkpt>
      <trkpt lat="48.76867" lon="-3.46076">
        <ele>20</ele>
        <time>2015-11-07T15:10:23Z</time>
      </trkpt>
      <trkpt lat="48.7685" lon="-3.46086">
        <ele>19</ele>
        <time>2015-11-07T15:10:26Z</time>
      </trkpt>
      <trkpt lat="48.76832" lon="-3.461">
        <ele>19</ele>
        <time>2015-11-07T15:10:29Z</time>
      </trkpt>
      <trkpt lat="48.76813" lon="-3.46115">
        <ele>18</ele>
        <time>2015-11-07T15:10:32Z</time>
      </trkpt>
      <trkpt lat="48.76794" lon="-3.46128">
        <ele>18</ele>
        <time>2015-11-07T15:10:35Z</time>
      </trkpt>
      <trkpt lat="48.76775" lon="-3.46139">
        <ele>18</ele>
        <time>2015-11-07T15:10:38Z</time>
      </trkpt>
      <trkpt lat="48.76758" lon="-3.4615">
        <ele>17</ele>
        <time>2015-11-07T15:10:41Z</time>
      </trkpt>
      <trkpt lat="48.7674" lon="-3.46161">
        <ele>17</ele>
        <time>2015-11-07T15:10:44Z</time>
      </trkpt>
      <trkpt lat="48.76724" lon="-3.46172">
        <ele>16</ele>
        <time>2015-11-07T15:10:47Z</time>
      </trkpt>
      <trkpt lat="48.7671" lon="-3.46183">
        <ele>16</ele>
        <time>2015-11-07T15:10:50Z</time>
      </trkpt>
      <trkpt lat="48.76693" lon="-3.46197">
        <ele>16</ele>
        <time>2015-11-07T15:10:54Z</time>
      </trkpt>
      <trkpt lat="48.76685" lon="-3.46203">
        <ele>16</ele>
        <time>2015-11-07T15:10:56Z</time>
      </trkpt>
      <trkpt lat="48.76668" lon="-3.46215">
        <ele>16</ele>
        <time>2015-11-07T15:11:00Z</time>
      </trkpt>
      <trkpt lat="48.76652" lon="-3.46228">
        <ele>16</ele>
        <time>2015-11-07T15:11:04Z</time>
      </trkpt>
      <trkpt lat="48.76635" lon="-3.46238">
        <ele>16</ele>
        <time>2015-11-07T15:11:08Z</time>
      </trkpt>
      <trkpt lat="48.76619" lon="-3.46244">
        <ele>16</ele>
        <time>2015-11-07T15:11:12Z</time>
      </trkpt>
      <trkpt lat="48.76602" lon="-3.46249">
        <ele>16</ele>
        <time>2015-11-07T15:11:17Z</time>
      </trkpt>
      <trkpt lat="48.76584" lon="-3.46253">
        <ele>16</ele>
        <time>2015-11-07T15:11:24Z</time>
      </trkpt>
      <trkpt lat="48.76567" lon="-3.46253">
        <ele>16</ele>
        <time>2015-11-07T15:11:29Z</time>
      </trkpt>
      <trkpt lat="48.76551" lon="-3.46249">
        <ele>16</ele>
        <time>2015-11-07T15:11:33Z</time>
      </trkpt>
      <trkpt lat="48.76536" lon="-3.46252">
        <ele>16</ele>
        <time>2015-11-07T15:11:36Z</time>
      </trkpt>
      <trkpt lat="48.76519" lon="-3.46267">
        <ele>15</ele>
        <time>2015-11-07T15:11:40Z</time>
      </trkpt>
      <trkpt lat="48.76507" lon="-3.4629">
        <ele>15</ele>
        <time>2015-11-07T15:11:44Z</time>
      </trkpt>
      <trkpt lat="48.76498" lon="-3.46314">
        <ele>14</ele>
        <time>2015-11-07T15:11:48Z</time>
      </trkpt>
      <trkpt lat="48.7648" lon="-3.46374">
        <ele>14</ele>
        <time>2015-11-07T15:11:56Z</time>
      </trkpt>
      <trkpt lat="48.76476" lon="-3.46397">
        <ele>13</ele>
        <time>2015-11-07T15:11:58Z</time>
      </trkpt>
      <trkpt lat="48.76472" lon="-3.46421">
        <ele>12</ele>
        <time>2015-11-07T15:12:00Z</time>
      </trkpt>
      <trkpt lat="48.76468" lon="-3.46445">
        <ele>12</ele>
        <time>2015-11-07T15:12:02Z</time>
      </trkpt>
      <trkpt lat="48.76463" lon="-3.46468">
        <ele>11</ele>
        <time>2015-11-07T15:12:04Z</time>
      </trkpt>
      <trkpt lat="48.76454" lon="-3.46518">
        <ele>11</ele>
        <time>2015-11-07T15:12:09Z</time>
      </trkpt>
      <trkpt lat="48.76451" lon="-3.46542">
        <ele>10</ele>
        <time>2015-11-07T15:12:12Z</time>
      </trkpt>
      <trkpt lat="48.76443" lon="-3.46594">
        <ele>9</ele>
        <time>2015-11-07T15:12:20Z</time>
      </trkpt>
      <trkpt lat="48.76439" lon="-3.46619">
        <ele>8</ele>
        <time>2015-11-07T15:12:25Z</time>
      </trkpt>
      <trkpt lat="48.76432" lon="-3.46643">
        <ele>7</ele>
        <time>2015-11-07T15:12:30Z</time>
      </trkpt>
      <trkpt lat="48.76421" lon="-3.46672">
        <ele>7</ele>
        <time>2015-11-07T15:12:36Z</time>
      </trkpt>
      <trkpt lat="48.76413" lon="-3.46695">
        <ele>6</ele>
        <time>2015-11-07T15:12:41Z</time>
      </trkpt>
      <trkpt lat="48.76406" lon="-3.46717">
        <ele>6</ele>
        <time>2015-11-07T15:12:46Z</time>
      </trkpt>
      <trkpt lat="48.76398" lon="-3.46737">
        <ele>5</ele>
        <time>2015-11-07T15:12:51Z</time>
      </trkpt>
      <trkpt lat="48.76388" lon="-3.46762">
        <ele>5</ele>
        <time>2015-11-07T15:12:57Z</time>
      </trkpt>
      <trkpt lat="48.76381" lon="-3.46784">
        <ele>4</ele>
        <time>2015-11-07T15:13:02Z</time>
      </trkpt>
      <trkpt lat="48.76374" lon="-3.46807">
        <ele>4</ele>
        <time>2015-11-07T15:13:08Z</time>
      </trkpt>
      <trkpt lat="48.7637" lon="-3.4683">
        <ele>4</ele>
        <time>2015-11-07T15:13:13Z</time>
      </trkpt>
      <trkpt lat="48.76364" lon="-3.46852">
        <ele>4</ele>
        <time>2015-11-07T15:13:21Z</time>
      </trkpt>
      <trkpt lat="48.76352" lon="-3.46876">
        <ele>3</ele>
        <time>2015-11-07T15:13:29Z</time>
      </trkpt>
      <trkpt lat="48.76338" lon="-3.46897">
        <ele>4</ele>
        <time>2015-11-07T15:13:37Z</time>
      </trkpt>
      <trkpt lat="48.76323" lon="-3.46906">
        <ele>4</ele>
        <time>2015-11-07T15:13:44Z</time>
      </trkpt>
      <trkpt lat="48.76307" lon="-3.46911">
        <ele>4</ele>
        <time>2015-11-07T15:13:50Z</time>
      </trkpt>
      <trkpt lat="48.76291" lon="-3.46918">
        <ele>5</ele>
        <time>2015-11-07T15:13:57Z</time>
      </trkpt>
      <trkpt lat="48.76278" lon="-3.46924">
        <ele>6</ele>
        <time>2015-11-07T15:14:03Z</time>
      </trkpt>
      <trkpt lat="48.76261" lon="-3.46939">
        <ele>7</ele>
        <time>2015-11-07T15:14:11Z</time>
      </trkpt>
      <trkpt lat="48.7625" lon="-3.46959">
        <ele>8</ele>
        <time>2015-11-07T15:14:18Z</time>
      </trkpt>
      <trkpt lat="48.76245" lon="-3.46982">
        <ele>9</ele>
        <time>2015-11-07T15:14:24Z</time>
      </trkpt>
      <trkpt lat="48.7624" lon="-3.47005">
        <ele>10</ele>
        <time>2015-11-07T15:14:29Z</time>
      </trkpt>
      <trkpt lat="48.76234" lon="-3.47024">
        <ele>12</ele>
        <time>2015-11-07T15:14:33Z</time>
      </trkpt>
      <trkpt lat="48.76226" lon="-3.47041">
        <ele>13</ele>
        <time>2015-11-07T15:14:37Z</time>
      </trkpt>
      <trkpt lat="48.76214" lon="-3.47057">
        <ele>14</ele>
        <time>2015-11-07T15:14:41Z</time>
      </trkpt>
      <trkpt lat="48.76206" lon="-3.47068">
        <ele>15</ele>
        <time>2015-11-07T15:14:44Z</time>
      </trkpt>
      <trkpt lat="48.76197" lon="-3.47079">
        <ele>16</ele>
        <time>2015-11-07T15:14:47Z</time>
      </trkpt>
      <trkpt lat="48.76182" lon="-3.47095">
        <ele>17</ele>
        <time>2015-11-07T15:14:52Z</time>
      </trkpt>
      <trkpt lat="48.7617" lon="-3.47109">
        <ele>18</ele>
        <time>2015-11-07T15:14:57Z</time>
      </trkpt>
      <trkpt lat="48.76162" lon="-3.47114">
        <ele>19</ele>
        <time>2015-11-07T15:15:00Z</time>
      </trkpt>
      <trkpt lat="48.76153" lon="-3.47119">
        <ele>19</ele>
        <time>2015-11-07T15:15:03Z</time>
      </trkpt>
      <trkpt lat="48.76143" lon="-3.47126">
        <ele>20</ele>
        <time>2015-11-07T15:15:06Z</time>
      </trkpt>
      <trkpt lat="48.76132" lon="-3.4715">
        <ele>21</ele>
        <time>2015-11-07T15:15:11Z</time>
      </trkpt>
      <trkpt lat="48.76125" lon="-3.47171">
        <ele>21</ele>
        <time>2015-11-07T15:15:15Z</time>
      </trkpt>
      <trkpt lat="48.76119" lon="-3.47194">
        <ele>22</ele>
        <time>2015-11-07T15:15:19Z</time>
      </trkpt>
      <trkpt lat="48.76111" lon="-3.47218">
        <ele>22</ele>
        <time>2015-11-07T15:15:23Z</time>
      </trkpt>
      <trkpt lat="48.76106" lon="-3.4723">
        <ele>23</ele>
        <time>2015-11-07T15:15:25Z</time>
      </trkpt>
      <trkpt lat="48.76101" lon="-3.47241">
        <ele>23</ele>
        <time>2015-11-07T15:15:27Z</time>
      </trkpt>
      <trkpt lat="48.76096" lon="-3.47251">
        <ele>23</ele>
        <time>2015-11-07T15:15:29Z</time>
      </trkpt>
      <trkpt lat="48.76088" lon="-3.47274">
        <ele>24</ele>
        <time>2015-11-07T15:15:33Z</time>
      </trkpt>
      <trkpt lat="48.76081" lon="-3.47298">
        <ele>24</ele>
        <time>2015-11-07T15:15:37Z</time>
      </trkpt>
      <trkpt lat="48.76074" lon="-3.47321">
        <ele>24</ele>
        <time>2015-11-07T15:15:41Z</time>
      </trkpt>
      <trkpt lat="48.76058" lon="-3.47316">
        <ele>25</ele>
        <time>2015-11-07T15:15:47Z</time>
      </trkpt>
      <trkpt lat="48.76041" lon="-3.47309">
        <ele>26</ele>
        <time>2015-11-07T15:15:52Z</time>
      </trkpt>
      <trkpt lat="48.76029" lon="-3.47306">
        <ele>27</ele>
        <time>2015-11-07T15:15:55Z</time>
      </trkpt>
      <trkpt lat="48.76017" lon="-3.47301">
        <ele>27</ele>
        <time>2015-11-07T15:15:58Z</time>
      </trkpt>
      <trkpt lat="48.76009" lon="-3.47298">
        <ele>28</ele>
        <time>2015-11-07T15:16:00Z</time>
      </trkpt>
      <trkpt lat="48.75993" lon="-3.47296">
        <ele>28</ele>
        <time>2015-11-07T15:16:04Z</time>
      </trkpt>
      <trkpt lat="48.75984" lon="-3.47298">
        <ele>29</ele>
        <time>2015-11-07T15:16:06Z</time>
      </trkpt>
      <trkpt lat="48.75971" lon="-3.47304">
        <ele>29</ele>
        <time>2015-11-07T15:16:09Z</time>
      </trkpt>
      <trkpt lat="48.75956" lon="-3.47316">
        <ele>30</ele>
        <time>2015-11-07T15:16:13Z</time>
      </trkpt>
      <trkpt lat="48.75953" lon="-3.47333">
        <ele>30</ele>
        <time>2015-11-07T15:16:16Z</time>
      </trkpt>
      <trkpt lat="48.75957" lon="-3.47358">
        <ele>31</ele>
        <time>2015-11-07T15:16:20Z</time>
      </trkpt>
      <trkpt lat="48.75964" lon="-3.47384">
        <ele>31</ele>
        <time>2015-11-07T15:16:24Z</time>
      </trkpt>
      <trkpt lat="48.7597" lon="-3.47412">
        <ele>32</ele>
        <time>2015-11-07T15:16:28Z</time>
      </trkpt>
      <trkpt lat="48.75974" lon="-3.47427">
        <ele>33</ele>
        <time>2015-11-07T15:16:30Z</time>
      </trkpt>
      <trkpt lat="48.75976" lon="-3.47442">
        <ele>33</ele>
        <time>2015-11-07T15:16:32Z</time>
      </trkpt>
      <trkpt lat="48.75977" lon="-3.47456">
        <ele>33</ele>
        <time>2015-11-07T15:16:34Z</time>
      </trkpt>
      <trkpt lat="48.75977" lon="-3.47477">
        <ele>34</ele>
        <time>2015-11-07T15:16:37Z</time>
      </trkpt>
      <trkpt lat="48.75975" lon="-3.47505">
        <ele>34</ele>
        <time>2015-11-07T15:16:41Z</time>
      </trkpt>
      <trkpt lat="48.75971" lon="-3.47534">
        <ele>34</ele>
        <time>2015-11-07T15:16:45Z</time>
      </trkpt>
      <trkpt lat="48.75967" lon="-3.47564">
        <ele>35</ele>
        <time>2015-11-07T15:16:49Z</time>
      </trkpt>
      <trkpt lat="48.75964" lon="-3.47588">
        <ele>35</ele>
        <time>2015-11-07T15:16:52Z</time>
      </trkpt>
      <trkpt lat="48.75961" lon="-3.47612">
        <ele>35</ele>
        <time>2015-11-07T15:16:55Z</time>
      </trkpt>
      <trkpt lat="48.75958" lon="-3.47636">
        <ele>35</ele>
        <time>2015-11-07T15:16:58Z</time>
      </trkpt>
      <trkpt lat="48.75955" lon="-3.4766">
        <ele>35</ele>
        <time>2015-11-07T15:17:01Z</time>
      </trkpt>
      <trkpt lat="48.75952" lon="-3.47683">
        <ele>35</ele>
        <time>2015-11-07T15:17:04Z</time>
      </trkpt>
      <trkpt lat="48.7595" lon="-3.47713">
        <ele>35</ele>
        <time>2015-11-07T15:17:08Z</time>
      </trkpt>
      <trkpt lat="48.75949" lon="-3.47743">
        <ele>34</ele>
        <time>2015-11-07T15:17:12Z</time>
      </trkpt>
      <trkpt lat="48.75949" lon="-3.47765">
        <ele>34</ele>
        <time>2015-11-07T15:17:15Z</time>
      </trkpt>
      <trkpt lat="48.75949" lon="-3.47779">
        <ele>34</ele>
        <time>2015-11-07T15:17:17Z</time>
      </trkpt>
      <trkpt lat="48.75951" lon="-3.47809">
        <ele>34</ele>
        <time>2015-11-07T15:17:21Z</time>
      </trkpt>
      <trkpt lat="48.75954" lon="-3.47831">
        <ele>34</ele>
        <time>2015-11-07T15:17:24Z</time>
      </trkpt>
      <trkpt lat="48.7596" lon="-3.4786">
        <ele>34</ele>
        <time>2015-11-07T15:17:28Z</time>
      </trkpt>
      <trkpt lat="48.75968" lon="-3.47887">
        <ele>34</ele>
        <time>2015-11-07T15:17:32Z</time>
      </trkpt>
      <trkpt lat="48.75972" lon="-3.479">
        <ele>34</ele>
        <time>2015-11-07T15:17:34Z</time>
      </trkpt>
      <trkpt lat="48.75975" lon="-3.47912">
        <ele>33</ele>
        <time>2015-11-07T15:17:36Z</time>
      </trkpt>
      <trkpt lat="48.75983" lon="-3.47938">
        <ele>33</ele>
        <time>2015-11-07T15:17:41Z</time>
      </trkpt>
      <trkpt lat="48.75989" lon="-3.47963">
        <ele>33</ele>
        <time>2015-11-07T15:17:46Z</time>
      </trkpt>
      <trkpt lat="48.75985" lon="-3.47978">
        <ele>33</ele>
        <time>2015-11-07T15:17:49Z</time>
      </trkpt>
      <trkpt lat="48.75971" lon="-3.47989">
        <ele>33</ele>
        <time>2015-11-07T15:17:53Z</time>
      </trkpt>
      <trkpt lat="48.75954" lon="-3.47998">
        <ele>33</ele>
        <time>2015-11-07T15:17:57Z</time>
      </trkpt>
      <trkpt lat="48.75937" lon="-3.48008">
        <ele>33</ele>
        <time>2015-11-07T15:18:01Z</time>
      </trkpt>
      <trkpt lat="48.75921" lon="-3.48019">
        <ele>33</ele>
        <time>2015-11-07T15:18:05Z</time>
      </trkpt>
      <trkpt lat="48.75914" lon="-3.48026">
        <ele>33</ele>
        <time>2015-11-07T15:18:07Z</time>
      </trkpt>
      <trkpt lat="48.75907" lon="-3.48034">
        <ele>33</ele>
        <time>2015-11-07T15:18:09Z</time>
      </trkpt>
      <trkpt lat="48.75901" lon="-3.48044">
        <ele>33</ele>
        <time>2015-11-07T15:18:11Z</time>
      </trkpt>
      <trkpt lat="48.7589" lon="-3.48064">
        <ele>33</ele>
        <time>2015-11-07T15:18:15Z</time>
      </trkpt>
      <trkpt lat="48.75885" lon="-3.48075">
        <ele>33</ele>
        <time>2015-11-07T15:18:17Z</time>
      </trkpt>
      <trkpt lat="48.7588" lon="-3.48085">
        <ele>33</ele>
        <time>2015-11-07T15:18:19Z</time>
      </trkpt>
      <trkpt lat="48.75873" lon="-3.48101">
        <ele>33</ele>
        <time>2015-11-07T15:18:22Z</time>
      </trkpt>
      <trkpt lat="48.75869" lon="-3.48112">
        <ele>33</ele>
        <time>2015-11-07T15:18:24Z</time>
      </trkpt>
      <trkpt lat="48.75864" lon="-3.48123">
        <ele>33</ele>
        <time>2015-11-07T15:18:26Z</time>
      </trkpt>
      <trkpt lat="48.7586" lon="-3.48133">
        <ele>33</ele>
        <time>2015-11-07T15:18:28Z</time>
      </trkpt>
      <trkpt lat="48.75856" lon="-3.48144">
        <ele>33</ele>
        <time>2015-11-07T15:18:30Z</time>
      </trkpt>
      <trkpt lat="48.75851" lon="-3.48154">
        <ele>33</ele>
        <time>2015-11-07T15:18:32Z</time>
      </trkpt>
      <trkpt lat="48.75845" lon="-3.4817">
        <ele>33</ele>
        <time>2015-11-07T15:18:35Z</time>
      </trkpt>
      <trkpt lat="48.75839" lon="-3.48186">
        <ele>33</ele>
        <time>2015-11-07T15:18:38Z</time>
      </trkpt>
      <trkpt lat="48.7583" lon="-3.48209">
        <ele>33</ele>
        <time>2015-11-07T15:18:42Z</time>
      </trkpt>
      <trkpt lat="48.75826" lon="-3.48221">
        <ele>33</ele>
        <time>2015-11-07T15:18:44Z</time>
      </trkpt>
      <trkpt lat="48.7582" lon="-3.4824">
        <ele>33</ele>
        <time>2015-11-07T15:18:47Z</time>
      </trkpt>
      <trkpt lat="48.75816" lon="-3.48253">
        <ele>33</ele>
        <time>2015-11-07T15:18:49Z</time>
      </trkpt>
      <trkpt lat="48.75813" lon="-3.48267">
        <ele>33</ele>
        <time>2015-11-07T15:18:51Z</time>
      </trkpt>
      <trkpt lat="48.75808" lon="-3.48287">
        <ele>33</ele>
        <time>2015-11-07T15:18:54Z</time>
      </trkpt>
      <trkpt lat="48.75805" lon="-3.48307">
        <ele>34</ele>
        <time>2015-11-07T15:18:57Z</time>
      </trkpt>
      <trkpt lat="48.75802" lon="-3.48328">
        <ele>34</ele>
        <time>2015-11-07T15:19:00Z</time>
      </trkpt>
      <trkpt lat="48.758" lon="-3.48341">
        <ele>34</ele>
        <time>2015-11-07T15:19:02Z</time>
      </trkpt>
      <trkpt lat="48.75797" lon="-3.48369">
        <ele>34</ele>
        <time>2015-11-07T15:19:06Z</time>
      </trkpt>
      <trkpt lat="48.75794" lon="-3.48396">
        <ele>34</ele>
        <time>2015-11-07T15:19:10Z</time>
      </trkpt>
      <trkpt lat="48.75791" lon="-3.48422">
        <ele>34</ele>
        <time>2015-11-07T15:19:14Z</time>
      </trkpt>
      <trkpt lat="48.75789" lon="-3.48435">
        <ele>34</ele>
        <time>2015-11-07T15:19:16Z</time>
      </trkpt>
      <trkpt lat="48.75786" lon="-3.48447">
        <ele>34</ele>
        <time>2015-11-07T15:19:18Z</time>
      </trkpt>
      <trkpt lat="48.7578" lon="-3.48472">
        <ele>33</ele>
        <time>2015-11-07T15:19:22Z</time>
      </trkpt>
      <trkpt lat="48.75772" lon="-3.48495">
        <ele>33</ele>
        <time>2015-11-07T15:19:26Z</time>
      </trkpt>
      <trkpt lat="48.75767" lon="-3.48505">
        <ele>33</ele>
        <time>2015-11-07T15:19:28Z</time>
      </trkpt>
      <trkpt lat="48.75762" lon="-3.48515">
        <ele>34</ele>
        <time>2015-11-07T15:19:30Z</time>
      </trkpt>
      <trkpt lat="48.75756" lon="-3.48524">
        <ele>33</ele>
        <time>2015-11-07T15:19:32Z</time>
      </trkpt>
      <trkpt lat="48.75749" lon="-3.48531">
        <ele>33</ele>
        <time>2015-11-07T15:19:34Z</time>
      </trkpt>
      <trkpt lat="48.75742" lon="-3.48538">
        <ele>33</ele>
        <time>2015-11-07T15:19:36Z</time>
      </trkpt>
      <trkpt lat="48.75731" lon="-3.48546">
        <ele>33</ele>
        <time>2015-11-07T15:19:39Z</time>
      </trkpt>
      <trkpt lat="48.75723" lon="-3.4855">
        <ele>33</ele>
        <time>2015-11-07T15:19:41Z</time>
      </trkpt>
      <trkpt lat="48.75715" lon="-3.48553">
        <ele>33</ele>
        <time>2015-11-07T15:19:43Z</time>
      </trkpt>
      <trkpt lat="48.75698" lon="-3.48556">
        <ele>33</ele>
        <time>2015-11-07T15:19:47Z</time>
      </trkpt>
      <trkpt lat="48.75682" lon="-3.48555">
        <ele>33</ele>
        <time>2015-11-07T15:19:51Z</time>
      </trkpt>
      <trkpt lat="48.75666" lon="-3.4855">
        <ele>33</ele>
        <time>2015-11-07T15:19:55Z</time>
      </trkpt>
      <trkpt lat="48.7565" lon="-3.48541">
        <ele>34</ele>
        <time>2015-11-07T15:19:59Z</time>
      </trkpt>
      <trkpt lat="48.75636" lon="-3.48527">
        <ele>34</ele>
        <time>2015-11-07T15:20:03Z</time>
      </trkpt>
      <trkpt lat="48.75622" lon="-3.48509">
        <ele>34</ele>
        <time>2015-11-07T15:20:07Z</time>
      </trkpt>
      <trkpt lat="48.75609" lon="-3.48488">
        <ele>34</ele>
        <time>2015-11-07T15:20:11Z</time>
      </trkpt>
      <trkpt lat="48.75598" lon="-3.48472">
        <ele>34</ele>
        <time>2015-11-07T15:20:14Z</time>
      </trkpt>
      <trkpt lat="48.75584" lon="-3.48456">
        <ele>35</ele>
        <time>2015-11-07T15:20:17Z</time>
      </trkpt>
      <trkpt lat="48.75566" lon="-3.48445">
        <ele>35</ele>
        <time>2015-11-07T15:20:20Z</time>
      </trkpt>
      <trkpt lat="48.75534" lon="-3.48438">
        <ele>35</ele>
        <time>2015-11-07T15:20:25Z</time>
      </trkpt>
      <trkpt lat="48.75517" lon="-3.48443">
        <ele>36</ele>
        <time>2015-11-07T15:20:28Z</time>
      </trkpt>
      <trkpt lat="48.75506" lon="-3.48448">
        <ele>36</ele>
        <time>2015-11-07T15:20:30Z</time>
      </trkpt>
      <trkpt lat="48.75496" lon="-3.48453">
        <ele>36</ele>
        <time>2015-11-07T15:20:32Z</time>
      </trkpt>
      <trkpt lat="48.75481" lon="-3.4846">
        <ele>36</ele>
        <time>2015-11-07T15:20:35Z</time>
      </trkpt>
      <trkpt lat="48.75463" lon="-3.48467">
        <ele>36</ele>
        <time>2015-11-07T15:20:39Z</time>
      </trkpt>
      <trkpt lat="48.75446" lon="-3.48473">
        <ele>36</ele>
        <time>2015-11-07T15:20:43Z</time>
      </trkpt>
      <trkpt lat="48.75412" lon="-3.48482">
        <ele>36</ele>
        <time>2015-11-07T15:20:51Z</time>
      </trkpt>
      <trkpt lat="48.75393" lon="-3.48482">
        <ele>36</ele>
        <time>2015-11-07T15:20:55Z</time>
      </trkpt>
      <trkpt lat="48.75375" lon="-3.48479">
        <ele>36</ele>
        <time>2015-11-07T15:20:59Z</time>
      </trkpt>
      <trkpt lat="48.75358" lon="-3.48475">
        <ele>36</ele>
        <time>2015-11-07T15:21:03Z</time>
      </trkpt>
      <trkpt lat="48.75339" lon="-3.48468">
        <ele>36</ele>
        <time>2015-11-07T15:21:08Z</time>
      </trkpt>
      <trkpt lat="48.75323" lon="-3.48464">
        <ele>36</ele>
        <time>2015-11-07T15:21:12Z</time>
      </trkpt>
      <trkpt lat="48.75306" lon="-3.48466">
        <ele>35</ele>
        <time>2015-11-07T15:21:16Z</time>
      </trkpt>
      <trkpt lat="48.75291" lon="-3.48473">
        <ele>35</ele>
        <time>2015-11-07T15:21:20Z</time>
      </trkpt>
      <trkpt lat="48.75276" lon="-3.48479">
        <ele>34</ele>
        <time>2015-11-07T15:21:24Z</time>
      </trkpt>
      <trkpt lat="48.7526" lon="-3.48485">
        <ele>33</ele>
        <time>2015-11-07T15:21:28Z</time>
      </trkpt>
      <trkpt lat="48.75246" lon="-3.4849">
        <ele>33</ele>
        <time>2015-11-07T15:21:32Z</time>
      </trkpt>
      <trkpt lat="48.75227" lon="-3.48495">
        <ele>33</ele>
        <time>2015-11-07T15:21:37Z</time>
      </trkpt>
      <trkpt lat="48.7521" lon="-3.48501">
        <ele>33</ele>
        <time>2015-11-07T15:21:42Z</time>
      </trkpt>
      <trkpt lat="48.75193" lon="-3.48505">
        <ele>33</ele>
        <time>2015-11-07T15:21:47Z</time>
      </trkpt>
      <trkpt lat="48.75177" lon="-3.48509">
        <ele>33</ele>
        <time>2015-11-07T15:21:52Z</time>
      </trkpt>
      <trkpt lat="48.7516" lon="-3.48513">
        <ele>33</ele>
        <time>2015-11-07T15:21:57Z</time>
      </trkpt>
      <trkpt lat="48.75142" lon="-3.48516">
        <ele>33</ele>
        <time>2015-11-07T15:22:02Z</time>
      </trkpt>
      <trkpt lat="48.75118" lon="-3.48522">
        <ele>34</ele>
        <time>2015-11-07T15:22:09Z</time>
      </trkpt>
      <trkpt lat="48.75099" lon="-3.48526">
        <ele>34</ele>
        <time>2015-11-07T15:22:14Z</time>
      </trkpt>
      <trkpt lat="48.75083" lon="-3.48529">
        <ele>35</ele>
        <time>2015-11-07T15:22:18Z</time>
      </trkpt>
      <trkpt lat="48.75067" lon="-3.48533">
        <ele>35</ele>
        <time>2015-11-07T15:22:22Z</time>
      </trkpt>
      <trkpt lat="48.75052" lon="-3.48536">
        <ele>36</ele>
        <time>2015-11-07T15:22:26Z</time>
      </trkpt>
      <trkpt lat="48.75036" lon="-3.4854">
        <ele>37</ele>
        <time>2015-11-07T15:22:30Z</time>
      </trkpt>
      <trkpt lat="48.75021" lon="-3.48544">
        <ele>37</ele>
        <time>2015-11-07T15:22:34Z</time>
      </trkpt>
      <trkpt lat="48.75005" lon="-3.48548">
        <ele>38</ele>
        <time>2015-11-07T15:22:38Z</time>
      </trkpt>
      <trkpt lat="48.74989" lon="-3.48551">
        <ele>38</ele>
        <time>2015-11-07T15:22:42Z</time>
      </trkpt>
      <trkpt lat="48.74972" lon="-3.4855">
        <ele>39</ele>
        <time>2015-11-07T15:22:46Z</time>
      </trkpt>
      <trkpt lat="48.74955" lon="-3.48549">
        <ele>40</ele>
        <time>2015-11-07T15:22:50Z</time>
      </trkpt>
      <trkpt lat="48.74938" lon="-3.48552">
        <ele>40</ele>
        <time>2015-11-07T15:22:54Z</time>
      </trkpt>
      <trkpt lat="48.74914" lon="-3.48496">
        <ele>94.8</ele>
        <time>2015-11-07T15:23:05Z</time>
      </trkpt>
      <trkpt lat="48.74914" lon="-3.48468">
        <ele>41</ele>
        <time>2015-11-07T15:23:07Z</time>
      </trkpt>
      <trkpt lat="48.74917" lon="-3.48444">
        <ele>41</ele>
        <time>2015-11-07T15:23:09Z</time>
      </trkpt>
      <trkpt lat="48.74935" lon="-3.48412">
        <ele>41</ele>
        <time>2015-11-07T15:23:13Z</time>
      </trkpt>
      <trkpt lat="48.74965" lon="-3.48353">
        <ele>91.4</ele>
        <time>2015-11-07T15:23:20Z</time>
      </trkpt>
      <trkpt lat="48.75059" lon="-3.47983">
        <ele>35</ele>
        <time>2015-11-07T15:23:50Z</time>
      </trkpt>
      <trkpt lat="48.75065" lon="-3.4796">
        <ele>35</ele>
        <time>2015-11-07T15:23:52Z</time>
      </trkpt>
      <trkpt lat="48.75071" lon="-3.47927">
        <ele>35</ele>
        <time>2015-11-07T15:23:55Z</time>
      </trkpt>
      <trkpt lat="48.75076" lon="-3.47898">
        <ele>34</ele>
        <time>2015-11-07T15:23:58Z</time>
      </trkpt>
      <trkpt lat="48.75089" lon="-3.47877">
        <ele>34</ele>
        <time>2015-11-07T15:24:01Z</time>
      </trkpt>
      <trkpt lat="48.75105" lon="-3.47861">
        <ele>34</ele>
        <time>2015-11-07T15:24:04Z</time>
      </trkpt>
      <trkpt lat="48.75121" lon="-3.47848">
        <ele>34</ele>
        <time>2015-11-07T15:24:07Z</time>
      </trkpt>
      <trkpt lat="48.75136" lon="-3.47837">
        <ele>33</ele>
        <time>2015-11-07T15:24:10Z</time>
      </trkpt>
      <trkpt lat="48.75151" lon="-3.4783">
        <ele>33</ele>
        <time>2015-11-07T15:24:13Z</time>
      </trkpt>
      <trkpt lat="48.7518" lon="-3.47807">
        <ele>32</ele>
        <time>2015-11-07T15:24:19Z</time>
      </trkpt>
      <trkpt lat="48.75197" lon="-3.47762">
        <ele>32</ele>
        <time>2015-11-07T15:24:25Z</time>
      </trkpt>
      <trkpt lat="48.75201" lon="-3.47733">
        <ele>31</ele>
        <time>2015-11-07T15:24:28Z</time>
      </trkpt>
      <trkpt lat="48.75199" lon="-3.47707">
        <ele>30</ele>
        <time>2015-11-07T15:24:31Z</time>
      </trkpt>
      <trkpt lat="48.75195" lon="-3.47682">
        <ele>30</ele>
        <time>2015-11-07T15:24:34Z</time>
      </trkpt>
      <trkpt lat="48.75188" lon="-3.47649">
        <ele>29</ele>
        <time>2015-11-07T15:24:38Z</time>
      </trkpt>
      <trkpt lat="48.75183" lon="-3.47624">
        <ele>29</ele>
        <time>2015-11-07T15:24:41Z</time>
      </trkpt>
      <trkpt lat="48.75177" lon="-3.47597">
        <ele>29</ele>
        <time>2015-11-07T15:24:44Z</time>
      </trkpt>
      <trkpt lat="48.7517" lon="-3.4757">
        <ele>28</ele>
        <time>2015-11-07T15:24:47Z</time>
      </trkpt>
      <trkpt lat="48.75165" lon="-3.47542">
        <ele>28</ele>
        <time>2015-11-07T15:24:50Z</time>
      </trkpt>
      <trkpt lat="48.75161" lon="-3.47513">
        <ele>28</ele>
        <time>2015-11-07T15:24:53Z</time>
      </trkpt>
      <trkpt lat="48.7516" lon="-3.47493">
        <ele>29</ele>
        <time>2015-11-07T15:24:55Z</time>
      </trkpt>
      <trkpt lat="48.75159" lon="-3.47464">
        <ele>29</ele>
        <time>2015-11-07T15:24:58Z</time>
      </trkpt>
      <trkpt lat="48.75161" lon="-3.47444">
        <ele>29</ele>
        <time>2015-11-07T15:25:00Z</time>
      </trkpt>
      <trkpt lat="48.75165" lon="-3.47415">
        <ele>29</ele>
        <time>2015-11-07T15:25:03Z</time>
      </trkpt>
      <trkpt lat="48.7517" lon="-3.47385">
        <ele>29</ele>
        <time>2015-11-07T15:25:06Z</time>
      </trkpt>
      <trkpt lat="48.75175" lon="-3.47355">
        <ele>30</ele>
        <time>2015-11-07T15:25:09Z</time>
      </trkpt>
      <trkpt lat="48.75181" lon="-3.47323">
        <ele>30</ele>
        <time>2015-11-07T15:25:12Z</time>
      </trkpt>
      <trkpt lat="48.75186" lon="-3.47302">
        <ele>31</ele>
        <time>2015-11-07T15:25:14Z</time>
      </trkpt>
      <trkpt lat="48.7519" lon="-3.4728">
        <ele>31</ele>
        <time>2015-11-07T15:25:16Z</time>
      </trkpt>
      <trkpt lat="48.75195" lon="-3.47258">
        <ele>32</ele>
        <time>2015-11-07T15:25:18Z</time>
      </trkpt>
      <trkpt lat="48.75199" lon="-3.47236">
        <ele>32</ele>
        <time>2015-11-07T15:25:20Z</time>
      </trkpt>
      <trkpt lat="48.75206" lon="-3.47203">
        <ele>33</ele>
        <time>2015-11-07T15:25:23Z</time>
      </trkpt>
      <trkpt lat="48.7521" lon="-3.47182">
        <ele>33</ele>
        <time>2015-11-07T15:25:25Z</time>
      </trkpt>
      <trkpt lat="48.75215" lon="-3.47149">
        <ele>33</ele>
        <time>2015-11-07T15:25:28Z</time>
      </trkpt>
      <trkpt lat="48.75215" lon="-3.47116">
        <ele>34</ele>
        <time>2015-11-07T15:25:31Z</time>
      </trkpt>
      <trkpt lat="48.7521" lon="-3.47084">
        <ele>34</ele>
        <time>2015-11-07T15:25:34Z</time>
      </trkpt>
      <trkpt lat="48.75206" lon="-3.47062">
        <ele>34</ele>
        <time>2015-11-07T15:25:36Z</time>
      </trkpt>
      <trkpt lat="48.75202" lon="-3.47041">
        <ele>34</ele>
        <time>2015-11-07T15:25:38Z</time>
      </trkpt>
      <trkpt lat="48.75196" lon="-3.47009">
        <ele>35</ele>
        <time>2015-11-07T15:25:41Z</time>
      </trkpt>
      <trkpt lat="48.7519" lon="-3.46977">
        <ele>35</ele>
        <time>2015-11-07T15:25:44Z</time>
      </trkpt>
      <trkpt lat="48.75185" lon="-3.46945">
        <ele>35</ele>
        <time>2015-11-07T15:25:47Z</time>
      </trkpt>
      <trkpt lat="48.75179" lon="-3.46913">
        <ele>35</ele>
        <time>2015-11-07T15:25:50Z</time>
      </trkpt>
      <trkpt lat="48.75173" lon="-3.46882">
        <ele>35</ele>
        <time>2015-11-07T15:25:53Z</time>
      </trkpt>
      <trkpt lat="48.75168" lon="-3.4685">
        <ele>35</ele>
        <time>2015-11-07T15:25:56Z</time>
      </trkpt>
      <trkpt lat="48.75164" lon="-3.46818">
        <ele>36</ele>
        <time>2015-11-07T15:25:59Z</time>
      </trkpt>
      <trkpt lat="48.75159" lon="-3.46785">
        <ele>36</ele>
        <time>2015-11-07T15:26:02Z</time>
      </trkpt>
      <trkpt lat="48.75153" lon="-3.46753">
        <ele>36</ele>
        <time>2015-11-07T15:26:05Z</time>
      </trkpt>
      <trkpt lat="48.75142" lon="-3.46726">
        <ele>36</ele>
        <time>2015-11-07T15:26:08Z</time>
      </trkpt>
      <trkpt lat="48.75121" lon="-3.46717">
        <ele>36</ele>
        <time>2015-11-07T15:26:11Z</time>
      </trkpt>
      <trkpt lat="48.75103" lon="-3.46712">
        <ele>36</ele>
        <time>2015-11-07T15:26:13Z</time>
      </trkpt>
      <trkpt lat="48.75067" lon="-3.46699">
        <ele>36</ele>
        <time>2015-11-07T15:26:17Z</time>
      </trkpt>
      <trkpt lat="48.75048" lon="-3.46694">
        <ele>37</ele>
        <time>2015-11-07T15:26:19Z</time>
      </trkpt>
      <trkpt lat="48.7503" lon="-3.46698">
        <ele>37</ele>
        <time>2015-11-07T15:26:21Z</time>
      </trkpt>
      <trkpt lat="48.75013" lon="-3.467">
        <ele>37</ele>
        <time>2015-11-07T15:26:23Z</time>
      </trkpt>
      <trkpt lat="48.74997" lon="-3.46701">
        <ele>37</ele>
        <time>2015-11-07T15:26:25Z</time>
      </trkpt>
      <trkpt lat="48.74981" lon="-3.46701">
        <ele>37</ele>
        <time>2015-11-07T15:26:27Z</time>
      </trkpt>
      <trkpt lat="48.74951" lon="-3.46699">
        <ele>37</ele>
        <time>2015-11-07T15:26:31Z</time>
      </trkpt>
      <trkpt lat="48.74921" lon="-3.46697">
        <ele>36</ele>
        <time>2015-11-07T15:26:35Z</time>
      </trkpt>
      <trkpt lat="48.74898" lon="-3.46696">
        <ele>36</ele>
        <time>2015-11-07T15:26:38Z</time>
      </trkpt>
      <trkpt lat="48.74882" lon="-3.46695">
        <ele>36</ele>
        <time>2015-11-07T15:26:40Z</time>
      </trkpt>
      <trkpt lat="48.74865" lon="-3.46692">
        <ele>36</ele>
        <time>2015-11-07T15:26:42Z</time>
      </trkpt>
      <trkpt lat="48.74847" lon="-3.4669">
        <ele>36</ele>
        <time>2015-11-07T15:26:44Z</time>
      </trkpt>
      <trkpt lat="48.74838" lon="-3.46689">
        <ele>35</ele>
        <time>2015-11-07T15:26:45Z</time>
      </trkpt>
      <trkpt lat="48.7482" lon="-3.46688">
        <ele>35</ele>
        <time>2015-11-07T15:26:47Z</time>
      </trkpt>
      <trkpt lat="48.74803" lon="-3.46686">
        <ele>35</ele>
        <time>2015-11-07T15:26:49Z</time>
      </trkpt>
      <trkpt lat="48.74786" lon="-3.46684">
        <ele>35</ele>
        <time>2015-11-07T15:26:51Z</time>
      </trkpt>
      <trkpt lat="48.74769" lon="-3.46683">
        <ele>35</ele>
        <time>2015-11-07T15:26:53Z</time>
      </trkpt>
      <trkpt lat="48.74753" lon="-3.46681">
        <ele>34</ele>
        <time>2015-11-07T15:26:55Z</time>
      </trkpt>
      <trkpt lat="48.74737" lon="-3.46678">
        <ele>34</ele>
        <time>2015-11-07T15:26:57Z</time>
      </trkpt>
      <trkpt lat="48.74721" lon="-3.46677">
        <ele>34</ele>
        <time>2015-11-07T15:26:59Z</time>
      </trkpt>
      <trkpt lat="48.74706" lon="-3.46675">
        <ele>33</ele>
        <time>2015-11-07T15:27:01Z</time>
      </trkpt>
      <trkpt lat="48.7469" lon="-3.46673">
        <ele>33</ele>
        <time>2015-11-07T15:27:03Z</time>
      </trkpt>
      <trkpt lat="48.74676" lon="-3.46671">
        <ele>33</ele>
        <time>2015-11-07T15:27:05Z</time>
      </trkpt>
      <trkpt lat="48.74656" lon="-3.46669">
        <ele>33</ele>
        <time>2015-11-07T15:27:08Z</time>
      </trkpt>
      <trkpt lat="48.74636" lon="-3.46668">
        <ele>32</ele>
        <time>2015-11-07T15:27:13Z</time>
      </trkpt>
      <trkpt lat="48.74619" lon="-3.46663">
        <ele>32</ele>
        <time>2015-11-07T15:27:18Z</time>
      </trkpt>
      <trkpt lat="48.74601" lon="-3.46652">
        <ele>32</ele>
        <time>2015-11-07T15:27:22Z</time>
      </trkpt>
      <trkpt lat="48.74577" lon="-3.46633">
        <ele>32</ele>
        <time>2015-11-07T15:27:26Z</time>
      </trkpt>
      <trkpt lat="48.74563" lon="-3.4662">
        <ele>31</ele>
        <time>2015-11-07T15:27:28Z</time>
      </trkpt>
      <trkpt lat="48.74547" lon="-3.46607">
        <ele>31</ele>
        <time>2015-11-07T15:27:30Z</time>
      </trkpt>
      <trkpt lat="48.74538" lon="-3.46601">
        <ele>31</ele>
        <time>2015-11-07T15:27:31Z</time>
      </trkpt>
      <trkpt lat="48.7453" lon="-3.46595">
        <ele>31</ele>
        <time>2015-11-07T15:27:32Z</time>
      </trkpt>
      <trkpt lat="48.74521" lon="-3.46589">
        <ele>31</ele>
        <time>2015-11-07T15:27:33Z</time>
      </trkpt>
      <trkpt lat="48.74512" lon="-3.46583">
        <ele>31</ele>
        <time>2015-11-07T15:27:34Z</time>
      </trkpt>
      <trkpt lat="48.74503" lon="-3.46578">
        <ele>31</ele>
        <time>2015-11-07T15:27:35Z</time>
      </trkpt>
      <trkpt lat="48.74494" lon="-3.46573">
        <ele>31</ele>
        <time>2015-11-07T15:27:36Z</time>
      </trkpt>
      <trkpt lat="48.74484" lon="-3.46569">
        <ele>31</ele>
        <time>2015-11-07T15:27:37Z</time>
      </trkpt>
      <trkpt lat="48.74474" lon="-3.46564">
        <ele>30</ele>
        <time>2015-11-07T15:27:38Z</time>
      </trkpt>
      <trkpt lat="48.74465" lon="-3.4656">
        <ele>30</ele>
        <time>2015-11-07T15:27:39Z</time>
      </trkpt>
      <trkpt lat="48.74455" lon="-3.46556">
        <ele>30</ele>
        <time>2015-11-07T15:27:40Z</time>
      </trkpt>
      <trkpt lat="48.74446" lon="-3.46551">
        <ele>30</ele>
        <time>2015-11-07T15:27:41Z</time>
      </trkpt>
      <trkpt lat="48.74436" lon="-3.46547">
        <ele>30</ele>
        <time>2015-11-07T15:27:42Z</time>
      </trkpt>
      <trkpt lat="48.74427" lon="-3.46543">
        <ele>30</ele>
        <time>2015-11-07T15:27:43Z</time>
      </trkpt>
      <trkpt lat="48.74418" lon="-3.46538">
        <ele>29</ele>
        <time>2015-11-07T15:27:44Z</time>
      </trkpt>
      <trkpt lat="48.74408" lon="-3.46533">
        <ele>29</ele>
        <time>2015-11-07T15:27:45Z</time>
      </trkpt>
      <trkpt lat="48.74398" lon="-3.46529">
        <ele>29</ele>
        <time>2015-11-07T15:27:46Z</time>
      </trkpt>
      <trkpt lat="48.74388" lon="-3.46525">
        <ele>29</ele>
        <time>2015-11-07T15:27:47Z</time>
      </trkpt>
      <trkpt lat="48.74379" lon="-3.46521">
        <ele>29</ele>
        <time>2015-11-07T15:27:48Z</time>
      </trkpt>
      <trkpt lat="48.74369" lon="-3.46516">
        <ele>29</ele>
        <time>2015-11-07T15:27:49Z</time>
      </trkpt>
      <trkpt lat="48.74359" lon="-3.46513">
        <ele>28</ele>
        <time>2015-11-07T15:27:50Z</time>
      </trkpt>
      <trkpt lat="48.74349" lon="-3.46509">
        <ele>28</ele>
        <time>2015-11-07T15:27:51Z</time>
      </trkpt>
      <trkpt lat="48.74339" lon="-3.46506">
        <ele>28</ele>
        <time>2015-11-07T15:27:52Z</time>
      </trkpt>
      <trkpt lat="48.74329" lon="-3.46503">
        <ele>28</ele>
        <time>2015-11-07T15:27:53Z</time>
      </trkpt>
      <trkpt lat="48.74319" lon="-3.465">
        <ele>28</ele>
        <time>2015-11-07T15:27:54Z</time>
      </trkpt>
      <trkpt lat="48.74308" lon="-3.46497">
        <ele>27</ele>
        <time>2015-11-07T15:27:55Z</time>
      </trkpt>
      <trkpt lat="48.74298" lon="-3.46495">
        <ele>27</ele>
        <time>2015-11-07T15:27:56Z</time>
      </trkpt>
      <trkpt lat="48.74288" lon="-3.46493">
        <ele>27</ele>
        <time>2015-11-07T15:27:57Z</time>
      </trkpt>
      <trkpt lat="48.74278" lon="-3.4649">
        <ele>27</ele>
        <time>2015-11-07T15:27:58Z</time>
      </trkpt>
      <trkpt lat="48.74267" lon="-3.46488">
        <ele>27</ele>
        <time>2015-11-07T15:27:59Z</time>
      </trkpt>
      <trkpt lat="48.74256" lon="-3.46485">
        <ele>27</ele>
        <time>2015-11-07T15:28:00Z</time>
      </trkpt>
      <trkpt lat="48.74246" lon="-3.46483">
        <ele>26</ele>
        <time>2015-11-07T15:28:01Z</time>
      </trkpt>
      <trkpt lat="48.74235" lon="-3.4648">
        <ele>26</ele>
        <time>2015-11-07T15:28:02Z</time>
      </trkpt>
      <trkpt lat="48.74224" lon="-3.46476">
        <ele>26</ele>
        <time>2015-11-07T15:28:03Z</time>
      </trkpt>
      <trkpt lat="48.74214" lon="-3.46473">
        <ele>26</ele>
        <time>2015-11-07T15:28:04Z</time>
      </trkpt>
      <trkpt lat="48.74203" lon="-3.4647">
        <ele>26</ele>
        <time>2015-11-07T15:28:05Z</time>
      </trkpt>
      <trkpt lat="48.74192" lon="-3.46466">
        <ele>26</ele>
        <time>2015-11-07T15:28:06Z</time>
      </trkpt>
      <trkpt lat="48.7418" lon="-3.46463">
        <ele>26</ele>
        <time>2015-11-07T15:28:07Z</time>
      </trkpt>
      <trkpt lat="48.74169" lon="-3.4646">
        <ele>26</ele>
        <time>2015-11-07T15:28:08Z</time>
      </trkpt>
      <trkpt lat="48.74158" lon="-3.46457">
        <ele>26</ele>
        <time>2015-11-07T15:28:09Z</time>
      </trkpt>
      <trkpt lat="48.74148" lon="-3.46455">
        <ele>25</ele>
        <time>2015-11-07T15:28:10Z</time>
      </trkpt>
      <trkpt lat="48.74137" lon="-3.46452">
        <ele>25</ele>
        <time>2015-11-07T15:28:11Z</time>
      </trkpt>
      <trkpt lat="48.74125" lon="-3.46449">
        <ele>25</ele>
        <time>2015-11-07T15:28:12Z</time>
      </trkpt>
      <trkpt lat="48.74114" lon="-3.46446">
        <ele>25</ele>
        <time>2015-11-07T15:28:13Z</time>
      </trkpt>
      <trkpt lat="48.74103" lon="-3.46444">
        <ele>25</ele>
        <time>2015-11-07T15:28:14Z</time>
      </trkpt>
      <trkpt lat="48.74093" lon="-3.46441">
        <ele>25</ele>
        <time>2015-11-07T15:28:15Z</time>
      </trkpt>
      <trkpt lat="48.74083" lon="-3.46439">
        <ele>25</ele>
        <time>2015-11-07T15:28:16Z</time>
      </trkpt>
      <trkpt lat="48.74073" lon="-3.46437">
        <ele>24</ele>
        <time>2015-11-07T15:28:17Z</time>
      </trkpt>
      <trkpt lat="48.74063" lon="-3.46435">
        <ele>24</ele>
        <time>2015-11-07T15:28:18Z</time>
      </trkpt>
      <trkpt lat="48.74052" lon="-3.46432">
        <ele>24</ele>
        <time>2015-11-07T15:28:19Z</time>
      </trkpt>
      <trkpt lat="48.74042" lon="-3.4643">
        <ele>24</ele>
        <time>2015-11-07T15:28:20Z</time>
      </trkpt>
      <trkpt lat="48.74033" lon="-3.46429">
        <ele>24</ele>
        <time>2015-11-07T15:28:21Z</time>
      </trkpt>
      <trkpt lat="48.74023" lon="-3.46427">
        <ele>24</ele>
        <time>2015-11-07T15:28:22Z</time>
      </trkpt>
      <trkpt lat="48.74013" lon="-3.46425">
        <ele>24</ele>
        <time>2015-11-07T15:28:23Z</time>
      </trkpt>
      <trkpt lat="48.74003" lon="-3.46423">
        <ele>24</ele>
        <time>2015-11-07T15:28:24Z</time>
      </trkpt>
      <trkpt lat="48.73993" lon="-3.4642">
        <ele>23</ele>
        <time>2015-11-07T15:28:25Z</time>
      </trkpt>
      <trkpt lat="48.73984" lon="-3.46417">
        <ele>23</ele>
        <time>2015-11-07T15:28:26Z</time>
      </trkpt>
      <trkpt lat="48.73974" lon="-3.46414">
        <ele>23</ele>
        <time>2015-11-07T15:28:27Z</time>
      </trkpt>
      <trkpt lat="48.73965" lon="-3.4641">
        <ele>23</ele>
        <time>2015-11-07T15:28:28Z</time>
      </trkpt>
      <trkpt lat="48.73956" lon="-3.46406">
        <ele>23</ele>
        <time>2015-11-07T15:28:29Z</time>
      </trkpt>
      <trkpt lat="48.73947" lon="-3.46402">
        <ele>23</ele>
        <time>2015-11-07T15:28:30Z</time>
      </trkpt>
      <trkpt lat="48.73939" lon="-3.46397">
        <ele>22</ele>
        <time>2015-11-07T15:28:31Z</time>
      </trkpt>
      <trkpt lat="48.73924" lon="-3.46387">
        <ele>22</ele>
        <time>2015-11-07T15:28:33Z</time>
      </trkpt>
      <trkpt lat="48.73909" lon="-3.46378">
        <ele>22</ele>
        <time>2015-11-07T15:28:35Z</time>
      </trkpt>
      <trkpt lat="48.7389" lon="-3.46367">
        <ele>21</ele>
        <time>2015-11-07T15:28:38Z</time>
      </trkpt>
      <trkpt lat="48.73896" lon="-3.46342">
        <ele>20</ele>
        <time>2015-11-07T15:28:44Z</time>
      </trkpt>
      <trkpt lat="48.73916" lon="-3.46333">
        <ele>20</ele>
        <time>2015-11-07T15:28:48Z</time>
      </trkpt>
      <trkpt lat="48.73929" lon="-3.4632">
        <ele>18</ele>
        <time>2015-11-07T15:28:53Z</time>
      </trkpt>
      <trkpt lat="48.73917" lon="-3.46299">
        <ele>17</ele>
        <time>2015-11-07T15:28:57Z</time>
      </trkpt>
      <trkpt lat="48.73903" lon="-3.46288">
        <ele>17</ele>
        <time>2015-11-07T15:29:00Z</time>
      </trkpt>
      <trkpt lat="48.73886" lon="-3.46279">
        <ele>16</ele>
        <time>2015-11-07T15:29:03Z</time>
      </trkpt>
      <trkpt lat="48.73867" lon="-3.46269">
        <ele>15</ele>
        <time>2015-11-07T15:29:06Z</time>
      </trkpt>
      <trkpt lat="48.73848" lon="-3.46258">
        <ele>14</ele>
        <time>2015-11-07T15:29:09Z</time>
      </trkpt>
      <trkpt lat="48.73828" lon="-3.46247">
        <ele>14</ele>
        <time>2015-11-07T15:29:12Z</time>
      </trkpt>
      <trkpt lat="48.73808" lon="-3.46236">
        <ele>13</ele>
        <time>2015-11-07T15:29:15Z</time>
      </trkpt>
      <trkpt lat="48.73796" lon="-3.46229">
        <ele>12</ele>
        <time>2015-11-07T15:29:17Z</time>
      </trkpt>
      <trkpt lat="48.73778" lon="-3.46219">
        <ele>11</ele>
        <time>2015-11-07T15:29:20Z</time>
      </trkpt>
      <trkpt lat="48.7376" lon="-3.46208">
        <ele>10</ele>
        <time>2015-11-07T15:29:23Z</time>
      </trkpt>
      <trkpt lat="48.73743" lon="-3.46198">
        <ele>10</ele>
        <time>2015-11-07T15:29:26Z</time>
      </trkpt>
      <trkpt lat="48.73728" lon="-3.46207">
        <ele>9</ele>
        <time>2015-11-07T15:29:29Z</time>
      </trkpt>
      <trkpt lat="48.73721" lon="-3.46226">
        <ele>8</ele>
        <time>2015-11-07T15:29:32Z</time>
      </trkpt>
      <trkpt lat="48.73715" lon="-3.46237">
        <ele>8</ele>
        <time>2015-11-07T15:29:34Z</time>
      </trkpt>
      <trkpt lat="48.73707" lon="-3.46246">
        <ele>7</ele>
        <time>2015-11-07T15:29:36Z</time>
      </trkpt>
      <trkpt lat="48.73693" lon="-3.46261">
        <ele>7</ele>
        <time>2015-11-07T15:29:39Z</time>
      </trkpt>
      <trkpt lat="48.73679" lon="-3.46276">
        <ele>6</ele>
        <time>2015-11-07T15:29:42Z</time>
      </trkpt>
      <trkpt lat="48.73669" lon="-3.46285">
        <ele>6</ele>
        <time>2015-11-07T15:29:44Z</time>
      </trkpt>
      <trkpt lat="48.7366" lon="-3.46294">
        <ele>5</ele>
        <time>2015-11-07T15:29:46Z</time>
      </trkpt>
      <trkpt lat="48.73651" lon="-3.46303">
        <ele>5</ele>
        <time>2015-11-07T15:29:48Z</time>
      </trkpt>
      <trkpt lat="48.73644" lon="-3.4631">
        <ele>3</ele>
        <time>2015-11-07T15:30:07Z</time>
      </trkpt>
      <trkpt lat="48.73664" lon="-3.46323">
        <ele>2</ele>
        <time>2015-11-07T15:31:11Z</time>
      </trkpt>
      <trkpt lat="48.73678" lon="-3.46335">
        <ele>1</ele>
        <time>2015-11-07T15:31:18Z</time>
      </trkpt>
    </trkseg>
  </trk>
</gpx>